     2              OBSERVATION DATA    GPS                 RINEX VERSION / TYPE
teqc 2000Feb29 Duncan Agnew 20031030 00:44:25UTC            PGM / RUN BY / DATE
                                                            COMMENT
L2: 1 -> 1; 150 -> 5; 250 -> 9                              COMMENT
L2: 1 -> 1; 150 -> 5; 250 -> 9                              COMMENT
L2: 1 -> 1; 150 -> 5; 250 -> 9                              COMMENT
L2: 1 -> 1; 150 -> 5; 250 -> 9                              COMMENT
L2: 1 -> 1; 150 -> 5; 250 -> 9                              COMMENT
Original Marker Name: PT65                                  COMMENT
Campaign Name: CSUSB 2002-2003                              COMMENT
4-Character Station Name: PT65                              COMMENT
6-Character Antenna Code: DMRCHT                            COMMENT
Vertical Measurement Point: BPA                             COMMENT
Vertical Offset to Rinex Ref. Point: 0.0000                 COMMENT
Radial Measurement Point: RRP                               COMMENT
Radial Offset to Rinex Ref. Point: 0.0000                   COMMENT
Antenna Height from Field Measurement: 1.5000 m             COMMENT
Additional Antenna Identification Info.:                    COMMENT
Turborogue and Ashtech Choke Ring                           COMMENT
Original XYZ: -2396130.3037 -4688922.1886 3588592.1182      COMMENT
New XYZ position is based on association with SCEC monument COMMENT
E1F2D0D4+0011. Position of that monument is believed to be  COMMENT
valid to within 1 m horizontally; vertical accuracy         COMMENT
should be no worse than 3-times this value.                 COMMENT
                                                            COMMENT
Revised Rinex header created by UCSD GPS archive for        COMMENT
GSAC on 09-Nov-2004 (2004:314) 22:54:30 GMT                 COMMENT
For assistance contact dagnew@ucsd.edu                      COMMENT
or anderson@python.ucsd.edu                                 COMMENT
                                                            COMMENT
PT65                                                        MARKER NAME
JCD CAL STATE SAN BERNARDINO                                OBSERVER / AGENCY
2402 ASHTECH Z-XII3 CD00                                    REC # / TYPE / VERS
2407 DORNE-MARGOL. TYPE T                                   ANT # / TYPE
 -2396128.0000 -4688912.0000  3588573.0000                  APPROX POSITION XYZ
        1.5000        0.0000        0.0000                  ANTENNA: DELTA H/E/N
     1     1     0                                          WAVELENGTH FACT L1/2
     7    C1    L1    L2    P1    P2    S1    S2            # / TYPES OF OBSERV
     0                                                      INTERVAL
  2002     7    11    11    54   30.000000                  TIME OF FIRST OBS
  2002     7    11    19    55    0.000000                  TIME OF LAST OBS
                                                            END OF HEADER
 02  7 11 11 54 30.0000000  0  6G30G 4G 5G 6G 9G10
                    -31001.26849    -16655.46845                  19178587.196
       238.000         151.000
                     38485.98749      5890.86343
       226.000          74.000
                    -20361.07149     -9206.72647                  17598333.073
       251.000         195.000
                    -24245.99349     -3891.09843
       215.000          74.000
                     49114.59949     19863.58945                  20235271.188
       229.000         141.000
                    -47433.88949    -19319.33845                  19925216.724
       226.000         133.000
 02  7 11 11 55  0.0000000  0  6G30G 4G 5G 6G 9G10
  19163942.262     -107942.50549    -76609.69647  19163942.649    19163946.567
       239.000         188.000
  19884662.112      137511.87749     83053.82046  19884661.705    19884666.009
       231.000         173.000
  17593522.625      -45622.63449    -28891.09048  17593521.888    17593526.249
       251.000         216.000
                    -89817.58349    -54986.25143
       215.000          74.000
  20252777.417      141137.11149     91569.38046  20252777.194    20252782.502
       229.000         174.000
  19908205.932     -136798.63649    -88954.19446  19908205.846    19908210.685
       227.000         168.000
 02  7 11 11 55 30.0000000  0  7G30G24G 4G 5G 6G 9G10
  22147291.621     -184538.24449   -136294.70547  22147291.649    22147295.193
       237.000         192.000
  20690759.900       94669.16449     67807.57548  20690759.705    20690764.520
       248.000         216.000
  22901462.446      236710.56149    160351.46546  22901463.257    22901466.721
       229.000         179.000
  20586739.150      -70364.23549    -48170.27248  20586738.527    20586742.370
       252.000         218.000
  24537752.533     -155304.31049   -106014.76345  24537752.288    24537755.777
       217.000         146.000
  23268250.015      233354.03649    163426.68046  23268249.526    23268254.322
       227.000         178.000
  22889180.260     -225877.18849   -158366.02946  22889179.111    22889184.256
       227.000         172.000
 02  7 11 11 56  0.0000000  0  7G30G24G 4G 5G 6G 9G10
  22132775.362     -260822.72449   -195737.13847  22132775.189    22132778.730
       239.000         193.000
  20698179.650      133657.69849     98188.24148  20698178.999    20698183.986
       248.000         217.000
  22920387.506      336160.03049    237844.51946  22920387.716    22920390.557
       229.000         177.000
  20582129.975      -94586.54649    -67044.80348  20582129.248    20582133.326
       252.000         219.000
  24525298.338     -220735.55749   -157000.13845  24525298.609    24525305.753
       214.000         153.000
  23285849.786      325838.20249    235492.23746  23285848.842    23285854.355
       227.000         178.000
  22872275.589     -314711.45449   -227587.50046  22872273.844    22872280.796
       227.000         173.000
 02  7 11 11 56 30.0000000  0  7G30G24G 4G 5G 6G 9G10
  22007675.151     -918228.75149   -708001.57147  22007675.064    22007678.957
       238.000         193.000
  20595042.510     -408330.67749   -324140.37048  20595042.149    20595046.776
       248.000         217.000
  22828705.090     -145633.87049   -137579.34046  22828705.486    22828709.413
       230.000         178.000
  20466973.180     -699739.82749   -538592.82048  20466972.340    20466976.490
       252.000         219.000
  24402213.899     -867550.25049   -661011.55345  24402216.657    24402220.670
       215.000         154.000
  23192845.087     -162903.04549   -145345.13746  23192845.427    23192850.672
       227.000         176.000
  22744775.565     -984729.08149   -749679.12146  22744774.720    22744779.691
       228.000         174.000
 02  7 11 11 57  0.0000000  0  7G30G24G 4G 5G 6G 9G10
  21992221.859     -999435.54249   -771279.59247  21992221.812    21992225.234
       238.000         193.000
  20601578.789     -373982.57949   -297375.62148  20601578.404    20601583.264
       248.000         217.000
  22846645.395      -51359.53849    -64118.84746  22846645.696    22846650.176
       230.000         181.000
  20461499.142     -728505.53949   -561007.66448  20461498.190    20461502.591
       251.000         219.000
  24388727.144     -938430.32349   -716242.76345  24388727.735    24388732.883
       215.000         154.000
  23209466.393      -75558.39149    -77284.39146  23209465.891    23209470.923
       227.000         175.000
  22726910.638    -1078608.18649   -822831.63846  22726909.488    22726914.977
       227.000         174.000
 02  7 11 11 57 30.0000000  0  7G30G24G 4G 5G 6G 9G10
  21976823.095    -1080356.55449   -834334.92247  21976823.212    21976826.608
       239.000         194.000
  20608194.873     -339214.66849   -270283.74648  20608194.434    20608199.651
       248.000         217.000
  22864614.115       43066.93749      9460.17746  22864613.607    22864618.544
       227.000         179.000
  20456115.421     -756797.29449   -583053.19148  20456114.756    20456118.897
       252.000         219.000
  24375242.685    -1009291.77249   -771459.44145  24375241.661    24375247.621
       213.000         151.000
  23226119.678       11955.39649     -9091.85746  23226119.032    23226124.317
       227.000         174.000
  22709088.930    -1172261.72349   -895808.39546  22709087.336    22709093.818
       225.000         174.000
 02  7 11 11 58  0.0000000  0  7G30G24G 4G 5G 6G 9G10
  21961479.116    -1160989.71149   -897165.93947  21961479.264    21961482.826
       239.000         194.000
  20614890.418     -304029.15149   -242866.45848  20614890.059    20614894.654
       248.000         217.000
  22882611.243      137642.55049     83155.41946  22882611.378    22882614.622
       229.000         178.000
  20450822.093     -784613.92849   -604728.49548  20450821.231    20450825.702
       251.000         219.000
  24361761.777    -1080135.23749   -826662.10345  24361761.434    24361766.337
       213.000         151.000
  23242804.564       99634.58249     59229.57146  23242803.562    23242808.700
       227.000         174.000
  22691310.783    -1265686.58649   -968606.96246  22691309.763    22691315.231
       225.000         174.000
 02  7 11 11 58 30.0000000  0  7G30G24G 4G 5G 6G 9G10
  21946190.234    -1241333.20949   -959771.26147  21946190.419    21946193.544
       238.000         194.000
  20621665.048     -268428.50549   -215125.70648  20621664.739    20621669.371
       248.000         217.000
  22900636.299      232364.40049    156964.63446  22900636.459    22900640.135
       227.000         177.000
  20445619.333     -811954.47749   -626032.82348  20445618.693    20445622.748
       252.000         219.000
  24348283.956    -1150961.29749   -881851.20045  24348283.664    24348289.215
       213.000         151.000
  23259520.215      187475.57349    127677.07146  23259519.810    23259525.978
       227.000         175.000
  22673576.509    -1358880.24749  -1041225.36946  22673575.630    22673581.373
       226.000         174.000
 02  7 11 11 59  0.0000000  0  7G30G24G 4G 5G 6G 9G10
  21930957.207    -1321383.42849  -1022148.05247  21930957.724    21930960.745
       240.000         195.000
  20628518.519     -232413.30649   -187061.92348  20628518.204    20628522.936
       248.000         217.000
  22918688.908      327231.30649    230886.85446  22918689.871    22918693.637
       230.000         177.000
  20440507.731     -838816.47749   -646964.25148  20440506.902    20440511.063
       252.000         219.000
  24334809.844    -1221769.02149   -937026.02645  24334809.372    24334815.021
       210.000         150.000
  23276266.261      275476.37249    196249.10146  23276265.946    23276270.369
       228.000         174.000
  22655887.369    -1451838.09249  -1113660.02146  22655886.706    22655891.732
       227.000         175.000
 02  7 11 11 59 30.0000000  0  7G30G24G 4G 5G 6G 9G10
  21915780.149    -1401139.36249  -1084295.51747  21915779.981    21915783.872
       238.000         195.000
  20635450.130     -195987.48749   -158678.17348  20635449.975    20635454.824
       248.000         217.000
  22936768.407      422239.04949    304918.82746  22936768.795    22936773.433
       231.000         178.000
  20435487.119     -865199.84949   -667522.72848  20435486.427    20435490.651
       252.000         219.000
  24321338.535    -1292560.08849   -992187.84545  24321338.558    24321343.502
       212.000         148.000
  23293041.826      363632.64949    264942.28446  23293041.463    23293046.913
       228.000         175.000
  22638243.256    -1544558.58049  -1185909.72446  22638242.451    22638248.102
       229.000         175.000
 02  7 11 12  0  0.0000000  0  7G30G24G 4G 5G 6G 9G10
  21900659.655    -1480597.07249  -1146210.61147  21900659.859    21900663.546
       239.000         195.000
  20642459.904     -159151.11749   -129974.51348  20642459.213    20642464.469
       247.000         217.000
  22954874.675      517387.25249    379060.25146  22954874.521    22954879.503
       228.000         178.000
  20430558.243     -891101.57649   -687705.89248  20430557.809    20430561.480
       252.000         220.000
  24307871.097    -1363332.82849  -1047335.41245  24307871.281    24307875.671
       211.000         146.000
  23309846.771      451943.02649    333755.54046  23309846.659    23309851.640
       228.000         175.000
  22620645.254    -1637036.64249  -1257970.51946  22620644.124    22620650.350
       228.000         176.000
 02  7 11 12  0 30.0000000  0  7G30G24G 4G 5G 6G 9G10
  21885596.424    -1559754.92649  -1207892.06047  21885596.397    21885600.609
       239.000         196.000
  20649547.067     -121907.30849   -100953.36148  20649546.546    20649551.483
       247.000         216.000
  22973006.865      612672.44849    453308.39146  22973006.329    22973011.800
       228.000         176.000
  20425721.088     -916521.31849   -707513.48148  20425720.208    20425724.522
       251.000         219.000
  24294406.865    -1434088.26549  -1102469.49045  24294405.233    24294412.542
       210.000         144.000
  23326680.327      540403.26149    402685.57446  23326680.035    23326685.493
       228.000         176.000
  22603093.748    -1729270.04149  -1329840.65946  22603092.325    22603098.379
       228.000         177.000
 02  7 11 12  1  0.0000000  0  7G30G24G 4G 5G 6G 9G10
  21870590.679    -1638610.34749  -1269337.82247  21870590.585    21870594.307
       238.000         195.000
  20656711.493      -84258.08349    -71616.31248  20656711.256    20656716.216
       248.000         216.000
  22991164.828      708092.42149    527661.60346  22991165.537    22991168.245
       232.000         176.000
  20420975.922     -941457.31449   -726944.12348  20420975.183    20420979.241
       252.000         219.000
  24280945.947    -1504826.37249  -1157590.06345  24280944.792    24280951.130
       210.000         146.000
  23343541.815      629010.81949    471730.38646  23343542.162    23343547.174
       227.000         176.000
  22585589.606    -1821255.11149  -1401517.31546  22585588.912    22585593.915
       229.000         177.000
 02  7 11 12  1 30.0000000  0  7G30G24G 4G 5G 6G 9G10
  21855642.908    -1717160.91649  -1330546.06247  21855643.053    21855647.005
       239.000         195.000
  20663952.730      -46205.49549    -41964.94848  20663952.473    20663957.197
       248.000         217.000
  23009347.898      803644.67849    602117.89446  23009348.400    23009351.566
       228.000         175.000
  20416323.055     -965908.18349   -745996.75748  20416322.314    20416326.809
       251.000         220.000
  24267488.206    -1575547.31149  -1212697.26245  24267488.217    24267491.721
       210.000         148.000
  23360430.732      717762.28349    540887.34846  23360430.071    23360435.751
       228.000         176.000
  22568133.163    -1912988.86349  -1472998.12046  22568132.027    22568138.049
       229.000         178.000
 02  7 11 12  2  0.0000000  0  7G30G24G 4G 5G 6G 9G10
  21840753.812    -1795404.34249  -1391514.95147  21840754.131    21840758.201
       239.000         196.000
  20671270.332       -7751.27049    -12000.62248  20671270.048    20671274.954
       248.000         217.000
  23027555.537      899326.88249    676675.39446  23027555.755    23027560.522
       224.000         174.000
  20411762.790     -989872.53549   -764670.27748  20411762.051    20411766.174
       251.000         219.000
  24254033.536    -1646251.28549  -1267791.22045  24254032.483    24254038.603
       211.000         148.000
  23377346.351      806654.49749    610153.98046  23377346.730    23377351.576
       228.000         176.000
  22550725.253    -2004467.93849  -1544280.49146  22550724.638    22550730.459
       230.000         179.000
 02  7 11 12  2 30.0000000  0  7G30G24G 4G 5G 6G 9G10
  21825923.600    -1873337.71249  -1452242.24947  21825923.637    21825927.721
       239.000         196.000
  20678664.023       31102.69449     18275.18748  20678663.679    20678668.635
       247.000         216.000
  23045787.533      995137.07449    751332.62646  23045787.603    23045791.882
       226.000         174.000
  20407295.389    -1013348.81649   -782963.48148  20407294.724    20407298.841
       252.000         219.000
  24240582.374    -1716938.01249  -1322871.76445  24240582.834    24240587.146
       212.000         148.000
  23394288.456      895685.04549    679528.41746  23394288.481    23394292.686
       228.000         176.000
  22533366.545    -2095688.74249  -1615361.59446  22533365.606    22533370.964
       229.000         179.000
 02  7 11 12  3  0.0000000  0  7G30G24G 4G 5G 6G 9G10
  21811152.788    -1950958.85449  -1512726.25147  21811152.743    21811156.461
       240.000         197.000
  20686133.349       70354.13349     48860.72448  20686132.828    20686137.892
       248.000         216.000
  23064043.403     1091072.43249    826087.40446  23064043.675    23064047.834
       227.000         173.000
  20402921.163    -1036335.76349   -800875.38948  20402920.482    20402924.751
       251.000         219.000
  24227134.227    -1787607.91149  -1377939.17545  24227132.645    24227139.745
       213.000         149.000
  23411256.126      984850.40149    749007.88946  23411255.715    23411260.778
       227.000         174.000
  22516057.423    -2186648.26749  -1686239.11846  22516056.159    22516061.914
       231.000         178.000
 02  7 11 12  3 30.0000000  0  7G30G24G 4G 5G 6G 9G10
  21796442.091    -2028264.72549  -1572964.58447  21796442.167    21796445.764
       239.000         197.000
  20693678.079      110001.64849     79754.88448  20693678.035    20693682.677
       248.000         217.000
  23082322.760     1187131.35849    900938.48346  23082321.901    23082326.813
       225.000         171.000
  20398640.425    -1058831.31549   -818404.40048  20398639.835    20398643.812
       252.000         219.000
  24213689.524    -1858260.27949  -1432992.93745  24213690.281    24213694.988
       217.000         152.000
  23428248.997     1074148.43949    818590.75046  23428249.031    23428254.026
       226.000         173.000
  22498798.925    -2277342.61649  -1756909.99646  22498797.617    22498802.932
       229.000         178.000
 02  7 11 12  4  0.0000000  0  7G30G24G 4G 5G 6G 9G10
  21781791.549    -2105253.83949  -1632956.10547  21781791.789    21781795.557
       241.000         198.000
  20701297.672      150042.25249    110955.34948  20701297.380    20701302.248
       249.000         217.000
  23100624.996     1283310.65949    975883.35746  23100624.231    23100629.671
       225.000         170.000
  20394453.243    -1080835.36549   -835550.40748  20394452.514    20394456.502
       252.000         220.000
  24200248.110    -1928896.45049  -1488034.09245  24200247.078    24200252.575
       214.000         151.000
  23445266.245     1163575.04249    888273.79146  23445265.790    23445271.337
       225.000         171.000
  22481591.182    -2367769.38549  -1827372.37446  22481590.519    22481595.919
       228.000         178.000
 02  7 11 12  4 30.0000000  0  7G30G24G 4G 5G 6G 9G10
  21767202.007    -2181922.71849  -1692698.07847  21767202.179    21767205.810
       241.000         198.000
  20708991.795      190475.13149    142461.48848  20708991.464    20708996.263
       248.000         216.000
  23118949.851     1379608.95249   1050920.91646  23118949.464    23118954.781
       222.000         170.000
  20390360.016    -1102345.37749   -852311.46548  20390359.478    20390363.629
       251.000         219.000
  24186809.755    -1999515.21949  -1543061.69045  24186809.510    24186813.882
       216.000         151.000
  23462307.536     1253128.22149    958055.45646  23462306.533    23462313.392
       223.000         169.000
  22464435.167    -2457924.36249  -1897622.97246  22464434.775    22464439.598
       229.000         177.000
 02  7 11 12  5  0.0000000  0  7G30G24G 4G 5G 6G 9G10
  21752673.785    -2258269.37549  -1752188.97247  21752674.027    21752677.333
       242.000         199.000
  20716760.009      231297.30949    174270.97048  20716759.686    20716764.353
       248.000         216.000
  23137297.001     1476023.35549   1126048.97646  23137296.283    23137301.904
       226.000         171.000
  20386361.014    -1123360.59749   -868686.95848  20386360.216    20386364.260
       251.000         220.000
  24173374.605    -2070117.15249  -1598076.16345  24173374.131    24173380.131
       217.000         153.000
  23479372.408     1342804.40349   1027932.97046  23479371.949    23479377.175
       223.000         168.000
  22447331.638    -2547804.71549  -1967659.57546  22447330.327    22447336.810
       229.000         178.000
 02  7 11 12  5 30.0000000  0  7G30G24G 4G 5G 6G 9G10
  21738207.428    -2334291.49949  -1811426.99147  21738207.422    21738211.169
       240.000         199.000
  20724601.940      272506.77349    206382.22948  20724601.417    20724606.296
       247.000         216.000
  23155665.852     1572551.59449   1201265.75846  23155665.257    23155671.362
       225.000         171.000
  20382456.324    -1143879.74549   -884675.91648  20382455.540    20382459.908
       251.000         220.000
  24159942.796    -2140702.51549  -1653077.71145  24159943.429    24159947.290
       218.000         155.000
  23496460.143     1432600.54849   1097903.96246  23496459.909    23496464.514
       222.000         167.000
  22430280.779    -2637407.50649  -2037479.91046  22430279.930    22430284.464
       229.000         179.000
 02  7 11 12  6  0.0000000  0  7G30G24G 4G 5G 6G 9G10
  21723802.907    -2409987.31449  -1870410.73647  21723803.294    21723806.430
       241.000         200.000
  20732517.062      314101.17349    238793.44948  20732516.897    20732521.697
       248.000         216.000
  23174055.638     1669190.53349   1276568.78646  23174054.526    23174060.575
       222.000         169.000
  20378646.246    -1163902.10449   -900277.75748  20378645.537    20378649.518
       251.000         219.000
  24146513.909    -2211271.97649  -1708066.88645  24146513.447    24146518.774
       218.000         156.000
  23513569.970     1522513.00649   1167965.58646  23513570.354    23513574.794
       224.000         166.000
  22413283.236    -2726729.96449  -2107081.79746  22413282.687    22413287.488
       230.000         179.000
 02  7 11 12  6 30.0000000  0  7G30G24G 4G 5G 6G 9G10
  21709461.439    -2485353.01949  -1929137.24447  21709461.313    21709465.202
       241.000         200.000
  20740505.240      356079.07149    271503.49648  20740505.047    20740509.799
       248.000         216.000
  23192466.367     1765939.41549   1351957.45646  23192466.490    23192470.666
       223.000         168.000
  20374931.097    -1183425.24649   -915490.59548  20374930.389    20374934.751
       251.000         219.000
  24133088.032    -2281824.27249  -1763042.64745  24133087.481    24133092.756
       220.000         157.000
  23530701.552     1612539.57649   1238116.14046  23530700.825    23530706.421
       225.000         166.000
  22396340.073    -2815767.45749  -2176461.62746  22396338.777    22396344.260
       230.000         181.000
 02  7 11 12  7  0.0000000  0  7G30G24G 4G 5G 6G 9G10
  21695182.940    -2560386.62849  -1987604.99247  21695182.947    21695186.575
       241.000         200.000
  20748565.941      398438.22349    304510.61948  20748565.177    20748570.368
       247.000         216.000
  23210897.460     1862795.34549   1427429.56946  23210898.210    23210902.389
       228.000         170.000
  20371311.204    -1202448.25349   -930313.72348  20371310.455    20371314.691
       251.000         220.000
  24119665.910    -2352359.88849  -1818005.43845  24119665.773    24119671.248
       218.000         159.000
  23547854.223     1702677.16449   1308353.21546  23547853.510    23547858.550
       226.000         166.000
  22379451.508    -2904517.30949  -2245617.34046  22379450.179    22379455.511
       231.000         181.000
 02  7 11 12  7 30.0000000  0  7G30G24G 4G 5G 6G 9G10
  21680968.393    -2635085.07349  -2045811.57547  21680968.378    21680972.038
       242.000         200.000
  20756698.772      441177.08249    337813.62348  20756698.307    20756703.117
       247.000         215.000
  23229348.819     1959756.84349   1502983.94246  23229349.356    23229353.832
       224.000         172.000
  20367786.772    -1220969.36049   -944745.75948  20367786.095    20367790.166
       251.000         219.000
  24106246.707    -2422878.44649  -1872954.92745  24106246.553    24106251.218
       220.000         160.000
  23565027.577     1792923.38649   1378674.90846  23565026.342    23565032.523
       225.000         167.000
  22362618.447    -2992975.68249  -2314545.91446  22362617.312    22362623.068
       232.000         182.000
 02  7 11 12  8  0.0000000  0  7G30G24G 4G 5G 6G 9G10
  21666817.771    -2709446.69749  -2103755.69047  21666817.724    21666821.401
       241.000         200.000
  20764903.396      484292.52649    371410.07048  20764903.087    20764907.802
       247.000         215.000
  23247819.491     2056820.58349   1578617.95746  23247818.520    23247823.763
       223.000         171.000
  20364357.965    -1238988.07949   -958786.31548  20364357.129    20364361.426
       251.000         219.000
  24092830.516    -2493380.73049  -1927891.71645  24092829.311    24092835.049
       217.000         160.000
  23582220.819     1883274.45449   1449078.31746  23582221.118    23582224.811
       224.000         167.000
  22345841.387    -3081140.20349  -2383245.51646  22345840.267    22345846.272
       232.000         182.000
 02  7 11 12  8 30.0000000  0  7G30G24G 4G 5G 6G 9G10
  21652731.930    -2783468.22449  -2161434.80447  21652731.676    21652735.673
       241.000         200.000
  20773179.489      527783.47549    405299.10948  20773179.097    20773184.195
       247.000         215.000
  23266309.440     2153985.44449   1654330.74546  23266310.948    23266315.122
       227.000         172.000
  20361025.051    -1256502.42949   -972433.87348  20361024.336    20361028.588
       250.000         219.000
  24079417.545    -2563865.90149  -1982815.17545  24079416.927    24079422.025
       218.000         160.000
  23599433.553     1973728.17049   1519561.71046  23599433.852    23599438.293
       223.000         168.000
  22329120.923    -3169006.47749  -2451712.72946  22329119.972    22329125.659
       232.000         182.000
 02  7 11 12  9  0.0000000  0  7G30G24G 4G 5G 6G 9G10
  21638711.154    -2857147.80349  -2218847.45547  21638711.042    21638714.755
       241.000         200.000
  20781526.568      571647.58949    439478.94148  20781526.159    20781531.021
       247.000         215.000
  23284818.197     2251248.44849   1730120.04846  23284818.785    23284822.769
       228.000         173.000
  20357788.274    -1273511.84349   -985687.96448  20357787.657    20357791.607
       251.000         219.000
  24066007.885    -2634334.49549  -2037725.72545  24066006.940    24066012.193
       217.000         159.000
  23616665.142     2064280.75549   1590122.14046  23616664.963    23616669.732
       224.000         168.000
  22312457.697    -3256572.10549  -2519945.65746  22312456.368    22312462.199
       232.000         183.000
 02  7 11 12  9 30.0000000  0  7G30G24G 4G 5G 6G 9G10
  21624755.957    -2930483.07049  -2275991.81847  21624755.943    21624759.844
       240.000         201.000
  20789944.263      615882.72749    473947.87448  20789943.971    20789948.638
       248.000         215.000
  23303345.007     2348607.33649   1805984.06046  23303344.700    23303349.453
       227.000         172.000
  20354647.790    -1290015.13849   -998547.67848  20354647.091    20354651.413
       251.000         219.000
  24052601.082    -2704786.67149  -2092623.48545  24052600.371    24052605.860
       215.000         159.000
  23633915.121     2154929.49749   1660757.50546  23633914.422    23633920.543
       224.000         168.000
  22295852.337    -3343833.73949  -2587941.71546  22295851.373    22295856.648
       233.000         184.000
 02  7 11 12 10  0.0000000  0  7G30G24G 4G 5G 6G 9G10
  21610866.798    -3003470.74849  -2332865.33047  21610867.008    21610870.550
       243.000         201.000
  20798432.191      660487.11149    508704.52948  20798432.055    20798436.628
       248.000         215.000
  23321889.803     2446060.81449   1881921.76946  23321890.281    23321894.255
       225.000         170.000
  20351603.966    -1306010.62149  -1011011.69848  20351603.178    20351607.483
       251.000         219.000
  24039197.626    -2775221.71749  -2147507.90545  24039196.770    24039201.911
       215.000         158.000
  23651182.836     2245671.92149   1731465.85746  23651182.587    23651187.207
       224.000         169.000
  22279305.579    -3430787.42349  -2655697.81846  22279304.508    22279310.355
       233.000         184.000
 02  7 11 12 10 30.0000000  0  7G30G24G 4G 5G 6G 9G10
  21597044.352    -3076108.70549  -2389466.32947  21597043.908    21597047.866
       241.000         201.000
  20806989.962      705458.28249    543746.99348  20806989.691    20806994.526
       247.000         215.000
  23340452.008     2543606.13949   1957931.05246  23340452.501    23340457.128
       225.000         170.000
  20348656.986    -1321497.28149  -1023079.22948  20348656.398    20348660.644
       251.000         219.000
  24025797.424    -2845639.98649  -2202379.24845  24025797.157    24025803.198
       216.000         157.000
  23668467.891     2336504.96449   1802244.82446  23668467.421    23668472.432
       224.000         170.000
  22262817.990    -3517430.23049  -2723211.67146  22262816.793    22262822.182
       233.000         185.000
 02  7 11 12 11  0.0000000  0  7G30G24G 4G 5G 6G 9G10
  21583288.704    -3148394.68349  -2445793.06247  21583288.920    21583292.589
       242.000         202.000
  20815617.132      750794.12349    579073.61548  20815616.728    20815621.430
       248.000         215.000
  23359031.472     2641240.98449   2034010.07946  23359032.019    23359035.887
       224.000         169.000
  20345806.995    -1336474.05949  -1034749.44948  20345806.181    20345810.398
       251.000         219.000
  24012400.307    -2916041.74049  -2257237.69945  24012399.492    24012406.316
       214.000         157.000
  23685769.479     2427425.54549   1873092.00446  23685770.003    23685773.378
       223.000         170.000
  22246390.123    -3603759.31549  -2790481.06346  22246389.155    22246394.846
       233.000         185.000
 02  7 11 12 11 30.0000000  0  7G30G24G 4G 5G 6G 9G10
  21569600.568    -3220326.31049  -2501843.68747  21569600.576    21569604.229
       242.000         202.000
  20824313.296      796492.56149    614682.78348  20824312.928    20824317.601
       248.000         215.000
  23377627.386     2738963.37449   2110157.31146  23377627.395    23377633.206
       221.000         167.000
  20343054.287    -1350939.87849  -1046021.51948  20343053.457    20343057.845
       251.000         219.000
  23999006.374    -2986426.82349  -2312083.17345  23999005.514    23999010.763
       216.000         157.000
  23703087.190     2518430.58249   1944004.98646  23703086.645    23703092.779
       224.000         170.000
  22230022.548    -3689771.38149  -2857503.43346  22230021.386    22230026.770
       232.000         185.000
 02  7 11 12 12  0.0000000  0  7G30G24G 4G 5G 6G 9G10
  21555980.381    -3291901.12549  -2557616.26247  21555980.795    21555984.084
       244.000         202.000
  20833078.063      842551.69549    650573.01148  20833077.870    20833082.456
       248.000         215.000
  23396239.576     2836770.86649   2186370.88846  23396239.530    23396243.852
       221.000         164.000
  20340398.936    -1364893.73349  -1056894.65948  20340398.195    20340402.321
       252.000         219.000
  23985615.613    -3056795.23549  -2366915.63745  23985615.074    23985620.620
       216.000         158.000
  23720420.322     2609516.83549   2014981.25146  23720419.865    23720426.123
       221.000         170.000
  22213715.947    -3775463.16049  -2924276.22746  22213715.075    22213720.025
       233.000         185.000
 02  7 11 12 12 30.0000000  0  7G30G24G 4G 5G 6G 9G10
  21542428.658    -3363116.53049  -2613108.78347  21542428.647    21542432.298
       241.000         202.000
  20841911.032      888969.13549    686742.43948  20841910.655    20841915.273
       248.000         215.000
  23414867.593     2934661.41949   2262649.15946  23414868.184    23414871.880
       224.000         165.000
  20337841.286    -1378334.35949  -1067367.87848  20337840.486    20337844.793
       250.000         219.000
  23972228.186    -3127146.94949  -2421735.12345  23972227.812    23972233.175
       217.000         158.000
  23737768.394     2700681.55749   2086018.65646  23737768.675    23737772.981
       221.000         169.000
  22197470.978    -3860831.24349  -2990796.79446  22197470.011    22197474.984
       232.000         186.000
 02  7 11 12 13  0.0000000  0  7G30G24G 4G 5G 6G 9G10
  21528945.600    -3433969.96149  -2668319.24647  21528945.541    21528949.560
       242.000         203.000
  20850811.847      935742.93149    723189.54548  20850811.374    20850816.309
       247.000         215.000
  23433511.206     3032633.12149   2338990.70046  23433509.459    23433517.079
       221.000         165.000
  20335381.473    -1391260.63549  -1077440.30948  20335380.659    20335384.899
       250.000         219.000
  23958843.918    -3197482.04049  -2476541.65045  23958842.978    23958849.160
       218.000         158.000
  23755130.948     2791922.05949   2157115.10946  23755129.776    23755135.802
       218.000         168.000
  22181288.170    -3945872.15049  -3057062.41246  22181287.724    22181291.992
       234.000         186.000
 02  7 11 12 13 30.0000000  0  7G30G24G 4G 5G 6G 9G10
  21515531.934    -3504459.42749  -2723246.09547  21515532.107    21515535.594
       242.000         203.000
  20859779.923      982870.58149    759912.38448  20859779.485    20859784.403
       248.000         215.000
  23452169.571     3130683.54349   2415393.53046  23452169.351    23452174.658
       222.000         165.000
  20333019.678    -1403671.93749  -1087111.45348  20333019.104    20333023.321
       251.000         219.000
  23945462.726    -3267800.67949  -2531335.35345  23945462.341    23945467.519
       217.000         158.000
  23772507.080     2883234.90449   2228267.92946  23772506.616    23772512.257
       219.000         167.000
  22165168.164    -4030583.35749  -3123071.12546  22165166.385    22165172.589
       233.000         186.000
 02  7 11 12 14  0.0000000  0  7G30G24G 4G 5G 6G 9G10
  21502188.092    -3574581.99149  -2777887.05247  21502188.135    21502191.716
       242.000         203.000
  20868815.043     1030350.40649    796909.63748  20868814.450    20868819.369
       247.000         214.000
  23470842.705     3228810.97249   2491856.37746  23470843.363    23470847.940
       225.000         165.000
  20330756.229    -1415566.69249  -1096380.10448  20330755.521    20330759.824
       250.000         219.000
  23932084.727    -3338102.27849  -2586115.78145  23932085.392    23932089.681
       216.000         157.000
  23789896.716     2974617.63349   2299475.21646  23789895.958    23789902.124
       219.000         167.000
  22149111.573    -4114961.01649  -3188819.93446  22149110.310    22149115.669
       233.000         186.000
 02  7 11 12 14 30.0000000  0  7G30G24G 4G 5G 6G 9G10
  21488914.409    -3644335.48949  -2832240.42047  21488914.464    21488918.081
       242.000         203.000
  20877916.670     1078179.73749    834179.24048  20877916.209    20877921.172
       248.000         214.000
  23489529.998     3327012.71449   2568377.17046  23489529.007    23489535.604
       223.000         166.000
  20328591.161    -1426944.25449  -1105245.74248  20328590.510    20328594.816
       251.000         219.000
  23918709.902    -3408387.19949  -2640883.22045  23918708.623    23918714.859
       219.000         156.000
  23807298.838     3066066.78749   2370734.25946  23807298.910    23807303.078
       220.000         167.000
  22133119.063    -4199002.30649  -3254306.62646  22133118.091    22133122.998
       233.000         186.000
 02  7 11 12 15  0.0000000  0  7G30G24G 4G 5G 6G 9G10
  21475711.404    -3713717.18749  -2886304.08647  21475711.214    21475715.167
       243.000         203.000
  20887084.540     1126357.07149    871720.00648  20887084.193    20887089.163
       247.000         214.000
  23508231.065     3425287.20549   2644954.64446  23508231.200    23508235.974
       224.000         166.000
  20326524.830    -1437803.11949  -1113707.20348  20326524.160    20326528.118
       251.000         219.000
  23905338.388    -3478654.93549  -2695637.27545  23905338.898    23905342.775
       218.000         156.000
  23824713.290     3157579.86249   2442043.11946  23824713.554    23824718.105
       223.000         168.000
  22117191.271    -4282703.42249  -3319528.26346  22117190.418    22117195.723
       233.000         186.000
 02  7 11 12 15 30.0000000  0  7G30G24G 4G 5G 6G 9G10
  21462579.704    -3782724.83849  -2940076.28047  21462579.855    21462583.347
       243.000         204.000
  20896318.031     1174879.69149    909529.83648  20896317.560    20896322.486
       246.000         214.000
  23526945.592     3523632.27749   2721587.04846  23526945.535    23526950.352
       222.000         164.000
  20324557.290    -1448142.74449  -1121764.06048  20324556.532    20324560.683
       250.000         219.000
  23891970.066    -3548905.73049  -2750378.14145  23891969.714    23891974.412
       222.000         158.000
  23842139.389     3249153.82649   2513399.41146  23842139.470    23842144.267
       223.000         168.000
  22101328.821    -4366061.57549  -3384482.65646  22101328.219    22101333.560
       233.000         186.000
 02  7 11 12 16  0.0000000  0  7G30G24G 4G 5G 6G 9G10
  21449519.597    -3851356.34449  -2993555.37247  21449519.936    21449523.517
       243.000         204.000
  20905616.914     1223745.73449    947607.26048  20905616.613    20905621.573
       247.000         214.000
  23545673.059     3622045.38149   2798272.50846  23545673.330    23545677.556
       222.000         163.000
  20322688.700    -1457962.27449  -1129415.64548  20322687.926    20322692.167
       250.000         219.000
  23878605.055    -3619140.00049  -2805106.11045  23878605.415    23878610.024
       220.000         159.000
  23859576.346     3340785.68749   2584800.82546  23859576.359    23859581.781
       222.000         167.000
  22085532.025    -4449073.91549  -3449167.58046  22085530.745    22085536.244
       232.000         186.000
 02  7 11 12 16 30.0000000  0  7G30G24G 4G 5G 6G 9G10
  21436531.591    -3919609.12049  -3046739.34847  21436531.698    21436535.509
       243.000         205.000
  20914980.839     1272953.07149    985950.62648  20914980.480    20914985.261
       247.000         214.000
  23564413.197     3720524.78549   2875009.64346  23564414.136    23564417.535
       224.000         165.000
  20320919.275    -1467260.53349  -1136661.05048  20320918.401    20320922.986
       249.000         219.000
  23865243.310    -3689357.28349  -2859820.84445  23865242.436    23865247.756
       222.000         160.000
  23877023.823     3432472.67449   2656245.21446  23877023.471    23877028.065
       224.000         166.000
  22069801.717    -4531737.09149  -3513580.43546  22069800.695    22069806.247
       233.000         186.000
 02  7 11 12 17  0.0000000  0  7G30G24G 4G 5G 6G 9G10
  21423615.980    -3987481.01949  -3099626.54647  21423615.949    21423619.472
       243.000         204.000
  20924409.131     1322499.20349   1024557.99648  20924408.563    20924413.761
       246.000         214.000
  23583165.505     3819067.88249   2951796.41045  23583164.745    23583170.136
       220.000         162.000
  20319249.068    -1476037.31349  -1143500.10948  20319248.557    20319252.552
       251.000         219.000
  23851884.521    -3759557.99749  -2914522.66145  23851883.145    23851889.721
       222.000         160.000
  23894481.224     3524211.19149   2727729.77046  23894481.675    23894486.298
       221.000         164.000
  22054138.369    -4614048.44949  -3577719.13746  22054136.839    22054142.705
       232.000         186.000
 02  7 11 12 17 30.0000000  0  7G30G24G 4G 5G 6G 9G10
  21410773.518    -4054968.25049  -3152213.99847  21410773.560    21410777.200
       244.000         205.000
  20933901.659     1372383.10249   1063428.55848  20933901.372    20933906.488
       247.000         214.000
  23601929.559     3917674.24349   3028632.45645  23601929.624    23601934.301
       223.000         162.000
  20317678.700    -1484290.15949  -1149930.90448  20317678.004    20317682.176
       250.000         219.000
  23838529.282    -3829740.49449  -2969210.29745  23838528.770    23838534.001
       222.000         161.000
  23911947.920     3615999.74449   2799253.27846  23911948.183    23911953.692
       221.000         163.000
  22038542.805    -4696003.31249  -3641580.06046  22038542.295    22038547.308
       234.000         186.000
 02  7 11 12 18  0.0000000  0  7G30G24G 4G 5G 6G 9G10
  21398004.743    -4122069.32249  -3204500.54347  21398004.830    21398007.983
       244.000         205.000
  20943458.079     1422602.07949   1102560.21648  20943457.766    20943462.636
       247.000         214.000
  23620705.304     4016340.80749   3105515.44746  23620706.015    23620709.479
       222.000         163.000
  20316207.955    -1492018.86149  -1155953.27648  20316207.192    20316211.503
       250.000         219.000
  23825177.260    -3899905.86149  -3023884.59145  23825176.853    23825182.295
       221.000         161.000
  23929423.576     3707834.70949   2870812.96445  23929423.505    23929428.996
       221.000         162.000
  22023015.639    -4777599.38149  -3705161.40546  22023014.544    22023020.057
       235.000         187.000
 02  7 11 12 18 30.0000000  0  7G30G24G 4G 5G 6G 9G10
  21385309.575    -4188782.36849  -3256484.73547  21385309.488    21385313.416
       244.000         205.000
  20953077.715     1473153.27149   1141950.74448  20953077.446    20953082.246
       246.000         213.000
  23639491.887     4115064.93749   3182443.28446  23639490.771    23639494.975
       221.000         163.000
  20314837.058    -1499223.17849  -1161567.04148  20314836.331    20314840.576
       250.000         219.000
  23811828.453    -3970054.51849  -3078545.85845  23811827.875    23811832.300
       220.000         161.000
  23946907.585     3799712.72949   2942406.22945  23946907.911    23946912.449
       222.000         162.000
  22007557.216    -4858833.90449  -3768461.02947  22007556.346    22007561.692
       235.000         188.000
 02  7 11 12 19  0.0000000  0  7G30G24G 4G 5G 6G 9G10
  21372688.955    -4255104.03449  -3308163.95247  21372689.275    21372692.486
       244.000         206.000
  20962760.251     1524035.52649   1181599.24448  20962759.933    20962764.758
       247.000         213.000
  23658289.275     4213845.64649   3259415.18246  23658288.957    23658293.973
       221.000         163.000
  20313566.279    -1505901.17249  -1166770.67648  20313565.481    20313569.745
       250.000         219.000
  23798482.927    -4040185.30149  -3133193.17945  23798481.804    23798486.526
       221.000         161.000
  23964399.389     3891631.82249   3014031.47645  23964398.852    23964404.533
       220.000         161.000
  21992168.396    -4939702.70349  -3831475.66547  21992167.309    21992172.946
       236.000         188.000
 02  7 11 12 19 30.0000000  0  7G30G24G 4G 5G 6G 9G10
  21360143.267    -4321032.41449  -3359536.71447  21360143.291    21360146.906
       244.000         206.000
  20972505.323     1575246.01849   1221503.50848  20972504.897    20972510.013
       246.000         213.000
  23677096.940     4312680.29249   3336429.09246  23677096.797    23677102.050
       222.000         164.000
  20312395.688    -1512052.74849  -1171564.11748  20312394.702    20312399.073
       250.000         219.000
  23785140.638    -4110298.83749  -3187827.07445  23785139.840    23785144.443
       219.000         161.000
  23981898.029     3983588.36849   3085685.89345  23981897.408    23981902.426
       218.000         160.000
  21976849.580    -5020203.49649  -3894203.54947  21976848.424    21976854.143
       236.000         189.000
 02  7 11 12 20  0.0000000  0  8G30G24G23G 4G 5G 6G 9G10
  21347672.815    -4386564.70549  -3410600.84447  21347673.033    21347676.696
       244.000         206.000
  20982312.549     1626782.94949   1261662.14648  20982312.038    20982317.239
       246.000         213.000
  24472655.179    -3047333.31349  -2362968.79745  24472654.934    24472663.104
       203.000         137.000
  23695914.576     4411567.32349   3413483.85946  23695914.110    23695918.534
       221.000         164.000
  20311325.475    -1517676.46749  -1175946.24548  20311324.832    20311329.105
       250.000         219.000
  23771801.990    -4180394.44649  -3242447.00245  23771801.834    23771805.965
       219.000         161.000
  23999403.485     4075580.04149   3157367.68945  23999403.159    23999408.469
       220.000         159.000
  21961601.506    -5100332.66149  -3956641.84547  21961600.081    21961605.762
       236.000         189.000
 02  7 11 12 20 30.0000000  0  8G30G24G23G 4G 5G 6G 9G10
  21335278.345    -4451698.52949  -3461354.46447  21335278.144    21335281.943
       243.000         206.000
  20992181.443     1678644.51049   1302073.74148  20992181.085    20992185.923
       246.000         213.000
  24453203.817    -3149551.37949  -2442619.16845  24453204.039    24453208.549
       196.000         135.000
  23714741.708     4510504.76649   3490577.88045  23714742.336    23714746.315
       216.000         162.000
  20310355.967    -1522771.56749  -1179916.45848  20310355.214    20310359.463
       250.000         219.000
  23758466.476    -4250472.11749  -3297052.94045  23758465.297    23758470.593
       217.000         161.000
  24016915.101     4167604.11149   3229074.71745  24016914.276    24016919.417
       216.000         158.000
  21946424.726    -5180087.15949  -4018788.20047  21946424.137    21946429.070
       236.000         189.000
 02  7 11 12 21  0.0000000  0  8G30G24G23G 4G 5G 6G 9G10
  21322960.003    -4516431.47249  -3511795.72847  21322960.182    21322963.550
       244.000         206.000
  21002111.636     1730828.22949   1342736.36548  21002111.381    21002116.218
       246.000         213.000
  24433746.290    -3251800.76249  -2522293.91045  24433744.960    24433753.355
       195.000         134.000
  23733577.963     4609490.68549   3567709.65745  23733578.326    23733582.917
       217.000         160.000
  20309487.110    -1527337.36149  -1183474.23048  20309486.415    20309490.444
       250.000         219.000
  23745134.505    -4320531.85049  -3351644.91645  23745134.785    23745138.672
       220.000         161.000
  24034432.197     4259657.30149   3300804.43945  24034431.989    24034436.986
       218.000         158.000
  21931319.901    -5259463.77649  -4080640.10047  21931319.064    21931324.036
       236.000         189.000
 02  7 11 12 21 30.0000000  0  8G30G24G23G 4G 5G 6G 9G10
  21310718.465    -4580761.36449  -3561922.91747  21310718.277    21310722.590
       244.000         207.000
  21012102.786     1783331.71949   1383648.15847  21012102.474    21012107.217
       246.000         212.000
  24414283.354    -3354078.73648  -2601990.96445  24414282.824    24414288.384
       194.000         135.000
  23752423.260     4708522.96049   3644877.57445  23752423.909    23752428.261
       219.000         161.000
  20308719.131    -1531373.24749  -1186619.08048  20308718.527    20308722.767
       251.000         219.000
  23731805.982    -4390573.50549  -3406222.79345  23731805.083    23731810.815
       217.000         162.000
  24051954.507     4351736.77349   3372554.61645  24051954.378    24051959.952
       218.000         160.000
  21916287.506    -5338459.48549  -4142195.19747  21916286.511    21916291.968
       236.000         190.000
 02  7 11 12 22  0.0000000  0  8G30G24G23G 4G 5G 6G 9G10
  21298553.757    -4644686.52549  -3611734.72747  21298554.438    21298557.896
       245.000         207.000
  21022154.245     1836152.28349   1424807.02847  21022153.736    21022158.791
       246.000         212.000
  24394815.474    -3456383.65549  -2681709.01045  24394814.511    24394821.231
       205.000         144.000
  23771276.890     4807598.95549   3722079.56846  23771278.007    23771282.060
       218.000         163.000
  20308051.973    -1534879.37349  -1189351.13148  20308051.219    20308055.279
       250.000         219.000
  23718480.669    -4460597.66149  -3460787.02646  23718480.298    23718485.856
       217.000         163.000
  24069481.069     4443839.05049   3444322.58845  24069481.265    24069486.159
       217.000         161.000
  21901328.030    -5417071.89349  -4203451.60547  21901327.766    21901332.268
       236.000         190.000
 02  7 11 12 22 30.0000000  0  8G30G24G23G 4G 5G 6G 9G10
  21286467.004    -4708203.49749  -3661228.47547  21286466.806    21286470.846
       244.000         207.000
  21032265.705     1889288.76649   1466212.06647  21032265.256    21032270.465
       246.000         212.000
  24375343.115    -3558711.46049  -2761444.90645  24375342.901    24375349.020
       210.000         150.000
  23790138.490     4906717.63549   3799314.79545  23790138.850    23790142.767
       218.000         161.000
  20307485.971    -1537853.70249  -1191668.80248  20307485.270    20307489.596
       250.000         219.000
  23705159.065    -4530603.19349  -3515336.75545  23705158.180    23705163.742
       218.000         162.000
  24087011.531     4535962.38649   3516106.96045  24087011.089    24087016.315
       218.000         162.000
  21886442.332    -5495297.09849  -4264406.30147  21886441.092    21886446.901
       236.000         190.000
 02  7 11 12 23  0.0000000  0  8G30G24G23G 4G 5G 6G 9G10
  21274457.993    -4771311.21749  -3710403.33047  21274458.589    21274461.336
       245.000         207.000
  21042436.770     1942737.88249   1507860.70747  21042436.344    21042441.304
       245.000         212.000
  24355866.568    -3661060.72449  -2841197.52145  24355866.465    24355872.581
       216.000         153.000
  23809007.688     5005876.01249   3876580.96645  23809008.057    23809012.646
       218.000         160.000
  20307021.087    -1540296.75049  -1193572.48948  20307020.322    20307024.548
       250.000         219.000
  23691840.720    -4600591.15949  -3569872.81546  23691839.871    23691845.586
       218.000         163.000
  24104545.318     4628102.75549   3587904.61045  24104544.721    24104550.234
       217.000         161.000
  21871630.569    -5573133.14549  -4325057.75647  21871629.576    21871634.975
       236.000         190.000
 02  7 11 12 23 30.0000000  0  8G30G24G23G 4G 5G 6G 9G10
  21262527.676    -4834006.07949  -3759256.46947  21262527.778    21262531.601
       245.000         208.000
  21052667.156     1996498.82049   1549752.32747  21052666.912    21052671.829
       246.000         212.000
  24336386.814    -3763427.67849  -2920963.93345  24336385.321    24336392.056
       210.000         150.000
  23827884.505     5105073.21149   3953877.39045  23827885.268    23827889.742
       220.000         160.000
  20306657.616    -1542206.69249  -1195060.76148  20306656.974    20306661.199
       250.000         219.000
  23678526.090    -4670560.28649  -3624394.18346  23678526.597    23678530.310
       220.000         164.000
  24122081.960     4720258.48049   3659714.23645  24122082.250    24122086.739
       218.000         161.000
  21856893.782    -5650575.54949  -4385402.48047  21856892.438    21856897.646
       237.000         191.000
 02  7 11 12 24  0.0000000  0  8G30G24G23G 4G 5G 6G 9G10
  21250675.902    -4896287.31349  -3807787.30947  21250676.143    21250679.457
       246.000         208.000
  21062956.160     2050567.78549   1591883.96847  21062955.699    21062960.671
       246.000         212.000
  24316903.972    -3865810.92249  -3000743.01645  24316903.488    24316909.187
       218.000         150.000
  23846768.155     5204305.94849   4031201.52445  23846768.686    23846772.582
       221.000         160.000
  20306395.505    -1543584.10449  -1196134.07848  20306394.715    20306399.228
       250.000         219.000
  23665214.758    -4740511.75649  -3678901.81646  23665214.493    23665219.774
       220.000         165.000
  24139620.660     4812425.37749   3731532.55745  24139621.008    24139626.062
       220.000         162.000
  21842232.166    -5727622.73749  -4445439.24347  21842231.208    21842236.447
       237.000         191.000
 02  7 11 12 24 30.0000000  0  8G30G24G23G 4G 5G 6G 9G10
  21238903.644    -4958151.52449  -3855993.19647  21238903.503    21238907.184
       245.000         208.000
  21073303.465     2104943.24549   1634254.43947  21073302.976    21073308.039
       245.000         211.000
  24297418.777    -3968206.81149  -3080531.97845  24297417.428    24297424.622
       218.000         153.000
  23865658.177     5303573.23749   4108552.57145  23865658.279    23865662.668
       222.000         159.000
  20306234.988    -1544427.62549  -1196791.38048  20306234.416    20306238.843
       250.000         219.000
  23651907.142    -4810444.55249  -3733394.89046  23651906.496    23651911.357
       220.000         165.000
  24157161.174     4904601.31849   3803357.92646  24157160.816    24157166.311
       220.000         163.000
  21827646.479    -5804270.87449  -4505165.06047  21827645.406    21827650.880
       238.000         192.000
 02  7 11 12 25  0.0000000  0  8G30G24G23G 4G 5G 6G 9G10
  21227211.080    -5019596.11549  -3903872.09747  21227211.088    21227214.791
       245.000         208.000
  21083708.701     2159623.27349   1676862.23147  21083708.113    21083713.459
       245.000         211.000
  24277931.576    -4070612.40049  -3160328.49045  24277930.768    24277936.969
       216.000         152.000
  23884554.358     5402873.33949   4185929.21045  23884555.336    23884559.969
       223.000         158.000
  20306176.292    -1544736.26049  -1197031.88048  20306175.657    20306179.786
       250.000         219.000
  23638602.909    -4880358.23549  -3787873.06446  23638602.246    23638607.711
       221.000         165.000
  24174702.974     4996783.80049   3875188.38545  24174702.452    24174707.447
       218.000         162.000
  21813137.393    -5880516.63649  -4564577.33747  21813136.440    21813141.710
       238.000         193.000
 02  7 11 12 25 30.0000000  0  8G30G24G23G 4G 5G 6G 9G10
  21215598.925    -5080618.32049  -3951421.87647  21215598.627    21215602.636
       245.000         208.000
  21094171.722     2214606.82049   1719706.53247  21094171.499    21094176.307
       245.000         211.000
  24258443.161    -4173024.49449  -3240130.10445  24258442.220    24258448.262
       215.000         149.000
  23903456.727     5502205.02049   4263330.45945  23903459.080    23903461.738
       224.000         157.000
  20306219.588    -1544508.97149  -1196854.77748  20306218.677    20306223.358
       250.000         219.000
  23625302.347    -4950252.43949  -3842336.05746  23625302.134    23625307.576
       221.000         164.000
  24192245.481     5088970.27949   3947021.98545  24192245.437    24192250.086
       220.000         161.000
  21798705.585    -5956356.27249  -4623673.14547  21798704.971    21798709.666
       239.000         193.000
 02  7 11 12 26  0.0000000  0  8G30G24G23G 4G 5G 6G 9G10
  21204067.341    -5141217.01549  -3998641.63647  21204067.500    21204071.164
       246.000         209.000
  21104691.819     2269890.21449   1762784.48447  21104691.486    21104696.620
       245.000         211.000
  24238953.845    -4275441.49449  -3319935.50445  24238953.192    24238958.418
       214.000         147.000
  23922364.309     5601565.05549   4340753.78145  23922363.692    23922368.519
       220.000         154.000
  20306364.708    -1543746.30949  -1196260.50948  20306364.107    20306368.174
       250.000         219.000
  23612005.492    -5020128.16349  -3896784.65446  23612005.559    23612010.554
       222.000         164.000
  24209788.072     5181156.97349   4018855.74045  24209788.033    24209792.849
       220.000         162.000
  21784351.422    -6031788.25049  -4682451.30447  21784350.308    21784355.501
       238.000         194.000
 02  7 11 12 26 30.0000000  0  8G30G24G23G 4G 5G 6G 9G10
  21192617.049    -5201388.79949  -4045528.75247  21192617.106    21192620.667
       245.000         209.000
  21115268.754     2325472.24049   1806095.13347  21115268.644    21115273.520
       246.000         211.000
  24219464.293    -4377859.66949  -3399741.83045  24219462.815    24219468.231
       214.000         146.000
  23941277.063     5700952.70349   4418198.63945  23941276.309    23941282.288
       216.000         153.000
  20306612.061    -1542446.68749  -1195247.82048  20306611.286    20306615.657
       250.000         219.000
  23598712.331    -5089984.00249  -3951217.76546  23598712.072    23598716.475
       221.000         165.000
  24227330.492     5273342.06349   4090688.24445  24227330.508    24227335.677
       218.000         161.000
  21770075.446    -6106808.70749  -4740908.79947  21770074.851    21770079.463
       239.000         194.000
 02  7 11 12 27  0.0000000  0  8G30G24G23G 4G 5G 6G 9G10
  21181248.278    -5261132.14749  -4092082.01247  21181248.407    21181252.158
       245.000         209.000
  21125902.044     2381350.18249   1849636.35847  21125901.773    21125906.763
       245.000         211.000
  24199974.860    -4480276.87049  -3479547.37345  24199973.847    24199980.901
       208.000         145.000
  23960194.801     5800365.54449   4495663.08645  23960195.732    23960200.450
       214.000         151.000
  20306961.506    -1540610.36549  -1193816.93548  20306961.023    20306964.997
       250.000         219.000
  23585422.972    -5159820.58149  -4005635.86146  23585423.981    23585427.228
       223.000         166.000
  24244871.791     5365522.28749   4162516.95745  24244870.915    24244876.728
       218.000         159.000
  21755878.309    -6181415.21349  -4799043.73647  21755877.459    21755882.884
       238.000         194.000
 02  7 11 12 27 30.0000000  0  8G30G24G23G 4G 5G 6G 9G10
  21169961.490    -5320444.55349  -4138299.48347  21169961.850    21169965.311
       247.000         209.000
  21136591.154     2437521.73149   1893406.38047  21136590.843    21136595.614
       246.000         211.000
  24180486.141    -4582690.27849  -3559350.01345  24180484.399    24180491.672
       209.000         141.000
  23979117.041     5899801.78449   4573145.76245  23979116.683    23979122.026
       214.000         151.000
  20307413.288    -1538236.52249  -1191967.19448  20307412.481    20307417.005
       250.000         219.000
  23572137.494    -5229637.61449  -4060038.73346  23572136.729    23572141.518
       221.000         165.000
  24262411.603     5457694.86249   4234339.71445  24262411.592    24262416.875
       220.000         159.000
  21741760.558    -6255604.28749  -4856853.39747  21741759.723    21741764.751
       238.000         194.000
 02  7 11 12 28  0.0000000  0  8G30G24G23G 4G 5G 6G 9G10
  21158757.166    -5379324.25549  -4184179.77247  21158757.017    21158761.060
       246.000         210.000
  21147335.690     2493984.40049   1937403.23747  21147335.344    21147340.486
       245.000         211.000
  24160998.633    -4685097.65349  -3639147.89745  24160997.320    24161003.517
       208.000         144.000
  23998043.057     5999259.13149   4650644.90345  23998043.930    23998047.742
       214.000         150.000
  20307967.325    -1535324.94749  -1189698.45148  20307966.437    20307970.996
       249.000         219.000
  23558855.148    -5299435.27249  -4114426.49646  23558853.975    23558860.054
       221.000         165.000
  24279949.498     5549856.51349   4306153.95745  24279948.581    24279954.953
       218.000         158.000
  21727722.741    -6329373.81049  -4914336.13547  21727721.701    21727726.935
       238.000         194.000
 02  7 11 12 28 30.0000000  0  8G30G24G23G 4G 5G 6G 9G10
  21147635.587    -5437768.27749  -4229720.58147  21147635.587    21147639.345
       246.000         210.000
  21158135.313     2550736.59049   1981625.69747  21158135.008    21158139.873
       245.000         211.000
  24141512.949    -4787495.58249  -3718938.41945  24141511.409    24141517.536
       212.000         141.000
  24016972.875     6098736.34749   4728159.50045  24016972.256    24016977.740
       210.000         150.000
  20308623.841    -1531874.83249  -1187010.06248  20308623.283    20308627.477
       250.000         219.000
  23545576.780    -5369212.68249  -4168798.47346  23545576.557    23545581.357
       222.000         165.000
  24297484.710     5642005.23749   4377958.09645  24297484.252    24297489.355
       219.000         156.000
  21713765.375    -6402720.15849  -4971489.12747  21713764.384    21713769.611
       239.000         194.000
 02  7 11 12 29  0.0000000  0  8G30G24G23G 4G 5G 6G 9G10
  21136597.674    -5495773.05349  -4274919.11247  21136597.588    21136601.105
       246.000         210.000
  21168989.905     2607777.60949   2026073.22147  21168989.653    21168994.569
       246.000         211.000
  24122029.789    -4889880.02049  -3798718.45645  24122027.628    24122035.109
       210.000         139.000
  24035906.291     6198232.83249   4805689.15845  24035906.668    24035912.541
       210.000         151.000
  20309383.226    -1527884.45149  -1183900.68848  20309382.447    20309386.949
       250.000         219.000
  23532302.720    -5438968.62049  -4223153.73446  23532302.496    23532307.422
       225.000         166.000
  24315017.266     5734139.36849   4449750.90645  24315017.404    24315021.726
       220.000         155.000
  21699889.359    -6475639.11449  -5028309.09147  21699888.310    21699893.580
       238.000         195.000
 02  7 11 12 29 30.0000000  0  8G30G24G23G 4G 5G 6G 9G10
  21125643.218    -5553339.35849  -4319775.98147  21125643.232    21125647.146
       246.000         211.000
  21179898.408     2665102.03449   2070741.58047  21179898.082    21179902.979
       245.000         211.000
  24102549.069    -4992251.15949  -3878488.12445  24102548.343    24102555.263
       206.000         142.000
  24054842.924     6297743.73649   4883229.99245  24054843.748    24054848.563
       214.000         154.000
  20310244.914    -1523356.20649  -1180372.19648  20310244.201    20310248.424
       250.000         219.000
  23519032.347    -5508705.80549  -4277494.39046  23519032.453    23519037.313
       223.000         166.000
  24332546.074     5826253.31449   4521527.98145  24332546.089    24332549.989
       215.000         154.000
  21686094.663    -6548130.80149  -5084796.11747  21686093.690    21686098.947
       238.000         195.000
 02  7 11 12 30  0.0000000  0  8G30G24G23G 4G 5G 6G 9G10
  21114772.877    -5610463.11549  -4364288.00847  21114772.697    21114776.235
       246.000         210.000
  21190860.768     2722709.72549   2115630.66647  21190860.233    21190865.706
       244.000         210.000
  24083071.761    -5094604.37749  -3958243.80145  24083070.737    24083077.369
       207.000         144.000
  24073782.173     6397269.30149   4960782.25845  24073783.167    24073787.574
       217.000         157.000
  20311209.405    -1518288.00849  -1176422.96248  20311208.633    20311213.003
       250.000         219.000
  23505765.727    -5578422.27349  -4331818.89746  23505764.958    23505769.434
       223.000         166.000
  24350070.688     5918345.89149   4593288.39645  24350069.857    24350075.055
       214.000         152.000
  21672382.255    -6620190.37549  -5140946.43747  21672381.363    21672386.595
       239.000         195.000
 02  7 11 12 30 30.0000000  0  8G30G24G23G 4G 5G 6G 9G10
  21103987.220    -5667142.58049  -4408453.82447  21103987.394    21103991.181
       247.000         211.000
  21201876.483     2780598.12049   2160738.48447  21201876.107    21201881.180
       244.000         210.000
  24063598.419    -5196937.37949  -4037983.75345  24063598.018    24063604.102
       215.000         150.000
  24092723.809     6496807.28649   5038344.22845  24092723.215    24092729.611
       216.000         158.000
  20312276.617    -1512679.85549  -1172052.98148  20312275.714    20312280.100
       250.000         219.000
  23492503.071    -5648118.07449  -4386127.29646  23492501.809    23492508.013
       223.000         166.000
  24367590.624     6010414.07549   4665029.80045  24367591.018    24367595.354
       215.000         151.000
  21658752.516    -6691815.33449  -5196758.08847  21658751.179    21658756.342
       238.000         195.000
 02  7 11 12 31  0.0000000  0  8G30G24G23G 4G 5G 6G 9G10
  21093286.508    -5723375.21649  -4452271.47547  21093286.811    21093290.112
       247.000         211.000
  21212945.259     2838765.02049   2206063.31347  21212945.044    21212950.014
       244.000         209.000
  24044129.591    -5299247.19249  -4117705.64945  24044128.926    24044134.472
       214.000         154.000
  24111667.414     6596356.09849   5115914.61545  24111667.430    24111672.627
       221.000         159.000
  20313446.642    -1506530.99649  -1167261.67848  20313445.954    20313450.418
       250.000         219.000
  23479244.368    -5717792.71849  -4440419.20246  23479244.297    23479248.513
       224.000         165.000
  24385105.564     6102455.42049   4736750.31645  24385104.413    24385110.586
       209.000         150.000
  21645206.070    -6763002.24149  -5252228.41347  21645204.876    21645210.675
       239.000         195.000
 02  7 11 12 31 30.0000000  0  8G30G24G23G 4G 5G 6G 9G10
  21082671.317    -5779158.76749  -4495739.17547  21082671.190    21082674.801
       247.000         211.000
  21224066.717     2897208.58349   2251603.72947  21224066.265    21224071.283
       244.000         209.000
  24024665.595    -5401530.98649  -4197407.26545  24024665.140    24024671.425
       217.000         156.000
  24130612.649     6695913.79649   5193491.95145  24130612.605    24130618.180
       221.000         161.000
  20314719.679    -1499841.23349  -1162048.88948  20314718.753    20314723.308
       250.000         219.000
  23465989.860    -5787446.06049  -4494694.53146  23465989.843    23465993.579
       223.000         165.000
  24402614.687     6194467.05849   4808447.67645  24402613.942    24402619.985
       212.000         150.000
  21631743.519    -6833748.56749  -5307355.42447  21631742.516    21631747.805
       238.000         196.000
 02  7 11 12 32  0.0000000  0  8G30G24G23G 4G 5G 6G 9G10
  21072141.704    -5834491.95049  -4538855.95047  21072141.880    21072145.525
       247.000         211.000
  21235240.311     2955925.98349   2297357.51447  21235240.069    21235244.972
       245.000         209.000
  24005207.076    -5503786.78249  -4277087.08145  24005205.612    24005212.062
       216.000         156.000
  24149559.269     6795478.20249   5271074.51345  24149559.668    24149563.569
       217.000         159.000
  20316095.551    -1492611.03849  -1156414.98548  20316094.800    20316099.193
       250.000         219.000
  23452739.189    -5857078.65449  -4548953.67846  23452737.518    23452743.704
       221.000         165.000
  24420117.646     6286445.37649   4880119.07145  24420117.504    24420122.851
       216.000         153.000
  21618365.139    -6904052.18749  -5362137.46347  21618364.188    21618369.455
       238.000         196.000
 02  7 11 12 32 30.0000000  0  8G30G24G23G 4G 5G 6G 9G10
  21061698.548    -5889371.13349  -4581618.95147  21061698.310    21061701.875
       246.000         211.000
  21246465.842     3014916.21349   2343323.89847  21246465.438    21246470.807
       245.000         209.000
  23985754.595    -5606010.43549  -4356741.84345  23985753.368    23985760.522
       215.000         155.000
  24168506.944     6895048.59249   5348661.75445  24168505.262    24168511.956
       216.000         158.000
  20317574.633    -1484838.66149  -1150358.59748  20317573.976    20317578.389
       250.000         219.000
  23439492.716    -5926688.82849  -4603195.36046  23439492.957    23439496.947
       221.000         165.000
  24437613.966     6378389.09049   4951763.48545  24437613.662    24437620.361
       216.000         156.000
  21605071.868    -6973908.86349  -5416571.23847  21605070.881    21605076.254
       239.000         196.000
 02  7 11 12 33  0.0000000  0  8G30G24G23G 4G 5G 6G 9G10
  21051341.879    -5943795.26149  -4624027.36847  21051342.009    21051345.811
       247.000         211.000
  21257742.675     3074176.06049   2389500.37547  21257742.491    21257747.517
       245.000         209.000
  23966308.233    -5708200.26249  -4436370.22345  23966307.600    23966313.549
       214.000         154.000
  24187455.286     6994622.31149   5426251.56545  24187453.764    24187460.836
       216.000         156.000
  20319156.736    -1476524.84649  -1143880.31148  20319155.861    20319160.350
       250.000         219.000
  23426250.254    -5996277.56349  -4657420.33146  23426249.505    23426254.679
       222.000         165.000
  24455103.087     6470294.49449   5023378.04845  24455102.295    24455108.160
       216.000         158.000
  21591863.933    -7043316.81849  -5470655.35047  21591862.804    21591868.362
       239.000         197.000
 02  7 11 12 33 30.0000000  0  8G30G24G23G 4G 5G 6G 9G10
  21041072.531    -5997761.07749  -4666078.65547  21041072.529    21041076.184
       246.000         212.000
  21269070.620     3133704.37149   2435886.04247  21269070.209    21269075.216
       244.000         209.000
  23946869.371    -5810352.25749  -4515969.16545  23946868.308    23946874.620
       214.000         154.000
  24206403.985     7094198.62549   5503843.40045  24206405.144    24206409.227
       216.000         151.000
  20320842.066    -1467668.29949  -1136979.12148  20320841.504    20320845.807
       249.000         219.000
  23413012.268    -6065843.52749  -4711627.53846  23413012.139    23413016.880
       222.000         166.000
  24472584.466     6562159.91549   5094961.47145  24472583.883    24472588.253
       216.000         155.000
  21578742.188    -7112272.37249  -5524386.95647  21578741.038    21578746.409
       239.000         197.000
 02  7 11 12 34  0.0000000  0  8G30G24G23G 4G 5G 6G 9G10
  21030891.165    -6051264.64149  -4707769.75147  21030891.187    21030894.905
       246.000         212.000
  21280449.445     3193500.47349   2482480.37547  21280449.341    21280454.081
       244.000         209.000
  23927438.568    -5912462.02549  -4595535.17245  23927437.740    23927444.041
       211.000         151.000
  24225353.193     7193777.42949   5581437.19945  24225353.107    24225358.904
       213.000         149.000
  20322631.049    -1458267.23849  -1129653.62648  20322630.156    20322634.496
       249.000         219.000
  23399778.979    -6135384.78149  -4765815.51146  23399778.760    23399783.677
       223.000         167.000
  24490058.093     6653984.12149   5166512.76245  24490057.616    24490063.577
       217.000         155.000
  21565707.238    -7180771.18449  -5577762.65847  21565706.452    21565711.397
       240.000         198.000
 02  7 11 12 34 30.0000000  0  8G30G24G23G 4G 5G 6G 9G10
  21020797.499    -6104307.16349  -4749101.58947  21020797.595    21020801.246
       248.000         212.000
  21291878.290     3253559.07049   2529279.24747  21291878.030    21291882.916
       245.000         208.000
  23908015.319    -6014530.07549  -4675068.68545  23908013.557    23908022.548
       213.000         148.000
  24244302.003     7293354.06149   5659029.30245  24244302.808    24244309.617
       213.000         147.000
  20324523.111    -1448324.37049  -1121905.94948  20324522.416    20324526.957
       250.000         219.000
  23386549.931    -6204904.23449  -4819986.48546  23386549.818    23386554.350
       223.000         168.000
  24507522.765     6745761.48649   5238027.55745  24507522.175    24507527.453
       218.000         155.000
  21552759.312    -7248813.31949  -5630782.50747  21552758.566    21552763.367
       239.000         198.000
 02  7 11 12 35  0.0000000  0  8G30G24G23G 4G 5G 6G 9G10
  21010792.056    -6156886.26649  -4790072.32447  21010792.111    21010796.125
       247.000         212.000
  21303356.731     3313878.29549   2576281.20647  21303356.303    21303361.139
       244.000         208.000
  23888600.985    -6116553.34049  -4754567.29445  23888598.997    23888607.243
       212.000         147.000
  24263250.199     7392926.69649   5736618.25045  24263249.842    24263255.154
       212.000         143.000
  20326518.350    -1437839.39849  -1113735.86048  20326517.475    20326522.116
       249.000         219.000
  23373325.043    -6274401.51149  -4874140.17646  23373324.714    23373330.155
       224.000         169.000
  24524977.929     6837489.26849   5309503.72445  24524977.591    24524983.783
       215.000         156.000
  21539898.709    -7316396.07649  -5683444.38947  21539897.829    21539902.905
       240.000         199.000
 02  7 11 12 35 30.0000000  0  8G30G24G23G 4G 5G 6G 9G10
  21000875.222    -6208999.95349  -4830680.39648  21000875.337    21000878.937
       247.000         213.000
  21314884.260     3374455.81049   2623484.44347  21314883.353    21314889.020
       243.000         208.000
  23869195.705    -6218529.46949  -4834029.19145  23869195.380    23869200.862
       216.000         148.000
  24282197.209     7492493.64749   5814202.80345  24282197.355    24282202.551
       213.000         142.000
  20328616.732    -1426812.29749  -1105143.33348  20328616.142    20328620.432
       250.000         219.000
  23360104.477    -6343876.47949  -4928276.49246  23360104.226    23360109.824
       224.000         170.000
  24542423.181     6929164.46149   5380938.89745  24542422.844    24542428.045
       219.000         157.000
  21527126.114    -7383516.62649  -5735746.12547  21527124.991    21527130.474
       240.000         199.000
 02  7 11 12 36  0.0000000  0  8G30G24G23G 4G 5G 6G 9G10
  20991047.406    -6260645.73149  -4870923.85947  20991047.330    20991051.124
       247.000         212.000
  21326460.517     3435289.69849   2670887.43947  21326459.629    21326465.323
       243.000         208.000
  23849799.802    -6320455.03549  -4913451.70145  23849798.928    23849804.425
       215.000         149.000
  24301142.975     7592053.64049   5891781.87145  24301143.428    24301147.882
       214.000         144.000
  20330818.441    -1415242.32549  -1096127.77548  20330817.578    20330821.976
       249.000         218.000
  23346888.306    -6413328.51349  -4982394.93946  23346888.326    23346892.698
       225.000         171.000
  24559858.216     7020785.06949   5452331.54345  24559858.264    24559863.105
       216.000         157.000
  21514442.117    -7450171.69249  -5787685.13847  21514441.072    21514446.246
       241.000         199.000
 02  7 11 12 36 30.0000000  0  8G30G24G23G 4G 5G 6G 9G10
  20981309.111    -6311820.47449  -4910800.29348  20981309.322    20981312.959
       248.000         213.000
  21338085.319     3496378.87149   2718489.36247  21338084.951    21338090.189
       244.000         207.000
  23830414.179    -6422326.25649  -4992831.87845  23830413.628    23830419.934
       211.000         150.000
  24320087.410     7691605.93249   5969354.94045  24320087.644    24320092.746
       214.000         146.000
  20333123.644    -1403128.44949  -1086688.41548  20333123.012    20333127.490
       250.000         218.000
  23333676.489    -6482756.30449  -5036494.47646  23333676.142    23333680.396
       224.000         171.000
  24577282.389     7112349.48049   5523680.40445  24577281.032    24577287.400
       218.000         156.000
  21501847.326    -7516357.70049  -5839258.65547  21501846.551    21501851.770
       240.000         199.000
 02  7 11 12 37  0.0000000  0  8G30G24G23G 4G 5G 6G 9G10
  20971660.803    -6362522.78749  -4950308.59347  20971660.562    20971664.465
       246.000         212.000
  21349758.307     3557720.66049   2766288.13547  21349758.030    21349763.522
       244.000         208.000
  23811039.464    -6524140.87649  -5072167.91845  23811037.772    23811045.677
       213.000         150.000
  24339029.900     7791148.20649   6046920.27245  24339030.750    24339035.508
       216.000         148.000
  20335532.294    -1390471.19849  -1076825.63348  20335531.604    20335535.882
       250.000         219.000
  23320469.144    -6552160.15449  -5090575.36746  23320468.636    23320473.370
       224.000         172.000
  24594695.182     7203854.31849   5594982.85345  24594695.557    24594699.766
       212.000         154.000
  21489342.149    -7582072.75349  -5890465.19147  21489341.249    21489346.355
       240.000         200.000
 02  7 11 12 37 30.0000000  0  8G30G24G23G 4G 5G 6G 9G10
  20962102.854    -6412749.95549  -4989446.65347  20962102.968    20962106.780
       247.000         212.000
  21361479.087     3619313.65849   2814282.64547  21361478.776    21361484.262
       244.000         207.000
  23791676.252    -6625895.50749  -5151457.24345  23791676.275    23791681.827
       216.000         152.000
  24357970.307     7890679.81149   6124477.19945  24357970.408    24357976.423
       215.000         148.000
  20338044.424    -1377270.04249  -1066539.03348  20338043.685    20338048.384
       250.000         219.000
  23307266.734    -6621539.17549  -5144636.91046  23307266.975    23307271.542
       227.000         172.000
  24612096.251     7295297.39049   5666237.14745  24612095.661    24612101.617
       213.000         151.000
  21476927.329    -7647313.23849  -5941301.93447  21476926.393    21476931.558
       241.000         200.000
 02  7 11 12 38  0.0000000  0  8G30G24G23G 4G 5G 6G 9G10
  20952635.464    -6462501.18049  -5028213.85348  20952635.672    20952639.298
       247.000         213.000
  21373247.141     3681154.43849   2862470.23647  21373247.099    21373252.138
       244.000         208.000
  23772324.755    -6727588.66249  -5230698.66045  23772324.612    23772329.817
       217.000         154.000
  24376907.762     7990197.32549   6202023.21445  24376907.848    24376912.847
       215.000         150.000
  20340659.746    -1363526.31249  -1055829.65748  20340659.105    20340663.406
       249.000         218.000
  23294069.213    -6690894.53649  -5198680.04946  23294069.781    23294072.996
       227.000         172.000
  24629484.636     7386674.67649   5737440.18945  24629484.133    24629489.432
       213.000         150.000
  21464602.979    -7712078.29049  -5991768.21547  21464602.045    21464607.153
       239.000         200.000
 02  7 11 12 38 30.0000000  0  8G30G24G23G 4G 5G 6G 9G10
  20943259.266    -6511773.52249  -5066607.89748  20943259.243    20943263.267
       247.000         213.000
  21385062.005     3743241.76849   2910849.93847  21385061.800    21385066.540
       244.000         207.000
  23752985.777    -6829216.62349  -5309889.25345  23752985.091    23752991.058
       216.000         155.000
  24395842.556     8089700.13249   6279557.75345  24395843.069    24395848.754
       217.000         151.000
  20343378.550    -1349238.99749  -1044696.70648  20343377.803    20343382.454
       250.000         219.000
  23280876.169    -6760224.87849  -5252703.66846  23280876.215    23280880.327
       226.000         172.000
  24646860.460     7477984.56549   5808590.71745  24646859.954    24646864.424
       213.000         149.000
  21452369.772    -7776363.92249  -6041860.91847  21452368.924    21452373.954
       240.000         199.000
 02  7 11 12 39  0.0000000  0  8G30G24G23G 4G 5G 6G 9G10
  20933974.641    -6560564.52049  -5104626.85748  20933974.821    20933978.196
       248.000         213.000
  21396923.405     3805573.64849   2959420.20047  21396923.028    21396928.133
       244.000         207.000
  23733659.596    -6930776.20349  -5389026.58245  23733659.150    23733664.961
       218.000         157.000
  24414774.321     8189187.20749   6357080.03645  24414774.573    24414780.119
       218.000         151.000
  20346200.901    -1334407.56649  -1033139.76948  20346200.019    20346204.536
       249.000         218.000
  23267687.838    -6829529.44549  -5306707.20046  23267686.846    23267692.252
       226.000         172.000
  24664222.654     7569224.86549   5879686.99445  24664222.344    24664228.358
       211.000         146.000
  21440228.472    -7840167.20949  -6091577.76847  21440227.240    21440232.634
       240.000         199.000
 02  7 11 12 39 30.0000000  0  8G30G24G23G 4G 5G 6G 9G10
  20924781.941    -6608872.89849  -5142269.76048  20924782.015    20924785.885
       248.000         213.000
  21408830.773     3868147.23749   3008178.79647  21408830.665    21408835.520
       244.000         207.000
  23714346.883    -7032265.36849  -5468109.03245  23714346.639    23714352.745
       220.000         161.000
  24433702.976     8288656.07149   6434588.12645  24433703.529    24433707.484
       219.000         154.000
  20349126.649    -1319032.63849  -1021159.32548  20349125.933    20349130.243
       250.000         218.000
  23254504.232    -6898808.85749  -5360691.14946  23254503.922    23254507.351
       227.000         171.000
  24681571.400     7660392.11449   5950726.36345  24681569.595    24681577.100
       204.000         145.000
  21428179.195    -7903486.19949  -6140917.24747  21428178.401    21428183.610
       241.000         200.000
 02  7 11 12 40  0.0000000  0  8G30G24G23G 4G 5G 6G 9G10
  20915681.432    -6656696.39249  -5179534.82848  20915681.725    20915684.921
       248.000         214.000
  21420783.796     3930960.41949   3057124.10747  21420783.270    21420788.154
       244.000         207.000
  23695048.213    -7133680.87249  -5547134.08845  23695047.860    23695054.041
       220.000         162.000
  24452627.800     8388105.42949   6512081.00245  24452627.898    24452633.146
       216.000         154.000
  20352155.871    -1303114.12349  -1008755.29648  20352155.156    20352159.656
       249.000         218.000
  23241325.725    -6968062.47049  -5414654.98546  23241324.056    23241329.479
       225.000         171.000
  24698905.810     7751483.99549   6021707.00045  24698906.143    24698911.120
       212.000         144.000
  21416222.761    -7966317.91649  -6189877.02747  21416222.018    21416227.306
       240.000         200.000
 02  7 11 12 40 30.0000000  0  8G30G24G23G 4G 5G 6G 9G10
  20906673.646    -6704032.95349  -5216420.46448  20906673.531    20906677.237
       248.000         214.000
  21432782.086     3994011.55149   3106254.82047  21432781.924    21432786.723
       245.000         206.000
  23675763.970    -7235019.82749  -5626099.50845  23675764.819    23675768.995
       218.000         161.000
  24471548.431     8487533.68549   6589557.41645  24471548.759    24471554.460
       216.000         154.000
  20355288.524    -1286652.04749   -995927.73348  20355287.778    20355292.195
       249.000         218.000
  23228152.047    -7037289.82249  -5468598.35246  23228151.026    23228156.929
       224.000         170.000
  24716225.372     7842498.04749   6092627.03045  24716226.143    24716230.061
       215.000         142.000
  21404359.468    -8028659.80449  -6238455.12747  21404358.091    21404363.624
       240.000         200.000
 02  7 11 12 41  0.0000000  0  8G30G24G23G 4G 5G 6G 9G10
  20897758.864    -6750880.25549  -5252924.86948  20897759.112    20897762.777
       248.000         214.000
  21444825.327     4057298.69649   3155569.44047  21444824.677    21444830.141
       244.000         207.000
  23656494.963    -7336279.25349  -5705002.95145  23656494.640    23656499.809
       216.000         159.000
  24490464.757     8586939.68449   6667016.51645  24490464.644    24490471.183
       214.000         153.000
  20358524.653    -1269646.17049   -982676.42048  20358523.887    20358528.367
       249.000         218.000
  23214983.604    -7106490.29949  -5522520.77646  23214983.002    23214988.474
       224.000         170.000
  24733529.479     7933431.70249   6163484.41145  24733528.784    24733533.894
       212.000         142.000
  21392589.957    -8090509.19449  -6286649.46147  21392589.169    21392593.778
       241.000         200.000
 02  7 11 12 41 30.0000000  0  8G30G24G23G 4G 5G 6G 9G10
  20888937.634    -6797236.40549  -5289046.55548  20888937.569    20888941.253
       248.000         214.000
  21456912.957     4120819.55849   3205066.18047  21456912.519    21456917.673
       244.000         207.000
  23637241.684    -7437456.49049  -5783842.35445  23637240.799    23637247.494
       217.000         158.000
  24509376.540     8686321.68649   6744456.86445  24509377.051    24509383.479
       210.000         150.000
  20361864.234    -1252096.49249   -969001.36648  20361863.515    20361868.041
       249.000         218.000
  23201820.154    -7175663.62849  -5576422.07046  23201819.265    23201824.677
       226.000         170.000
  24750817.591     8024282.37149   6234277.11145  24750818.955    24750823.221
       213.000         142.000
  21380914.595    -8151863.51149  -6334458.02747  21380913.572    21380919.004
       241.000         200.000
 02  7 11 12 42  0.0000000  0  8G30G24G23G 4G 5G 6G 9G10
  20880210.078    -6843099.78449  -5324784.26148  20880210.011    20880214.185
       247.000         214.000
  21469044.580     4184571.75849   3254743.18047  21469044.310    21469049.534
       243.000         206.000
  23618004.373    -7538548.93849  -5862615.68945  23618003.896    23618009.561
       216.000         159.000
  24528283.161     8785677.85049   6821877.05945  24528282.383    24528289.832
       211.000         148.000
  20365307.265    -1234003.53649   -954902.97948  20365306.482    20365310.809
       249.000         218.000
  23188662.240    -7244809.81649  -5630302.20046  23188662.003    23188667.395
       226.000         170.000
  24768089.595     8115047.13749   6305002.88845  24768089.159    24768095.580
       213.000         141.000
  21369333.866    -8212720.43249  -6381878.99847  21369333.009    21369338.468
       241.000         200.000
 02  7 11 12 42 30.0000000  0  8G30G24G23G 4G 5G 6G 9G10
  20871576.680    -6888468.54249  -5360136.55148  20871576.678    20871580.529
       249.000         215.000
  21481219.829     4248553.15549   3304598.78447  21481219.121    21481224.622
       243.000         206.000
  23598783.700    -7639553.77449  -5941320.73545  23598783.062    23598788.812
       216.000         158.000
  24547184.950     8885006.60249   6899275.99845  24547186.187    24547191.277
       215.000         147.000
  20368853.575    -1215367.48249   -940381.39848  20368853.026    20368857.367
       250.000         218.000
  23175509.578    -7313928.40449  -5684160.82846  23175508.999    23175514.061
       225.000         171.000
  24785344.791     8205723.36449   6375659.66945  24785344.253    24785350.084
       213.000         143.000
  21357848.335    -8273077.42849  -6428910.43947  21357847.360    21357852.806
       241.000         201.000
 02  7 11 12 43  0.0000000  0  8G30G24G23G 4G 5G 6G 9G10
  20863037.789    -6933340.67649  -5395101.86148  20863038.139    20863041.712
       249.000         215.000
  21493438.298     4312761.72449   3354631.39947  21493437.913    21493443.434
       243.000         206.000
  23579580.365    -7740468.04349  -6019955.25345  23579579.887    23579585.066
       217.000         157.000
  24566081.234     8984306.31749   6976652.22945  24566083.005    24566088.127
       212.000         146.000
  20372503.251    -1196188.30649   -925436.60548  20372502.550    20372506.941
       249.000         218.000
  23162361.918    -7383019.25349  -5737997.83446  23162362.050    23162366.574
       226.000         171.000
  24802582.642     8296308.54149   6446245.49645  24802581.390    24802588.442
       214.000         144.000
  21346458.355    -8332931.99749  -6475550.36847  21346457.405    21346462.925
       241.000         201.000
 02  7 11 12 43 30.0000000  0  8G30G24G23G 4G 5G 6G 9G10
  20854593.914    -6977713.66749  -5429678.22548  20854594.095    20854597.564
       249.000         215.000
  21505699.662     4377195.82549   3404839.75447  21505698.825    21505704.325
       242.000         205.000
  23560394.780    -7841288.36049  -6098516.55245  23560393.649    23560400.392
       215.000         156.000
  24584971.934     9083576.08249   7054005.18145  24584972.418    24584978.817
       210.000         143.000
  20376256.388    -1176465.59949   -910068.27948  20376255.802    20376260.127
       249.000         218.000
  23149219.847    -7452081.31349  -5791812.41646  23149219.599    23149223.900
       224.000         171.000
  24819802.633     8386800.59549   6516758.75845  24819802.129    24819807.530
       215.000         145.000
  21335164.681    -8392281.03149  -6521796.37347  21335163.714    21335169.118
       241.000         201.000
 02  7 11 12 44  0.0000000  0  8G30G24G23G 4G 5G 6G 9G10
  20846245.413    -7021586.02149  -5463864.48348  20846245.385    20846249.058
       249.000         215.000
  21518003.527     4441853.17249   3455222.07447  21518003.296    21518008.579
       243.000         205.000
  23541227.576    -7942012.24949  -6177002.69845  23541226.388    23541233.453
       217.000         155.000
  24603856.524     9182814.37549   7131333.58745  24603856.674    24603862.469
       214.000         146.000
  20380112.861    -1156200.19849   -894277.07548  20380112.092    20380116.621
       249.000         218.000
  23136083.233    -7521114.65949  -5845604.61446  23136083.772    23136086.715
       225.000         171.000
  24837004.415     8477196.73949   6587197.32045  24837004.370    24837010.920
       221.000         148.000
  21323967.450    -8451122.71649  -6567647.03947  21323966.615    21323972.034
       242.000         202.000
 02  7 11 12 44 30.0000000  0  8G30G24G23G 4G 5G 6G 9G10
  20837992.342    -7064956.19649  -5497659.44048  20837992.398    20837995.823
       249.000         215.000
  21530349.358     4506730.96149   3505776.14347  21530349.079    21530354.129
       243.000         205.000
  23522079.313    -8042637.33349  -6255411.86745  23522078.734    23522084.608
       216.000         156.000
  24622734.844     9282018.81249   7208635.59445  24622735.835    24622740.170
       212.000         144.000
  20384072.420    -1135392.53749   -878063.34948  20384071.601    20384076.361
       249.000         218.000
  23122952.013    -7590119.20949  -5899374.38246  23122951.933    23122955.991
       226.000         172.000
  24854187.533     8567493.77349   6657558.60745  24854188.293    24854192.992
       221.000         150.000
  21312867.207    -8509454.81249  -6613100.62847  21312866.679    21312871.928
       243.000         203.000
 02  7 11 12 45  0.0000000  0  8G30G24G23G 4G 5G 6G 9G10
  20829835.276    -7107822.07049  -5531061.42348  20829835.435    20829839.031
       249.000         215.000
  21542736.873     4571827.29949   3556500.53547  21542736.654    21542741.818
       242.000         204.000
  23502950.285    -8143160.42149  -6333741.56445  23502949.936    23502955.998
       219.000         156.000
  24641606.500     9381188.33249   7285910.40945  24641606.601    24641613.045
       211.000         142.000
  20388135.200    -1114042.53349   -861426.99948  20388134.478    20388138.894
       249.000         218.000
  23109826.541    -7659094.33649  -5953121.21146  23109826.510    23109830.930
       225.000         172.000
  24871351.381     8657689.50949   6727840.94845  24871351.292    24871356.484
       215.000         152.000
  21301864.544    -8567274.56549  -6658154.98247  21301863.337    21301869.002
       242.000         203.000
 02  7 11 12 45 30.0000000  0  8G30G24G23G 4G 5G 6G 9G10
  20821774.547    -7150181.42349  -5564068.72548  20821774.376    20821778.097
       249.000         216.000
  21555165.619     4637140.60249   3607393.97047  21555165.599    21555170.393
       242.000         204.000
  23483841.433    -8243578.26749  -6411989.26445  23483840.835    23483846.386
       220.000         157.000
  24660470.942     9480321.92949   7363157.20645  24660471.821    24660477.881
       214.000         144.000
  20392301.182    -1092149.93149   -844367.85448  20392300.454    20392304.890
       249.000         218.000
  23096706.802    -7728039.16449  -6006844.43646  23096706.123    23096711.370
       226.000         173.000
  24888495.162     8747781.88649   6798042.73845  24888493.784    24888500.741
       215.000         152.000
  21290959.836    -8624579.14849  -6702807.91447  21290959.046    21290964.224
       242.000         203.000
 02  7 11 12 46  0.0000000  0  8G30G24G23G 4G 5G 6G 9G10
  20813810.541    -7192032.73849  -5596680.14948  20813810.599    20813814.168
       249.000         216.000
  21567635.343     4702668.92949   3658454.96347  21567634.837    21567640.575
       242.000         204.000
  23464753.116    -8343888.50049  -6490153.09945  23464752.150    23464758.251
       223.000         161.000
  24679328.418     9579417.76149   7440374.61445  24679328.946    24679334.094
       216.000         144.000
  20396570.357    -1069715.49849   -826886.49848  20396569.559    20396573.993
       249.000         217.000
  23083592.690    -7796953.82549  -6060544.15446  23083591.732    23083597.585
       225.000         173.000
  24905618.840     8837767.81849   6868161.62945  24905618.859    24905625.903
       209.000         152.000
  21280153.567    -8681366.71849  -6747057.97347  21280152.577    21280157.981
       242.000         203.000
 02  7 11 12 46 30.0000000  0  8G30G24G23G 4G 5G 6G 9G10
  20805943.531    -7233373.85149  -5628894.01848  20805943.685    20805947.199
       249.000         215.000
  21580145.462     4768409.87749   3709681.63047  21580145.476    21580150.683
       243.000         204.000
  23445685.900    -8444088.00949  -6568230.64445  23445685.260    23445690.770
       224.000         161.000
  24698178.342     9678474.51449   7517561.59845  24698178.397    24698184.383
       214.000         142.000
  20400942.586    -1046739.38849   -808983.05248  20400942.002    20400946.469
       250.000         218.000
  23070484.376    -7865837.51649  -6114219.74746  23070484.056    23070488.702
       227.000         174.000
  24922722.186     8927645.23149   6938195.92845  24922721.749    24922728.291
       212.000         152.000
  21269446.169    -8737634.38549  -6790902.91247  21269445.100    21269450.503
       242.000         203.000
 02  7 11 12 47  0.0000000  0  8G30G24G23G 4G 5G 6G 9G10
  20798174.002    -7274203.04749  -5660708.98948  20798173.874    20798178.223
       249.000         216.000
  21592695.731     4834361.42249   3761072.40547  21592695.148    21592700.875
       241.000         204.000
  23426640.290    -8544173.91849  -6646219.68546  23426638.875    23426646.190
       223.000         163.000
  24717020.414     9777490.77149   7594716.97145  24717019.603    24717026.396
       210.000         143.000
  20405417.813    -1023222.13849   -790657.94348  20405417.214    20405421.640
       249.000         218.000
  23057382.407    -7934690.00449  -6167871.02146  23057382.137    23057386.972
       226.000         175.000
  24939804.091     9017411.45549   7008143.57945  24939802.604    24939810.302
       211.000         151.000
  21258838.133    -8793380.02349  -6834341.08047  21258837.003    21258842.153
       242.000         203.000
 02  7 11 12 47 30.0000000  0  8G30G24G23G 4G 5G 6G 9G10
  20790502.187    -7314518.79849  -5692123.87148  20790502.215    20790505.774
       249.000         216.000
  21605285.556     4900521.43949   3812625.62447  21605285.142    21605290.950
       241.000         204.000
  23407616.524    -8644143.61449  -6724118.13945  23407615.575    23407621.597
       220.000         162.000
  24735854.600     9876464.95849   7671839.61345  24735854.155    24735860.014
       208.000         141.000
  20409996.007     -999163.98349   -771911.36148  20409995.164    20409999.875
       249.000         218.000
  23044286.143    -8003510.84249  -6221497.65046  23044285.823    23044290.215
       227.000         175.000
  24956864.469     9107063.68649   7078002.42045  24956863.793    24956869.027
       215.000         150.000
  21248329.869    -8848601.30749  -6877370.65747  21248329.098    21248334.196
       242.000         203.000
 02  7 11 12 48  0.0000000  0  7G30G24G23G 5G 6G 9G10
  20782928.333    -7354319.63349  -5723137.52648  20782928.438    20782932.334
       249.000         216.000
  21617914.620     4966887.38849   3864339.30547  21617914.259    21617919.503
       241.000         203.000
  23388615.490    -8743994.57249  -6801924.07345  23388614.939    23388620.418
       220.000         162.000
  20414676.914     -974565.64349   -752743.84748  20414676.124    20414680.649
       249.000         218.000
  23031196.020    -8072300.00149  -6275099.58746  23031194.906    23031200.086
       227.000         176.000
  24973902.774     9196599.10049   7147770.24645  24973902.377    24973908.368
       207.000         150.000
  21237921.771    -8903296.61049  -6919990.38147  21237920.843    21237925.904
       242.000         204.000
 02  7 11 12 48 30.0000000  0  7G30G24G23G 5G 6G 9G10
  20775452.981    -7393603.02149  -5753747.97348  20775453.113    20775456.874
       249.000         217.000
  21630582.549     5033458.00149   3916212.47547  21630582.050    21630587.981
       241.000         203.000
  23369637.917    -8843723.22849  -6879634.68345  23369636.397    23369643.343
       216.000         161.000
  20419460.686     -949426.68849   -733155.07248  20419459.882    20419464.624
       249.000         218.000
  23018112.020    -8141056.36349  -6328675.97746  23018112.113    23018116.609
       227.000         176.000
  24990918.215     9286016.33548   7217445.95645  24990917.638    24990924.143
       194.000         146.000
  21227614.294    -8957462.59449  -6962197.64847  21227613.409    21227618.774
       242.000         204.000
 02  7 11 12 49  0.0000000  0  7G30G24G23G 5G 6G 9G10
  20768076.455    -7432367.11549  -5783953.77748  20768076.420    20768079.993
       249.000         216.000
  21643289.048     5100231.24549   3968243.52947  21643288.753    21643294.041
       241.000         203.000
  23350683.879    -8943326.62249  -6957247.69345  23350683.428    23350689.241
       219.000         160.000
  20424347.262     -923747.59849   -713145.42148  20424346.439    20424350.988
       249.000         218.000
  23005034.620    -8209779.35249  -6382226.33746  23005033.787    23005038.934
       227.000         177.000
  25007910.451     9375312.61749   7287027.36745  25007910.294    25007914.839
       206.000         140.000
  21217408.014    -9011096.91949  -7003990.63847  21217407.125    21217412.478
       242.000         204.000
 02  7 11 12 49 30.0000000  0  7G30G24G23G 5G 6G 9G10
  20760799.012    -7470610.34149  -5813753.70248  20760799.318    20760802.893
       250.000         217.000
  21656033.885     5167205.24949   4020431.02747  21656033.050    21656039.067
       241.000         203.000
  23331754.405    -9042802.02249  -7034761.00045  23331754.802    23331759.370
       219.000         162.000
  20429336.579     -897528.80649   -692715.21348  20429335.945    20429340.425
       250.000         218.000
  22991963.501    -8278468.59049  -6435750.40746  22991963.435    22991967.164
       229.000         177.000
  25024879.645     9464485.24849   7356512.50045  25024879.476    25024884.912
       201.000         140.000
  21207303.352    -9064197.48249  -7045367.71047  21207302.380    21207307.549
       242.000         204.000
 02  7 11 12 50  0.0000000  0  8G30G24G23G 5G 6G17G 9G10
  20753620.866    -7508331.72449  -5843147.00748  20753620.817    20753624.579
       249.000         216.000
  21668816.207     5234376.96049   4072772.56747  21668816.171    21668820.970
       242.000         202.000
  23312849.507    -9142147.40249  -7112172.95746  23312848.661    23312855.047
       220.000         164.000
  20434428.372     -870771.62249   -671865.48448  20434427.710    20434432.026
       249.000         218.000
  22978898.649    -8347124.50849  -6489248.54346  22978897.940    22978902.296
       227.000         177.000
  24960603.465    -4998233.10849  -3873583.33145  24960601.905    24960609.480
       205.000         136.000
  25041824.617     9553531.27449   7425898.94845  25041823.896    25041829.336
       210.000         141.000
  21197300.429    -9116762.98549  -7086327.85247  21197299.565    21197304.985
       242.000         204.000
 02  7 11 12 50 30.0000000  0  8G30G24G23G 5G 6G17G 9G10
  20746541.803    -7545532.80649  -5872134.87348  20746541.608    20746545.728
       249.000         217.000
  21681635.306     5301741.19449   4125264.14847  21681634.547    21681640.315
       241.000         202.000
  23293969.439    -9241363.05249  -7189483.84446  23293968.811    23293974.856
       222.000         166.000
  20439621.873     -843479.67749   -650599.05548  20439621.135    20439625.722
       250.000         218.000
  22965839.708    -8415749.95849  -6542722.92346  22965840.000    22965843.885
       228.000         177.000
  24943637.063    -5087391.84049  -3943057.64545  24943636.320    24943642.345
       204.000         136.000
  25058744.501     9642444.83549   7495182.17645  25058743.523    25058750.415
       209.000         142.000
  21187399.171    -9168794.54249  -7126871.93147  21187398.080    21187403.564
       243.000         204.000
 02  7 11 12 51  0.0000000  0  7G30G24G23G 5G 6G17G10
  20739563.276    -7582204.95949  -5900710.59348  20739563.249    20739566.907
       249.000         216.000
  21694491.812     5369302.87049   4177909.55247  21694491.716    21694496.797
       242.000         202.000
  23275115.943    -9340439.22749  -7266686.04446  23275115.613    23275121.567
       224.000         167.000
  20444918.365     -815646.36149   -628910.79548  20444917.448    20444922.305
       249.000         218.000
  22952788.017    -8484337.35349  -6596167.65146  22952787.786    22952791.340
       228.000         177.000
  24926695.879    -5176416.49649  -4012427.46345  24926695.168    24926700.449
       199.000         134.000
  21177601.317    -9220282.74249  -7166992.61747  21177600.202    21177605.879
       242.000         204.000
 02  7 11 12 51 30.0000000  0  7G30G24G23G 5G 6G17G10
  20732686.120    -7618344.60049  -5928871.37248  20732686.070    20732690.216
       248.000         217.000
  21707386.023     5437061.68949   4230708.59547  21707385.520    21707390.353
       241.000         202.000
  23256289.938    -9439371.23449  -7343775.92046  23256289.696    23256295.245
       225.000         168.000
  20450318.165     -787270.53549   -606799.79348  20450317.490    20450321.941
       250.000         218.000
  22939743.881    -8552884.39449  -6649580.94846  22939742.677    22939748.185
       226.000         177.000
  24909780.974    -5265304.39949  -4081690.71745  24909780.248    24909786.776
       202.000         136.000
  21167907.621    -9271223.52149  -7206686.73447  21167906.623    21167911.996
       242.000         204.000
 02  7 11 12 52  0.0000000  0  7G30G24G23G 5G 6G17G10
  20725909.331    -7653956.78749  -5956621.14448  20725909.561    20725913.176
       249.000         217.000
  21720315.906     5505008.85149   4283654.38847  21720315.688    21720320.803
       243.000         201.000
  23237490.624    -9538162.77749  -7420756.34046  23237490.130    23237495.617
       224.000         167.000
  20455819.808     -758359.47249   -584271.72548  20455819.041    20455823.530
       249.000         218.000
  22926706.170    -8621397.17449  -6702967.53346  22926706.082    22926711.050
       227.000         177.000
  24892891.188    -5354061.29349  -4150851.89545  24892889.911    24892897.476
       203.000         138.000
  21158317.198    -9321621.59049  -7245957.96347  21158316.292    21158321.634
       243.000         204.000
 02  7 11 12 52 30.0000000  0  7G30G24G23G 5G 6G17G10
  20719233.533    -7689038.56649  -5983957.60648  20719233.183    20719237.400
       248.000         217.000
  21733281.649     5573143.78549   4336746.50247  21733281.083    21733286.413
       241.000         201.000
  23218718.728    -9636809.89849  -7497624.23046  23218718.206    23218723.951
       224.000         165.000
  20461423.370     -728912.61249   -561326.14848  20461422.522    20461427.310
       249.000         217.000
  22913675.598    -8689874.04349  -6756326.13846  22913674.943    22913679.761
       228.000         178.000
  24876026.542    -5442685.02349  -4219909.28645  24876026.495    24876032.514
       205.000         141.000
  21148830.691    -9371473.46649  -7284803.59147  21148829.750    21148834.995
       243.000         205.000
 02  7 11 12 53  0.0000000  0  7G30G24G23G 5G 6G17G10
  20712658.771    -7723589.09649  -6010880.11748  20712659.154    20712662.661
       250.000         217.000
  21746282.563     5641463.87649   4389982.89947  21746282.122    21746287.843
       241.000         201.000
  23199974.710    -9735310.35049  -7574377.82046  23199973.533    23199979.915
       223.000         165.000
  20467128.645     -698931.15949   -537964.01048  20467127.902    20467132.529
       249.000         218.000
  22900651.818    -8758315.03949  -6809656.79446  22900651.179    22900656.090
       226.000         177.000
  24859187.588    -5531175.26049  -4288862.68645  24859186.583    24859193.084
       202.000         142.000
  21139448.424    -9420777.69549  -7323222.48747  21139447.535    21139452.792
       243.000         205.000
 02  7 11 12 53 30.0000000  0  7G30G24G23G 5G 6G17G10
  20706185.679    -7757606.00249  -6037386.81548  20706185.526    20706189.410
       249.000         217.000
  21759318.412     5709967.88749   4443362.59247  21759317.968    21759323.594
       242.000         201.000
  23181259.207    -9833660.44349  -7651014.28046  23181258.539    23181263.946
       225.000         164.000
  20472935.694     -668414.92249   -514185.15948  20472935.002    20472939.518
       248.000         217.000
  22887634.975    -8826718.94049  -6862958.54646  22887635.180    22887638.817
       228.000         178.000
  24842374.099    -5619530.33949  -4357710.75645  24842373.503    24842380.414
       213.000         145.000
  21130170.955    -9469531.25749  -7361212.28447  21130170.128    21130175.380
       244.000         206.000
 02  7 11 12 54  0.0000000  0  7G30G24G23G 5G 6G17G10
  20699814.357    -7791087.21149  -6063476.08148  20699814.547    20699818.343
       249.000         217.000
  21772388.962     5778653.77849   4496884.02947  21772388.469    21772393.522
       241.000         200.000
  23162573.021    -9931857.01549  -7727531.10746  23162572.085    23162577.754
       221.000         163.000
  20478844.589     -637364.03249   -489989.69348  20478843.851    20478848.492
       248.000         218.000
  22874625.428    -8895084.81449  -6916230.64946  22874625.446    22874630.438
       226.000         178.000
  24825586.953    -5707748.96249  -4426452.53845  24825586.864    24825592.764
       213.000         149.000
  21120998.694    -9517731.85649  -7398771.19647  21120997.618    21121002.978
       244.000         206.000
 02  7 11 12 54 30.0000000  0  7G30G24G23G 5G 6G17G10
  20693545.402    -7824031.16049  -6089146.70648  20693545.377    20693549.178
       250.000         217.000
  21785493.689     5847519.89549   4550545.89647  21785493.237    21785499.351
       241.000         200.000
  23143916.505   -10029897.21949  -7803926.07446  23143915.011    23143921.375
       220.000         163.000
  20484855.003     -605779.08349   -465378.07448  20484854.241    20484858.738
       247.000         217.000
  22861623.117    -8963412.12249  -6969472.71746  22861623.238    22861627.318
       227.000         177.000
  24808825.704    -5795830.33349  -4495087.36845  24808824.238    24808830.428
       213.000         148.000
  21111932.066    -9565377.46849  -7435897.64847  21111931.174    21111936.421
       243.000         206.000
 02  7 11 12 55  0.0000000  0  7G30G24G23G 5G 6G17G10
  20687378.921    -7856436.43049  -6114397.58248  20687378.856    20687382.863
       249.000         217.000
  21798632.402     5916564.08549   4604346.51147  21798631.971    21798637.639
       241.000         201.000
  23125290.404   -10127778.16649  -7880196.93046  23125290.345    23125295.099
       222.000         165.000
  20490966.938     -573660.67949   -440350.76948  20490966.229    20490970.887
       248.000         217.000
  22848628.196    -9031700.42249  -7022684.37746  22848627.684    22848632.881
       228.000         177.000
  24792090.662    -5883773.30049  -4563614.36345  24792090.213    24792094.911
       214.000         148.000
  21102971.402    -9612466.08149  -7472590.07947  21102970.647    21102975.671
       244.000         206.000
 02  7 11 12 55 30.0000000  0  7G30G24G23G 5G 6G17G10
  20681315.117    -7888301.85549  -6139227.80548  20681315.343    20681318.648
       250.000         218.000
  21811804.596     5985784.17949   4658284.20747  21811804.552    21811809.859
       241.000         200.000
  23106695.117   -10225497.74949  -7956342.04746  23106693.559    23106699.275
       220.000         165.000
  20497180.100     -541010.07149   -414908.77448  20497179.398    20497184.041
       247.000         217.000
  22835640.846    -9099949.69649  -7075865.63846  22835641.035    22835645.173
       228.000         178.000
  24775381.913    -5971577.80349  -4632033.43045  24775381.700    24775388.055
       217.000         147.000
  21094117.031    -9658996.14649  -7508847.28147  21094116.097    21094121.482
       243.000         206.000
 02  7 11 12 56  0.0000000  0  7G30G24G23G 5G 6G17G10
  20675354.463    -7919625.51249  -6163635.86148  20675354.360    20675358.453
       249.000         218.000
  21825009.951     6055178.44149   4712357.60547  21825009.570    21825015.506
       240.000         200.000
  23088131.016   -10323052.34749  -8032358.61746  23088129.690    23088136.489
       222.000         165.000
  20503494.550     -507827.39549   -389052.17848  20503493.986    20503498.826
       247.000         217.000
  22822661.029    -9168158.90049  -7129015.68046  22822660.861    22822665.902
       228.000         178.000
  24758700.011    -6059242.13649  -4700343.30445  24758698.430    24758704.215
       214.000         146.000
  21085369.421    -9704965.14649  -7544667.28347  21085368.333    21085373.849
       243.000         206.000
 02  7 11 12 56 30.0000000  0  7G30G24G23G 5G 6G17G10
  20669497.199    -7950405.33449  -6187620.16148  20669497.375    20669501.013
       250.000         218.000
  21838248.170     6124745.74049   4766565.85047  21838248.195    21838253.034
       241.000         199.000
  23069599.086   -10420438.56449  -8108243.98746  23069598.349    23069603.951
       222.000         168.000
  20509910.326     -474112.75849   -362781.06848  20509909.515    20509914.104
       247.000         217.000
  22809689.151    -9236326.74849  -7182133.49946  22809688.871    22809693.236
       230.000         179.000
  24742045.000    -6146764.95349  -4768542.93145  24742044.779    24742049.865
       212.000         145.000
  21076729.093    -9750370.45849  -7580048.05347  21076728.105    21076733.374
       243.000         206.000
 02  7 11 12 57  0.0000000  0  7G30G24G23G 5G 6G17G10
  20663743.689    -7980640.68549  -6211180.18948  20663743.608    20663747.388
       249.000         218.000
  21851518.837     6194483.00549   4820906.52847  21851518.598    21851524.681
       241.000         200.000
  23051099.375   -10517654.53749  -8183996.69046  23051098.876    23051104.702
       224.000         170.000
  20516426.911     -439867.79849   -336096.71748  20516426.134    20516430.739
       247.000         217.000
  22796725.166    -9304453.58849  -7235219.34646  22796724.976    22796729.574
       230.000         179.000
  24725416.686    -6234146.34649  -4836632.29845  24725415.441    24725423.037
       211.000         143.000
  21068196.188    -9795211.02649  -7614988.76547  21068195.172    21068200.496
       244.000         206.000
 02  7 11 12 57 30.0000000  0  7G30G24G23G 5G 6G17G10
  20658093.939    -8010329.92249  -6234314.68248  20658094.139    20658097.992
       250.000         218.000
  21864821.535     6264388.55249   4875378.33947  21864821.139    21864826.947
       240.000         200.000
  23032632.949   -10614697.03049  -8259614.23446  23032631.691    23032638.738
       225.000         172.000
  20523044.348     -405093.24149   -308999.68948  20523043.692    20523048.284
       248.000         217.000
  22783769.157    -9372538.50649  -7288272.55446  22783768.545    22783773.465
       230.000         179.000
  24708815.738    -6321385.11449  -4904610.58045  24708814.674    24708822.012
       209.000         140.000
  21059771.157    -9839485.07449  -7649488.02847  21059770.015    21059775.548
       244.000         207.000
 02  7 11 12 58  0.0000000  0  7G30G24G23G 5G 6G17G10
  20652548.546    -8039471.67449  -6257022.55748  20652548.578    20652552.307
       250.000         218.000
  21878155.786     6334460.63549   4929979.92147  21878155.788    21878160.942
       242.000         199.000
  23014199.875   -10711563.19949  -8335094.37446  23014198.982    23014205.070
       225.000         173.000
  20529762.347     -369789.91349   -281490.62648  20529761.862    20529766.216
       248.000         217.000
  22770820.972    -9440581.03649  -7341292.71046  22770820.389    22770824.645
       229.000         179.000
  24692242.049    -6408480.63449  -4972477.23345  24692240.408    24692248.683
       212.000         136.000
  21051454.258    -9883190.47949  -7683544.19247  21051453.412    21051458.506
       244.000         207.000
 02  7 11 12 58 30.0000000  0  7G30G24G23G 5G 6G17G10
  20647107.646    -8068064.05849  -6279302.35548  20647107.735    20647111.498
       250.000         218.000
  21891521.591     6404697.33849   4984709.77347  21891521.105    21891527.273
       240.000         199.000
  22995800.945   -10808249.97449  -8410434.72746  22995800.029    22995806.026
       224.000         172.000
  20536580.941     -333958.10249   -253569.77148  20536580.251    20536584.958
       247.000         217.000
  22757881.094    -9508580.14749  -7394279.04146  22757881.077    22757884.758
       231.000         180.000
  24675695.855    -6495431.35649  -5040231.06245  24675695.551    24675700.390
       207.000         137.000
  21043245.968    -9926325.28449  -7717155.73747  21043244.945    21043250.343
       244.000         207.000
 02  7 11 12 59  0.0000000  0  7G30G24G23G 5G 6G17G10
  20641771.415    -8096106.20549  -6301153.39848  20641771.309    20641775.173
       249.000         218.000
  21904918.086     6475096.34949   5039566.09147  21904917.991    21904923.159
       241.000         199.000
  22977436.709   -10904754.98949  -8485633.44946  22977435.972    22977442.085
       225.000         173.000
  20543499.817     -297599.19049   -225238.18648  20543499.072    20543503.840
       247.000         216.000
  22744949.628    -9576535.85449  -7447231.54546  22744949.349    22744953.464
       231.000         180.000
  24659177.336    -6582237.02649  -5107871.86445  24659175.608    24659182.751
       208.000         137.000
  21035146.555    -9968887.99349  -7750321.49547  21035145.722    21035150.811
       244.000         208.000
 02  7 11 12 59 30.0000000  0  7G30G24G23G 5G 6G17G10
  20636540.120    -8123596.95049  -6322574.77248  20636540.230    20636544.075
       250.000         218.000
  21918345.188     6545655.60549   5094547.28747  21918344.676    21918350.515
       240.000         199.000
  22959107.645   -11001075.63749  -8560688.51846  22959107.171    22959112.136
       225.000         172.000
  20550518.776     -260714.30749   -196496.75248  20550518.172    20550522.857
       247.000         216.000
  22732026.587    -9644447.76349  -7500149.93046  22732026.076    22732030.386
       230.000         180.000
  24642686.279    -6668897.19949  -5175399.28145  24642685.584    24642690.328
       205.000         137.000
  21027156.390   -10010876.81049  -7783040.06147  21027155.293    21027160.767
       244.000         208.000
 02  7 11 13  0  0.0000000  0  7G30G24G23G 5G 6G17G10
  20631414.075    -8150534.35149  -6343564.97848  20631414.079    20631417.888
       250.000         218.000
  21931802.377     6616373.78449   5149652.30847  21931802.269    21931807.800
       241.000         199.000
  22940814.176   -11097208.34749  -8635597.13446  22940813.715    22940819.934
       225.000         171.000
  20557637.855     -223303.50249   -167345.49748  20557637.164    20557641.824
       247.000         217.000
  22719111.979    -9712314.62549  -7553033.21146  22719111.706    22719115.468
       230.000         180.000
  24626223.271    -6755410.30949  -5242812.11545  24626222.091    24626229.545
       209.000         137.000
  21019275.838   -10052289.43749  -7815309.64547  21019274.919    21019280.238
       244.000         207.000
 02  7 11 13  0 30.0000000  0  7G30G24G23G 5G 6G17G10
  20626393.650    -8176916.98149  -6364122.88648  20626393.845    20626397.316
       250.000         219.000
  21945289.574     6687248.95449   5204879.67047  21945288.913    21945294.821
       239.000         198.000
  22922557.042   -11193150.27149  -8710357.08046  22922556.504    22922562.482
       225.000         171.000
  20564856.811     -185367.75349   -137785.20748  20564856.106    20564861.053
       246.000         216.000
  22706206.184    -9780135.55049  -7605880.68346  22706205.611    22706210.648
       230.000         181.000
  24609788.761    -6841775.27549  -5310109.49745  24609787.619    24609794.242
       205.000         137.000
  21011505.270   -10093124.10849  -7847128.87947  21011504.508    21011509.522
       245.000         208.000
 02  7 11 13  1  0.0000000  0  7G30G24G23G 5G 6G17G10
  20621479.869    -8202739.15949  -6384244.08448  20621479.827    20621484.013
       250.000         219.000
  21958806.993     6758283.65249   5260231.32747  21958806.674    21958812.611
       240.000         198.000
  22904337.601   -11288894.08949  -8784962.66046  22904337.007    22904342.495
       225.000         171.000
  20572176.328     -146903.63649   -107813.19748  20572175.539    20572180.143
       247.000         216.000
  22693309.999    -9847905.57149  -7658688.50246  22693309.469    22693313.976
       231.000         182.000
  24593383.159    -6927987.16549  -5377287.58345  24593381.296    24593389.191
       204.000         139.000
  21003845.865   -10133374.83649  -7878493.08747  21003844.991    21003850.379
       244.000         208.000
 02  7 11 13  1 30.0000000  0  7G30G24G23G 5G 6G17G10
  20616671.717    -8228006.19249  -6403932.70948  20616671.845    20616675.647
       250.000         219.000
  21972353.322     6829469.45449   5315700.74047  21972352.977    21972358.388
       239.000         198.000
  22886155.071   -11384443.56649  -8859416.80746  22886153.576    22886160.739
       224.000         169.000
  20579594.938     -107918.61449    -77435.29848  20579594.413    20579598.917
       247.000         216.000
  22680422.343    -9915630.62349  -7711461.28646  22680421.781    22680426.355
       231.000         182.000
  24577005.520    -7014051.73349  -5444350.88045  24577004.384    24577010.908
       208.000         141.000
  20996296.611   -10173046.31549  -7909405.93647  20996295.857    20996300.901
       245.000         208.000
 02  7 11 13  2  0.0000000  0  7G30G24G23G 5G 6G17G10
  20611969.593    -8252716.07049  -6423187.17648  20611969.750    20611973.647
       250.000         219.000
  21985927.999     6900805.40049   5371287.13547  21985927.789    21985933.494
       239.000         197.000
  22868010.247   -11479795.23649  -8933716.82246  22868008.967    22868015.209
       224.000         170.000
  20587112.653      -68413.04949    -46651.77948  20587112.039    20587116.807
       247.000         216.000
  22667543.502    -9983309.62549  -7764198.17846  22667543.236    22667547.198
       231.000         182.000
  24560656.594    -7099967.40949  -5511298.18445  24560655.952    24560662.305
       209.000         145.000
  20988858.081   -10212136.33049  -7939865.69547  20988857.077    20988862.314
       245.000         208.000
 02  7 11 13  2 30.0000000  0  7G30G24G23G 5G 6G17G10
  20607373.846    -8276867.14649  -6442006.21848  20607373.692    20607377.829
       250.000         219.000
  21999531.089     6972289.46249   5426988.97147  21999530.572    21999536.172
       239.000         197.000
  22849903.608   -11574945.99249  -9007860.26946  22849902.881    22849908.447
       225.000         170.000
  20594729.292      -28387.43149    -15463.01948  20594728.686    20594733.153
       247.000         216.000
  22654673.665   -10050941.55449  -7816898.39146  22654673.536    22654678.105
       231.000         183.000
  24544336.065    -7185732.85449  -5578128.41745  24544334.921    24544341.548
       210.000         147.000
  20981530.584   -10250642.47849  -7969870.49447  20981529.699    20981534.867
       245.000         209.000
 02  7 11 13  3  0.0000000  0  7G30G24G23G 5G 6G17G10
  20602884.833    -8300457.22649  -6460388.11948  20602884.810    20602888.640
       250.000         219.000
  22013162.138     7043921.20049   5482805.84647  22013161.775    22013167.426
       238.000         197.000
  22831835.919   -11669891.93149  -9081844.11546  22831835.769    22831842.300
       225.000         171.000
  20602444.896       12158.22849     16130.96748  20602444.115    20602449.094
       246.000         215.000
  22641812.993   -10118524.63449  -7869560.54446  22641812.349    22641817.356
       232.000         183.000
  24528044.183    -7271346.50649  -5644840.35645  24528043.269    24528049.740
       210.000         149.000
  20974314.779   -10288562.03649  -7999418.21447  20974314.025    20974319.080
       245.000         209.000
 02  7 11 13  3 30.0000000  0  7G30G24G23G 5G 6G17G10
  20598502.771    -8323485.16349  -6478331.98948  20598502.773    20598506.623
       250.000         219.000
  22026820.941     7115698.61549   5538736.25347  22026820.799    22026826.446
       239.000         197.000
  22813807.795   -11764630.15049  -9155666.12746  22813807.030    22813813.224
       224.000         172.000
  20610259.322       53223.16149     48129.57748  20610258.655    20610263.415
       247.000         215.000
  22628961.777   -10186057.98749  -7922183.94346  22628961.536    22628966.073
       231.000         184.000
  24511781.447    -7356807.38149  -5711433.25845  24511780.428    24511787.437
       215.000         153.000
  20967210.841   -10325893.59049  -8028507.74547  20967209.843    20967215.150
       244.000         208.000
 02  7 11 13  4  0.0000000  0  7G30G24G23G 5G 6G17G10
  20594227.859    -8345949.90049  -6495837.00248  20594227.973    20594231.948
       250.000         219.000
  22040507.007     7187619.28349   5594778.27847  22040506.265    22040512.294
       237.000         196.000
  22795819.739   -11859158.34349  -9229324.46746  22795819.692    22795825.740
       226.000         174.000
  20618172.282       94805.83449     80531.63848  20618171.557    20618176.604
       247.000         216.000
  22616120.074   -10253541.37449  -7974768.39546  22616119.386    22616124.359
       230.000         184.000
  24495547.976    -7442115.08649  -5777906.80545  24495547.475    24495553.841
       214.000         155.000
  20960218.997   -10362636.08049  -8057138.26147  20960217.963    20960223.446
       244.000         208.000
 02  7 11 13  4 30.0000000  0  7G30G24G23G 5G 6G17G10
  20590060.315    -8367850.65749  -6512902.54548  20590060.348    20590064.477
       250.000         219.000
  22054219.958     7259681.09449   5650930.28447  22054219.611    22054225.207
       238.000         196.000
  22777872.164   -11953473.90749  -9302817.13646  22777871.718    22777877.698
       224.000         174.000
  20626183.489      136904.82349    113336.00048  20626182.791    20626187.745
       247.000         216.000
  22603287.818   -10320974.49749  -8027313.70346  22603287.610    22603292.392
       230.000         184.000
  24479343.838    -7527269.34049  -5844260.78045  24479343.123    24479349.396
       216.000         156.000
  20953339.460   -10398788.40849  -8085308.92347  20953338.566    20953343.649
       245.000         209.000
 02  7 11 13  5  0.0000000  0  7G30G24G23G 5G 6G17G10
  20586000.430    -8389185.50349  -6529527.12548  20586000.408    20586004.464
       250.000         219.000
  22067959.550     7331883.24449   5707191.65247  22067958.980    22067964.633
       237.000         195.000
  22759965.608   -12047573.19249  -9376141.27246  22759965.414    22759971.075
       225.000         174.000
  20634292.933      179519.94849    146542.55748  20634292.237    20634297.104
       247.000         215.000
  22590465.418   -10388355.72049  -8079818.56346  22590465.216    22590469.961
       230.000         184.000
  24463169.051    -7612268.33749  -5910493.76545  24463168.451    24463174.502
       215.000         155.000
  20946572.707   -10434347.88349  -8113017.61747  20946571.710    20946576.912
       245.000         209.000
 02  7 11 13  5 30.0000000  0  7G30G24G23G 5G 6G17G10
  20582048.498    -8409953.13849  -6545709.72448  20582048.844    20582052.581
       250.000         219.000
  22081725.505     7404223.85349   5763560.90447  22081725.180    22081730.964
       238.000         195.000
  22742100.829   -12141453.27449  -9449294.58646  22742099.732    22742105.846
       226.000         174.000
  20642500.315      222649.92449    180150.29448  20642499.655    20642504.483
       247.000         216.000
  22577653.119   -10455684.31449  -8132282.41646  22577652.656    22577657.955
       230.000         184.000
  24447023.856    -7697111.35349  -5976605.22045  24447023.368    24447029.480
       213.000         153.000
  20939919.075   -10469313.14049  -8140263.27747  20939918.206    20939923.286
       245.000         209.000
 02  7 11 13  6  0.0000000  0  7G30G24G23G 5G 6G17G10
  20578204.622    -8430153.18449  -6561450.03948  20578204.306    20578208.660
       250.000         219.000
  22095517.401     7476700.61549   5820036.25747  22095516.952    22095522.389
       236.000         195.000
  22724278.149   -12235111.97049  -9522275.38946  22724277.340    22724283.103
       226.000         175.000
  20650805.353      266293.10249    214157.92648  20650804.565    20650809.425
       247.000         215.000
  22564851.107   -10522960.06649  -8184705.09246  22564850.799    22564855.930
       230.000         184.000
  24430908.374    -7781798.18149  -6042594.97745  24430908.324    24430913.729
       213.000         153.000
  20933378.695   -10503683.17749  -8167045.13047  20933377.634    20933383.002
       245.000         209.000
 02  7 11 13  6 30.0000000  0  7G30G24G23G 5G 6G17G10
  20574468.944    -8449784.16249  -6576746.93148  20574469.131    20574472.780
       250.000         219.000
  22109334.833     7549311.83149   5876616.37247  22109334.626    22109339.912
       238.000         194.000
  22706498.251   -12328546.16549  -9595081.25046  22706497.549    22706503.761
       227.000         175.000
  20659207.916      310448.73549    248564.88948  20659207.148    20659212.179
       247.000         215.000
  22552059.134   -10590182.13149  -8237085.93146  22552059.164    22552064.148
       230.000         184.000
  24414823.018    -7866327.72649  -6108462.16745  24414822.150    24414829.019
       212.000         151.000
  20926951.897   -10537456.06249  -8193361.67847  20926950.773    20926956.053
       245.000         210.000
 02  7 11 13  7  0.0000000  0  7G30G24G23G 5G 6G17G10
  20570841.651    -8468845.97249  -6591600.31248  20570841.823    20570845.534
       250.000         219.000
  22123177.518     7622054.99349   5933299.29447  22123177.393    22123182.571
       238.000         194.000
  22688761.395   -12421754.06249  -9667710.77946  22688760.328    22688767.187
       227.000         175.000
  20667707.627      355114.82849    283369.59148  20667706.864    20667711.814
       247.000         215.000
  22539277.337   -10657350.61049  -8289425.01346  22539276.524    22539282.134
       230.000         184.000
  24398767.437    -7950700.15149  -6174206.93945  24398766.136    24398773.638
       211.000         149.000
  20920638.809   -10570631.44549  -8219212.62747  20920637.804    20920642.846
       245.000         209.000
 02  7 11 13  7 30.0000000  0  7G30G24G23G 5G 6G17G10
  20567323.149    -8487336.13349  -6606008.25648  20567323.039    20567327.037
       251.000         219.000
  22137045.134     7694929.30949   5990084.41747  22137044.923    22137050.863
       238.000         194.000
  22671068.428   -12514731.38349  -9740160.66846  22671067.896    22671073.889
       228.000         176.000
  20676304.474      400291.65649    318572.27048  20676303.953    20676308.778
       247.000         215.000
  22526506.166   -10724463.24849  -8341720.59446  22526505.515    22526511.523
       232.000         184.000
  24382742.107    -8034913.58749  -6239827.82345  24382740.910    24382747.425
       208.000         146.000
  20914439.985   -10603206.64049  -8244595.90747  20914439.025    20914444.147
       246.000         209.000
 02  7 11 13  8  0.0000000  0  7G30G24G23G 5G 6G17G10
  20563913.577    -8505253.63649  -6619969.97648  20563913.439    20563917.548
       249.000         219.000
  22150937.396     7767933.35749   6046970.63047  22150937.095    22150942.508
       238.000         194.000
  22653419.845   -12607475.26549  -9812428.62846  22653419.234    22653424.866
       229.000         176.000
  20684998.300      445977.90049    354171.89348  20684997.724    20685002.577
       247.000         216.000
  22513745.789   -10791519.22349  -8393972.02146  22513745.478    22513750.687
       230.000         185.000
  24366747.088    -8118967.06349  -6305324.06145  24366746.922    24366754.129
       209.000         145.000
  20908355.653   -10635180.07949  -8269510.29447  20908354.617    20908360.162
       245.000         209.000
 02  7 11 13  8 30.0000000  0  7G30G24G23G 5G 6G17G10
  20560612.735    -8522599.35049  -6633486.13648  20560613.084    20560616.737
       250.000         219.000
  22164853.647     7841063.32949   6103954.97747  22164853.341    22164858.625
       237.000         193.000
  22635815.945   -12699984.88749  -9884514.06446  22635815.271    22635821.092
       228.000         176.000
  20693788.504      492170.62649    390166.19448  20693787.909    20693792.616
       247.000         215.000
  22500995.904   -10858519.83149  -8446180.28946  22500995.815    22501000.850
       232.000         184.000
  24350782.576    -8202861.81649  -6370696.59845  24350781.984    24350787.401
       209.000         144.000
  20902385.721   -10666552.30349  -8293956.19647  20902384.700    20902389.941
       245.000         210.000
 02  7 11 13  9  0.0000000  0  7G30G24G23G 5G 6G17G10
  20557421.279    -8539371.00349  -6646554.97848  20557421.104    20557425.062
       249.000         219.000
  22178793.657     7914318.64749   6161036.99547  22178793.361    22178799.148
       236.000         193.000
  22618257.247   -12792256.25049  -9956413.82846  22618257.176    22618262.878
       227.000         177.000
  20702675.108      538869.73449    426555.07448  20702674.417    20702679.412
       247.000         215.000
  22488257.210   -10925463.04149  -8498343.84146  22488256.494    22488261.624
       231.000         185.000
  24334848.719    -8286595.89049  -6435943.97045  24334848.195    24334854.248
       211.000         142.000
  20896530.760   -10697320.43949  -8317931.37947  20896529.903    20896534.905
       246.000         210.000
 02  7 11 13  9 30.0000000  0  7G30G24G23G 5G 6G17G10
  20554339.120    -8555567.69749  -6659175.80248  20554339.327    20554343.212
       250.000         219.000
  22192757.241     7987697.47649   6218215.24347  22192757.244    22192762.751
       238.000         193.000
  22600744.473   -12884286.58449 -10028125.78046  22600743.991    22600749.278
       229.000         178.000
  20711657.770      586073.73649    463337.37548  20711657.188    20711661.858
       247.000         215.000
  22475529.469   -10992348.20149  -8550462.16146  22475529.165    22475533.662
       232.000         185.000
  24318945.425    -8370168.41849  -6501065.44845  24318944.295    24318951.205
       211.000         141.000
  20890790.989   -10727483.32149  -8341434.93547  20890789.957    20890795.206
       245.000         210.000
 02  7 11 13 10  0.0000000  0  7G30G24G23G 5G 6G17G10
  20551366.565    -8571188.66749  -6671348.00548  20551366.615    20551370.617
       250.000         219.000
  22206744.093     8061198.23249   6275488.52047  22206743.431    22206749.677
       238.000         193.000
  22583278.088   -12976073.26549 -10099647.87446  22583277.722    22583283.659
       227.000         178.000
  20720736.294      633781.50049    500512.22048  20720735.503    20720740.530
       247.000         215.000
  22462812.920   -11059174.60949  -8602534.69046  22462813.108    22462817.221
       232.000         185.000
  24303072.798    -8453578.96149  -6566060.70745  24303071.604    24303077.340
       209.000         140.000
  20885166.526   -10757039.85349  -8364466.00947  20885165.521    20885170.901
       245.000         210.000
 02  7 11 13 10 30.0000000  0  7G30G24G23G 5G 6G17G10
  20548503.891    -8586232.33749  -6683070.36748  20548503.717    20548507.832
       250.000         219.000
  22220753.738     8134819.39449   6332855.58847  22220753.333    22220759.501
       237.000         193.000
  22565858.707   -13067612.72749 -10170977.32646  22565857.832    22565864.260
       228.000         178.000
  20729910.517      681992.33849    538079.06748  20729909.902    20729914.831
       247.000         215.000
  22450107.673   -11125940.74649  -8654560.26846  22450106.974    22450112.697
       231.000         185.000
  24287231.385    -8536826.15349  -6630928.65245  24287231.290    24287237.576
       213.000         142.000
  20879657.819   -10785988.31849  -8387023.26347  20879656.864    20879662.267
       245.000         210.000
 02  7 11 13 11  0.0000000  0  7G30G24G23G 5G 6G17G10
  20545751.105    -8600698.29249  -6694342.56148  20545751.112    20545755.115
       250.000         219.000
  22234786.010     8208559.06249   6390315.01047  22234785.628    22234791.460
       237.000         192.000
  22548486.815   -13158902.57949 -10242112.28146  22548485.638    22548492.286
       227.000         178.000
  20739180.163      730704.27549    576036.38548  20739179.635    20739184.291
       247.000         215.000
  22437413.925   -11192646.20749  -8706538.56446  22437414.151    22437418.543
       232.000         185.000
  24271421.219    -8619909.78449  -6695669.19045  24271419.786    24271426.707
       214.000         145.000
  20874264.968   -10814327.95249  -8409106.10647  20874263.868    20874269.179
       245.000         210.000
 02  7 11 13 11 30.0000000  0  7G30G24G23G 5G 6G17G10
  20543108.300    -8614586.25549  -6705164.37648  20543108.472    20543112.249
       250.000         220.000
  22248840.328     8282414.93949   6447864.98347  22248839.779    22248845.864
       234.000         192.000
  22531162.894   -13249940.68949 -10313051.07746  22531162.281    22531168.545
       228.000         179.000
  20748544.751      779915.45849    614382.71948  20748544.252    20748548.990
       247.000         214.000
  22424731.874   -11259290.87049  -8758469.48846  22424731.701    22424735.825
       232.000         185.000
  24255642.034    -8702829.75849  -6760282.19145  24255641.229    24255647.740
       217.000         149.000
  20868988.110   -10842058.00449  -8430713.95947  20868987.341    20868992.524
       246.000         210.000
 02  7 11 13 12  0.0000000  0  7G30G24G23G 5G 6G17G10
  20540575.866    -8627894.25549  -6715534.26948  20540575.975    20540579.970
       249.000         219.000
  22262916.589     8356386.33849   6505504.98347  22262916.204    22262921.991
       235.000         191.000
  22513887.612   -13340723.48349 -10383790.92246  22513886.950    22513893.288
       229.000         180.000
  20758004.348      829625.80049    653118.01248  20758003.663    20758008.557
       247.000         214.000
  22412061.760   -11325872.85649  -8810351.57146  22412060.973    22412066.951
       232.000         186.000
  24239894.457    -8785584.49449  -6824766.43745  24239893.011    24239899.766
       215.000         151.000
  20863827.673   -10869176.53649  -8451845.29347  20863826.653    20863832.125
       246.000         210.000
 02  7 11 13 12 30.0000000  0  7G30G24G23G 5G 6G17G10
  20538153.821    -8640622.59949  -6725452.47048  20538153.982    20538157.906
       250.000         220.000
  22277014.284     8430470.31549   6563232.70747  22277014.004    22277019.717
       235.000         191.000
  22496661.063   -13431249.16449 -10454330.41546  22496660.186    22496666.088
       230.000         180.000
  20767558.457      879832.82449    692240.33548  20767557.689    20767562.650
       246.000         214.000
  22399403.607   -11392392.40549  -8862184.99246  22399403.196    22399408.120
       233.000         186.000
  24224178.073    -8868174.34949  -6889122.18645  24224177.801    24224184.413
       220.000         154.000
  20858783.589   -10895683.27749  -8472499.90547  20858782.885    20858787.911
       246.000         210.000
 02  7 11 13 13  0.0000000  0  7G30G24G23G 5G 6G17G10
  20535842.246    -8652769.94549  -6734917.96548  20535842.342    20535846.307
       250.000         219.000
  22291133.181     8504665.50949   6621047.08047  22291132.520    22291138.457
       235.000         191.000
  22479484.151   -13521514.45149 -10524667.01546  22479483.877    22479489.061
       230.000         181.000
  20777206.910      930535.69649    731749.01948  20777206.299    20777211.262
       246.000         214.000
  22386757.729   -11458848.16349  -8913968.71246  22386757.470    22386762.081
       232.000         187.000
  24208493.642    -8950598.04249  -6953348.47945  24208492.599    24208499.512
       217.000         156.000
  20853856.343   -10921576.50049  -8492676.44747  20853855.166    20853860.531
       245.000         210.000
 02  7 11 13 13 30.0000000  0  7G30G24G23G 5G 6G17G10
  20533641.421    -8664335.66649  -6743930.23848  20533641.476    20533645.369
       250.000         219.000
  22305273.072     8578970.52649   6678947.03447  22305273.011    22305278.401
       235.000         190.000
  22462357.287   -13611516.60249 -10594798.57446  22462356.884    22462362.684
       230.000         181.000
  20786949.456      981733.01949    771643.00148  20786948.865    20786953.652
       247.000         214.000
  22374123.907   -11525239.33049  -8965702.11146  22374123.736    22374128.335
       234.000         187.000
  24192840.722    -9032854.79549  -7017444.68545  24192840.015    24192846.389
       218.000         158.000
  20849045.974   -10946855.04549  -8512374.03147  20849044.907    20849050.319
       245.000         210.000
 02  7 11 13 14  0.0000000  0  7G30G24G23G 5G 6G17G10
  20531551.453    -8675318.49849  -6752488.31048  20531551.503    20531555.498
       249.000         219.000
  22319433.517     8653383.56549   6736931.16347  22319433.468    22319439.048
       235.000         190.000
  22445281.113   -13701252.77349 -10664722.87146  22445280.646    22445286.524
       230.000         181.000
  20796785.895     1033423.62649    811921.36348  20796785.145    20796790.155
       246.000         214.000
  22361502.697   -11591564.77249  -9017384.29247  22361502.204    22361507.366
       234.000         188.000
  24177219.757    -9114944.03549  -7081410.35145  24177219.329    24177225.200
       219.000         159.000
  20844352.743   -10971517.87249  -8531591.84047  20844351.895    20844356.911
       246.000         210.000
 02  7 11 13 14 30.0000000  0  7G30G24G23G 5G 6G17G10
  20529572.450    -8685718.41849  -6760592.16748  20529572.483    20529576.305
       250.000         219.000
  22333614.124     8727902.74849   6794998.01247  22333613.561    22333619.652
       234.000         189.000
  22428255.921   -13790720.45649 -10734437.94246  22428255.402    22428261.251
       230.000         182.000
  20806715.843     1085605.47149    852582.49548  20806715.231    20806720.087
       247.000         214.000
  22348893.978   -11657824.09949  -9069014.94547  22348893.713    22348898.894
       233.000         188.000
  24161630.643    -9196865.56849  -7145245.32945  24161630.152    24161635.760
       219.000         161.000
  20839776.900   -10995564.32849  -8550329.35347  20839775.983    20839781.333
       246.000         211.000
 02  7 11 13 15  0.0000000  0  7G30G24G23G 5G 6G17G10
  20527704.603    -8695534.08449  -6768240.75848  20527704.806    20527708.714
       250.000         220.000
  22347814.695     8802527.13549   6853146.82547  22347814.460    22347820.053
       235.000         189.000
  22411282.511   -13879916.31449 -10803941.22246  22411282.082    22411287.607
       230.000         182.000
  20816739.049     1138277.63249    893625.69048  20816738.222    20816743.332
       246.000         214.000
  22336298.085   -11724015.94049  -9120593.01947  22336297.963    22336302.263
       234.000         188.000
  24146073.792    -9278617.96049  -7208948.52245  24146072.272    24146078.626
       216.000         161.000
  20835318.618   -11018992.78749  -8568585.30347  20835317.500    20835323.100
       245.000         211.000
 02  7 11 13 15 30.0000000  0  7G30G24G23G 5G 6G17G10
  20525947.981    -8704765.40349  -6775434.02148  20525947.962    20525952.134
       250.000         220.000
  22362034.931     8877254.19149   6911375.65047  22362034.366    22362040.235
       235.000         189.000
  22394361.264   -13968838.52449 -10873231.25246  22394361.016    22394366.451
       231.000         183.000
  20826855.156     1191438.00649    935049.31548  20826854.569    20826859.482
       246.000         213.000
  22323715.147   -11790139.90749  -9172118.20747  22323714.684    22323719.739
       233.000         189.000
  24130549.095    -9360201.28449  -7272519.96445  24130548.269    24130554.532
       217.000         160.000
  20830978.053   -11041802.81349  -8586359.36147  20830977.045    20830982.251
       246.000         210.000
 02  7 11 13 16  0.0000000  0  7G30G24G23G 5G 6G17G10
  20524302.685    -8713411.50249  -6782171.26148  20524302.821    20524306.839
       250.000         220.000
  22376274.168     8952082.19649   6969683.13647  22376273.758    22376279.802
       234.000         188.000
  22377492.596   -14057484.09649 -10942305.71446  22377491.635    22377498.087
       232.000         184.000
  20837063.933     1245085.40849    976852.43348  20837063.251    20837068.216
       246.000         213.000
  22311145.235   -11856195.02749  -9223589.74247  22311144.596    22311150.110
       234.000         189.000
  24115056.735    -9441614.68049  -7335959.00545  24115055.654    24115062.493
       214.000         159.000
  20826755.385   -11063993.35449  -8603650.70147  20826754.228    20826759.808
       246.000         211.000
 02  7 11 13 16 30.0000000  0  7G30G24G23G 5G 6G17G10
  20522769.001    -8721471.18249  -6788451.55448  20522769.023    20522773.020
       250.000         220.000
  22390532.516     9027010.32949   7028068.62647  22390532.067    22390538.270
       235.000         188.000
  22360677.129   -14145849.67149 -11011162.01046  22360676.576    22360682.754
       232.000         184.000
  20847365.250     1299218.93549   1019034.35348  20847364.600    20847369.707
       246.000         213.000
  22298588.863   -11922179.71049  -9275006.39847  22298588.269    22298593.708
       234.000         189.000
  24099596.648    -9522857.11849  -7399264.81045  24099595.747    24099602.595
       212.000         158.000
  20822650.819   -11085562.76849  -8620458.04447  20822649.859    20822655.085
       246.000         211.000
 02  7 11 13 17  0.0000000  0  7G30G24G23G 5G 6G17G10
  20521346.980    -8728944.06349  -6794274.60348  20521347.077    20521350.878
       250.000         220.000
  22404809.563     9102036.60649   7086530.61047  22404809.143    22404815.692
       234.000         188.000
  22343915.540   -14233932.59849 -11079798.04746  22343914.580    22343921.035
       231.000         185.000
  20857758.732     1353836.76049   1061593.65148  20857758.015    20857763.071
       246.000         213.000
  22286045.913   -11988093.49949  -9326367.80647  22286045.312    22286050.889
       234.000         189.000
  24084169.320    -9603927.94549  -7462436.92045  24084168.937    24084175.500
       213.000         157.000
  20818664.603   -11106510.66249  -8636781.08747  20818663.669    20818669.096
       246.000         211.000
 02  7 11 13 17 30.0000000  0  7G30G24G23G 5G 6G17G10
  20520036.699    -8735829.69449  -6799640.05348  20520037.044    20520040.900
       251.000         220.000
  22419105.094     9177159.55249   7145067.91447  22419104.777    22419110.258
       235.000         188.000
  22327208.114   -14321730.23749 -11148211.79146  22327207.686    22327213.624
       231.000         184.000
  20868244.056     1408937.36149   1104529.14348  20868243.316    20868248.561
       246.000         213.000
  22273516.412   -12053935.18449  -9377673.03947  22273515.906    22273521.463
       234.000         189.000
  24068774.682    -9684826.92549  -7525475.08645  24068773.335    24068780.977
       213.000         156.000
  20814796.834   -11126835.95349  -8652618.98747  20814795.837    20814801.324
       246.000         211.000
 02  7 11 13 18  0.0000000  0  7G30G24G23G 5G 6G17G10
  20518838.299    -8742127.65449  -6804547.58148  20518838.174    20518842.394
       249.000         220.000
  22433418.592     9252377.28049   7203679.06747  22433418.308    22433423.713
       234.000         188.000
  22310555.379   -14409240.41549 -11216401.53746  22310554.844    22310561.035
       231.000         184.000
  20878820.898     1464519.03049   1147839.49348  20878820.204    20878825.395
       246.000         213.000
  22261000.960   -12119704.23349  -9428921.67147  22261000.710    22261006.313
       233.000         189.000
  24053412.734    -9765553.49349  -7588378.92645  24053412.389    24053418.835
       213.000         156.000
  20811047.592   -11146538.23449  -8667971.43147  20811046.722    20811051.853
       245.000         211.000
 02  7 11 13 18 30.0000000  0  7G30G24G23G 5G 6G17G10
  20517751.681    -8747837.69449  -6808996.98548  20517751.966    20517755.678
       251.000         220.000
  22447749.772     9327687.96049   7262362.64347  22447749.107    22447755.407
       233.000         188.000
  22293957.936   -14496460.64749 -11284365.35446  22293957.584    22293963.571
       231.000         184.000
  20889488.914     1520579.74049   1191523.11248  20889488.288    20889493.324
       246.000         213.000
  22248499.583   -12185399.99649  -9480113.18747  22248499.005    22248504.754
       235.000         190.000
  24038083.610    -9846107.42749  -7651148.25945  24038082.112    24038090.043
       210.000         154.000
  20807417.040   -11165616.99549  -8682838.00647  20807415.966    20807421.728
       245.000         211.000
 02  7 11 13 19  0.0000000  0  7G30G24G23G 5G 6G17G10
  20516777.228    -8752958.54549  -6812987.28548  20516777.161    20516781.557
       250.000         220.000
  22462098.284     9403090.52949   7321117.82946  22462097.563    22462103.479
       234.000         187.000
  22277416.424   -14583387.35149 -11352100.45446  22277415.576    22277421.951
       230.000         183.000
  20900248.048     1577118.79849   1235579.46947  20900247.450    20900252.433
       246.000         212.000
  22236012.453   -12251020.66649  -9531246.20247  22236012.169    22236017.251
       236.000         190.000
  24022787.573    -9926487.41549  -7713782.02845  24022787.720    24022793.288
       212.000         153.000
  20803905.477   -11184070.57649  -8697217.43047  20803904.587    20803910.077
       246.000         211.000
 02  7 11 13 19 30.0000000  0  7G30G24G23G 5G 6G17G10
  20515914.883    -8757490.49149  -6816518.70048  20515915.078    20515918.933
       250.000         220.000
  22476464.137     9478582.93249   7379943.04546  22476463.678    22476469.832
       233.000         187.000
  22260930.897   -14670018.66649 -11419605.36546  22260930.289    22260936.792
       232.000         184.000
  20911097.650     1634133.75149   1280006.66247  20911097.059    20911102.110
       246.000         212.000
  22223539.721   -12316565.98649  -9582320.49547  22223539.364    22223544.435
       235.000         190.000
  24007524.762   -10006693.66749  -7776280.42545  24007524.147    24007530.904
       213.000         153.000
  20800512.844   -11201898.74949  -8711109.52247  20800511.925    20800517.368
       246.000         211.000
 02  7 11 13 20  0.0000000  0  7G30G24G23G 5G 6G17G10
  20515164.468    -8761433.98749  -6819591.57648  20515164.547    20515168.593
       249.000         220.000
  22490846.515     9554162.40449   7438836.08646  22490845.981    22490853.099
       232.000         186.000
  22244502.181   -14756352.76549 -11486878.68346  22244501.182    22244507.970
       231.000         184.000
  20922037.413     1691622.12449   1324802.76748  20922036.725    20922041.789
       246.000         213.000
  22211081.277   -12382036.10249  -9633336.18047  22211080.979    22211086.180
       235.000         190.000
  23992295.333   -10086726.33949  -7838643.57145  23992295.350    23992301.111
       215.000         155.000
  20797239.167   -11219101.98549  -8724514.66047  20797238.132    20797243.524
       246.000         211.000
 02  7 11 13 20 30.0000000  0  7G30G24G23G 5G 6G17G10
  20514526.280    -8764787.69049  -6822204.87948  20514526.349    20514530.411
       250.000         220.000
  22505245.183     9629828.34949   7497796.49146  22505245.283    22505251.053
       234.000         186.000
  22228130.475   -14842386.40649 -11553917.87746  22228129.786    22228136.079
       232.000         184.000
  20933066.957     1749582.85249   1369966.93247  20933066.360    20933071.409
       246.000         212.000
  22198637.409   -12447429.38849  -9684292.00747  22198636.953    22198641.314
       235.000         190.000
  23977098.992   -10166584.21249  -7900870.50145  23977098.840    23977104.548
       217.000         155.000
  20794084.752   -11235678.80049  -8737431.67647  20794083.835    20794089.219
       246.000         211.000
 02  7 11 13 21  0.0000000  0  7G30G24G23G 5G 6G17G10
  20514000.411    -8767550.95449  -6824358.10448  20514000.513    20514004.697
       250.000         220.000
  22519660.222     9705579.29649   7556823.15046  22519660.743    22519665.776
       233.000         186.000
  22211816.566   -14928116.53749 -11620720.57046  22211816.160    22211821.684
       232.000         185.000
  20944186.217     1808014.69749   1415498.20748  20944185.542    20944190.989
       246.000         213.000
  22186208.345   -12512744.29749  -9735186.75547  22186207.678    22186212.537
       234.000         190.000
  23961936.085   -10246266.33049  -7962960.49845  23961935.877    23961941.455
       217.000         155.000
  20791049.684   -11251628.14849  -8749859.75047  20791048.826    20791054.190
       246.000         211.000
 02  7 11 13 21 30.0000000  0  7G30G24G23G 5G 6G17G10
  20513587.095    -8769723.37149  -6826050.91848  20513587.249    20513591.108
       250.000         220.000
  22534091.242     9781413.61449   7615914.77446  22534091.463    22534097.085
       233.000         185.000
  22195560.998   -15013540.69449 -11687284.84946  22195560.903    22195566.373
       232.000         185.000
  20955394.783     1866915.80249   1461395.12647  20955394.063    20955399.013
       246.000         212.000
  22173794.345   -12577979.99649  -9786019.78047  22173794.052    22173798.410
       235.000         191.000
  23946806.693   -10325772.30149  -8024913.23845  23946806.101    23946811.993
       221.000         155.000
  20788134.145   -11266949.58349  -8761798.55047  20788133.195    20788138.585
       246.000         211.000
 02  7 11 13 22  0.0000000  0  7G30G24G23G 5G 6G17G10
  20513286.140    -8771304.91749  -6827283.32248  20513286.317    20513290.376
       250.000         220.000
  22548537.612     9857329.30049   7675069.80446  22548537.113    22548542.403
       233.000         184.000
  22179364.019   -15098656.39349 -11753608.75846  22179363.146    22179369.922
       232.000         186.000
  20966692.248     1926284.22249   1507656.18147  20966691.382    20966696.630
       246.000         212.000
  22161395.554   -12643135.77849  -9836790.54147  22161394.995    22161400.251
       234.000         191.000
  23931710.993   -10405101.88849  -8086728.51545  23931710.142    23931716.554
       219.000         156.000
  20785338.124   -11281642.62449  -8773247.68847  20785336.971    20785342.554
       246.000         211.000
 02  7 11 13 22 30.0000000  0  7G30G24G23G 5G 6G17G10
  20513097.779    -8772294.76949  -6828054.66448  20513098.018    20513101.817
       250.000         220.000
  22562999.167     9933325.97949   7734287.92246  22562999.161    22563004.674
       234.000         185.000
  22163226.402   -15183460.26649 -11819689.69946  22163225.408    22163231.715
       232.000         186.000
  20978078.415     1986118.93249   1554280.57947  20978077.799    20978082.906
       246.000         211.000
  22149012.129   -12708210.15549  -9887497.86347  22149011.918    22149016.778
       235.000         192.000
  23916648.970   -10484254.07249  -8148405.55745  23916647.969    23916654.410
       219.000         156.000
  20782661.951   -11295706.10649  -8784206.26947  20782661.053    20782666.508
       246.000         212.000
 02  7 11 13 23  0.0000000  0  7G30G24G23G 5G 6G17G10
  20513022.138    -8772692.52549  -6828364.63048  20513022.230    20513026.436
       250.000         220.000
  22577475.966    10009401.67049   7793567.61646  22577475.869    22577481.705
       232.000         185.000
  22147148.501   -15267949.81749 -11885525.71346  22147148.018    22147154.213
       233.000         186.000
  20989553.014     2046418.07249   1601266.87947  20989552.385    20989557.509
       246.000         211.000
  22136644.531   -12773202.08549  -9938140.94047  22136643.950    22136649.614
       234.000         192.000
  23901620.668   -10563228.17249  -8209943.84445  23901620.333    23901626.657
       220.000         158.000
  20780105.668   -11309139.62749  -8794673.96147  20780104.753    20780110.241
       247.000         211.000
 02  7 11 13 23 30.0000000  0  7G30G24G23G 5G 6G17G10
  20513059.074    -8772498.31749  -6828213.32948  20513059.195    20513063.044
       250.000         220.000
  22591967.375    10085554.48349   7852907.40646  22591967.596    22591973.186
       232.000         185.000
  22131130.975   -15352122.91449 -11951115.14046  22131130.107    22131135.908
       234.000         186.000
  21001115.576     2107179.50149   1648613.40147  21001114.751    21001119.997
       245.000         210.000
  22124292.712   -12838110.98149  -9988719.31647  22124292.651    22124297.888
       236.000         192.000
  23886626.335   -10642024.26149  -8271343.40845  23886625.373    23886631.948
       220.000         158.000
  20777669.354   -11321942.74749  -8804650.43547  20777668.399    20777673.927
       246.000         211.000
 02  7 11 13 24  0.0000000  0  7G30G24G23G 5G 6G17G10
  20513208.729    -8771711.85149  -6827600.51748  20513209.001    20513212.886
       250.000         220.000
  22606473.265    10161783.25249   7912306.37546  22606472.485    22606479.475
       230.000         183.000
  22115173.998   -15435976.89949 -12016455.90846  22115173.414    22115179.551
       234.000         187.000
  21012765.786     2168401.68649   1696318.95447  21012765.075    21012770.036
       245.000         210.000
  22111957.025   -12902935.78349 -10039232.16647  22111957.151    22111961.573
       236.000         193.000
  23871665.982   -10720641.50449  -8332603.60545  23871664.680    23871671.366
       220.000         160.000
  20775353.047   -11334115.15249  -8814135.44447  20775351.933    20775357.603
       246.000         212.000
 02  7 11 13 24 30.0000000  0  7G30G24G23G 5G 6G17G10
  20513471.131    -8770333.11749  -6826526.20848  20513471.259    20513475.524
       250.000         220.000
  22620993.138    10238085.62449   7971762.70746  22620992.873    22620999.028
       231.000         183.000
  22099278.302   -15519509.56149 -12081546.27446  22099277.758    22099283.845
       234.000         187.000
  21024503.286     2230082.38049   1744381.78247  21024502.550    21024507.844
       246.000         211.000
  22099637.554   -12967675.74549 -10089678.90447  22099637.569    22099642.706
       236.000         193.000
  23856739.639   -10799079.93049  -8393724.45545  23856738.973    23856745.433
       219.000         161.000
  20773156.750   -11345656.82749  -8823128.96747  20773155.863    20773161.290
       246.000         212.000
 02  7 11 13 25  0.0000000  0  7G30G24G23G 5G 6G17G10
  20513846.383    -8768361.34349  -6824989.78848  20513846.570    20513850.553
       250.000         220.000
  22635526.871    10314460.89549   8031275.83646  22635527.021    22635533.407
       232.000         184.000
  22083444.372   -15602717.55949 -12146383.67147  22083443.770    22083449.838
       234.000         188.000
  21036327.887     2292220.65049   1792801.17047  21036327.354    21036332.265
       245.000         211.000
  22087334.549   -13032329.20349 -10140058.24247  22087334.507    22087339.209
       236.000         193.000
  23841847.579   -10877338.38749  -8454705.08745  23841846.813    23841853.499
       217.000         160.000
  20771080.715   -11356566.62549  -8831630.12747  20771079.711    20771085.458
       246.000         212.000
 02  7 11 13 25 30.0000000  0  7G30G24G23G 5G 6G17G10
  20514334.476    -8765796.58449  -6822991.30148  20514334.662    20514338.782
       250.000         220.000
  22650074.281    10390907.40849   8090844.47446  22650073.730    22650081.488
       230.000         183.000
  22067672.605   -15685598.53949 -12210966.24147  22067671.839    22067678.371
       234.000         188.000
  21048239.031     2354814.15649   1841575.27247  21048238.318    21048243.438
       245.000         210.000
  22075048.092   -13096895.32049 -10190369.51047  22075048.082    22075052.871
       237.000         194.000
  23826989.708   -10955416.51749  -8515545.19445  23826988.229    23826995.221
       215.000         159.000
  20769124.959   -11366844.35049  -8839638.76847  20769124.015    20769129.356
       246.000         212.000
 02  7 11 13 26  0.0000000  0  7G30G24G23G 5G 6G17G10
  20514935.516    -8762638.26249  -6820530.30148  20514935.686    20514940.009
       250.000         220.000
  22664634.921    10467424.08549   8150467.78646  22664634.800    22664641.152
       230.000         182.000
  22051963.706   -15768149.43749 -12275291.59847  22051963.074    22051968.596
       235.000         188.000
  21060236.558     2417861.47449   1890702.99247  21060235.832    21060240.872
       245.000         209.000
  22062778.507   -13161372.60049 -10240611.56747  22062778.087    22062783.083
       236.000         194.000
  23812166.377   -11033313.57249  -8576244.20045  23812165.561    23812172.465
       217.000         159.000
  20767289.606   -11376489.22449  -8847154.27547  20767288.595    20767294.305
       246.000         211.000
 02  7 11 13 26 30.0000000  0  7G30G24G23G 5G 6G17G10
  20515649.356    -8758887.11849  -6817607.35748  20515649.521    20515653.530
       250.000         220.000
  22679208.565    10544008.28049   8210143.72346  22679208.401    22679214.466
       232.000         183.000
  22036317.898   -15850368.80149 -12339358.61147  22036317.085    22036323.297
       234.000         188.000
  21072319.913     2481359.78849   1940182.15047  21072319.327    21072324.487
       244.000         209.000
  22050525.702   -13225761.02749 -10290784.37047  22050525.419    22050530.638
       236.000         194.000
  23797377.583   -11111030.18249  -8636802.60145  23797376.289    23797382.924
       216.000         160.000
  20765574.623   -11385501.62749  -8854176.94447  20765573.662    20765579.027
       246.000         211.000
 02  7 11 13 27  0.0000000  0  7G30G24G23G 5G 6G17G10
  20516476.031    -8754543.24249  -6814222.54248  20516476.199    20516480.307
       250.000         220.000
  22693794.745    10620658.95749   8269871.46146  22693794.533    22693800.501
       232.000         183.000
  22020735.620   -15932254.14749 -12403165.35747  22020734.143    22020741.220
       234.000         189.000
  21084488.729     2545307.22049   1990011.26047  21084487.933    21084493.211
       244.000         209.000
  22038290.083   -13290059.58949 -10340887.16147  22038289.929    22038294.728
       236.000         194.000
  23782622.942   -11188565.79549  -8697219.95845  23782621.584    23782628.999
       215.000         160.000
  20763979.972   -11393881.53949  -8860706.76847  20763978.887    20763984.586
       246.000         212.000
 02  7 11 13 27 30.0000000  0  7G30G24G23G 5G 6G17G10
  20517415.794    -8749604.80449  -6810374.44348  20517415.929    20517419.982
       250.000         220.000
  22708393.453    10697375.78949   8329650.73446  22708392.867    22708399.345
       230.000         181.000
  22005217.627   -16013801.36449 -12466708.62247  22005216.616    22005223.146
       234.000         189.000
  21096742.931     2609703.57249   2040190.17447  21096742.519    21096747.228
       244.000         208.000
  22026072.151   -13354265.51549 -10390917.76347  22026071.798    22026077.212
       236.000         194.000
  23767903.292   -11265918.23149  -8757494.59945  23767902.943    23767909.313
       218.000         161.000
  20762506.003   -11401627.07349  -8866742.26847  20762505.107    20762510.570
       247.000         212.000
 02  7 11 13 28  0.0000000  0  7G30G24G23G 5G 6G17G10
  20518468.338    -8744073.78449  -6806064.58348  20518468.470    20518472.517
       250.000         220.000
  22723004.076    10774155.86749   8389479.28346  22723004.002    22723010.715
       230.000         181.000
  21989764.212   -16095009.78849 -12529987.89647  21989763.573    21989769.669
       234.000         190.000
  21109081.942     2674545.13249   2090716.02447  21109081.197    21109086.247
       245.000         209.000
  22013871.628   -13418379.66349 -10440876.85047  22013871.204    22013876.367
       236.000         195.000
  23753218.235   -11343089.15449  -8817627.80345  23753216.291    23753224.320
       217.000         162.000
  20761152.529   -11408740.04749  -8872284.86347  20761151.634    20761157.096
       246.000         212.000
 02  7 11 13 28 30.0000000  0  7G30G24G23G 5G 6G17G10
  20519633.914    -8737948.51949  -6801291.68048  20519634.033    20519638.314
       249.000         220.000
  22737626.984    10850998.98649   8449356.95346  22737627.818    22737633.370
       233.000         183.000
  21974375.955   -16175875.33849 -12592999.98847  21974375.017    21974381.810
       234.000         190.000
  21121505.520     2739831.39149   2141588.37947  21121504.956    21121510.288
       244.000         209.000
  22001689.130   -13482399.60449 -10490762.53247  22001688.868    22001693.878
       238.000         195.000
  23738567.955   -11420076.47949  -8877617.92945  23738567.112    23738573.097
       217.000         162.000
  20759919.663   -11415218.64149  -8877333.13447  20759918.587    20759924.278
       245.000         211.000
 02  7 11 13 29  0.0000000  0  7G30G24G23G 5G 6G17G10
  20520912.384    -8731230.27249  -6796056.71348  20520912.588    20520916.736
       250.000         220.000
  22752261.512    10927902.45249   8509281.67546  22752261.437    22752267.398
       231.000         183.000
  21959053.174   -16256396.79349 -12655743.96247  21959052.414    21959058.555
       235.000         191.000
  21134013.208     2805559.18749   2192804.78847  21134012.478    21134017.632
       244.000         209.000
  21989524.500   -13546325.47849 -10540574.90447  21989523.799    21989528.799
       237.000         195.000
  23723952.430   -11496881.08349  -8937465.69445  23723952.020    23723958.243
       219.000         162.000
  20758807.421   -11421063.46549  -8881887.56247  20758806.537    20758812.112
       246.000         211.000
 02  7 11 13 29 30.0000000  0  7G30G24G23G 5G 6G17G10
  20522303.679    -8723919.32949  -6790359.90548  20522303.865    20522308.051
       250.000         220.000
  22766906.930    11004864.52849   8569252.03246  22766906.059    22766913.883
       230.000         182.000
  21943796.334   -16336572.02349 -12718218.15847  21943796.096    21943801.877
       237.000         191.000
  21146604.427     2871726.39649   2244363.59547  21146603.581    21146609.020
       244.000         209.000
  21977377.853   -13610156.29649 -10590313.21447  21977377.678    21977382.477
       237.000         195.000
  23709371.888   -11573502.73849  -8997170.90646  23709370.714    23709377.184
       220.000         163.000
  20757815.757   -11426274.90949  -8885948.45347  20757814.824    20757820.284
       246.000         212.000
 02  7 11 13 30  0.0000000  0  7G30G24G23G 5G 6G17G10
  20523808.081    -8716013.96449  -6784199.91248  20523808.013    20523812.275
       250.000         220.000
  22781563.535    11081885.89049   8629268.59446  22781563.302    22781570.131
       230.000         182.000
  21928606.271   -16416396.63349 -12780419.14047  21928605.492    21928611.962
       236.000         192.000
  21159279.188     2938332.75549   2296264.59447  21159278.476    21159283.891
       244.000         209.000
  21965249.971   -13673889.13649 -10639975.18047  21965249.514    21965254.453
       237.000         195.000
  23694826.541   -11649939.27949  -9056731.86646  23694825.893    23694831.818
       219.000         164.000
  20756944.972   -11430851.08049  -8889514.31647  20756944.017    20756949.715
       246.000         212.000
 02  7 11 13 30 30.0000000  0  7G30G24G23G 5G 6G17G10
  20525425.343    -8707515.22249  -6777577.54948  20525425.484    20525429.606
       250.000         220.000
  22796231.010    11158963.99449   8689329.37146  22796230.618    22796238.636
       231.000         183.000
  21913483.105   -16495869.19949 -12842345.81047  21913482.642    21913488.454
       237.000         192.000
  21172036.966     3005375.12849   2348505.33947  21172036.294    21172041.494
       243.000         208.000
  21953140.652   -13737523.91549 -10689560.73147  21953140.567    21953144.788
       238.000         195.000
  23680316.366   -11726191.36149  -9116149.08746  23680315.938    23680322.020
       219.000         164.000
  20756194.880   -11434792.77849  -8892585.78247  20756193.906    20756199.702
       246.000         212.000
 02  7 11 13 31  0.0000000  0  7G30G24G23G 5G 6G17G10
  20527155.432    -8698423.74749  -6770493.31048  20527155.436    20527159.822
       250.000         220.000
  22810909.014    11236096.75849   8749432.75646  22810908.637    22810915.677
       232.000         183.000
  21898427.351   -16574987.83649 -12903996.67847  21898426.555    21898432.898
       237.000         193.000
  21184877.285     3072851.07749   2401083.94747  21184876.675    21184882.097
       243.000         207.000
  21941050.110   -13801060.03549 -10739069.40547  21941049.607    21941054.594
       238.000         196.000
  23665841.183   -11802259.02849  -9175422.60246  23665840.190    23665846.436
       219.000         163.000
  20755565.504   -11438100.44549  -8895163.20547  20755564.672    20755570.105
       246.000         212.000
 02  7 11 13 31 30.0000000  0  7G30G24G23G 5G 6G17G10
  20528998.427    -8688739.05649  -6762946.83748  20528998.650    20529002.653
       250.000         220.000
  22825597.368    11313283.54449   8809578.23846  22825597.418    22825603.302
       230.000         181.000
  21883439.470   -16653749.59949 -12965369.46847  21883438.761    21883444.987
       237.000         193.000
  21197799.803     3140759.14949   2453999.27147  21197799.139    21197804.527
       244.000         207.000
  21928978.657   -13864495.76149 -10788499.85047  21928978.194    21928983.344
       238.000         196.000
  23651401.205   -11878141.37349  -9234551.72746  23651400.896    23651406.718
       220.000         163.000
  20755056.858   -11440773.59949  -8897246.20247  20755055.984    20755061.641
       246.000         212.000
 02  7 11 13 32  0.0000000  0  7G30G24G23G 5G 6G17G10
  20530954.205    -8678461.52249  -6754938.40248  20530954.226    20530958.442
       250.000         220.000
  22840295.417    11390522.54749   8869764.39746  22840294.683    22840301.377
       229.000         178.000
  21868520.028   -16732152.16849 -13026462.37047  21868519.619    21868525.357
       237.000         194.000
  21210804.118     3209097.05449   2507249.52647  21210803.596    21210809.192
       244.000         208.000
  21916926.507   -13927830.39049 -10837851.51647  21916925.908    21916931.564
       239.000         196.000
  23636996.524   -11953838.33349  -9293536.38645  23636995.329    23637001.674
       218.000         162.000
  20754668.831   -11442812.61449  -8898835.05947  20754667.812    20754673.484
       245.000         212.000
 02  7 11 13 32 30.0000000  0  7G30G24G23G 5G 6G17G10
  20533022.724    -8667591.34849  -6746468.16148  20533023.034    20533026.937
       251.000         220.000
  22855003.284    11467812.07149   8929989.93646  22855003.071    22855008.801
       231.000         178.000
  21853669.327   -16810193.00549 -13087273.38047  21853669.100    21853674.907
       237.000         194.000
  21223889.884     3277863.02349   2560833.33547  21223889.267    21223894.638
       244.000         208.000
  21904893.786   -13991062.46849 -10887123.27547  21904893.318    21904899.039
       238.000         196.000
  23622627.265   -12029349.33449  -9352376.15645  23622627.056    23622633.233
       219.000         162.000
  20754401.559   -11444217.23449  -8899929.58147  20754400.637    20754406.255
       246.000         212.000
 02  7 11 13 33  0.0000000  0  7G30G24G23G 5G 6G17G10
  20535204.209    -8656127.90249  -6737535.63948  20535204.084    20535208.772
       249.000         220.000
  22869720.670    11545152.02349   8990254.76646  22869720.962    22869727.028
       230.000         179.000
  21838888.067   -16887869.13249 -13147800.21947  21838887.143    21838892.868
       238.000         194.000
  21237056.804     3347055.62149   2614749.58347  21237056.212    21237061.861
       244.000         207.000
  21892880.950   -14054190.13849 -10936313.67647  21892880.514    21892886.139
       238.000         196.000
  23608293.705   -12104673.21749  -9411070.09546  23608293.499    23608299.219
       218.000         163.000
  20754255.164   -11444986.80649  -8900529.26147  20754254.039    20754259.756
       246.000         212.000
 02  7 11 13 33 30.0000000  0  7G30G24G23G 5G 6G17G10
  20537498.360    -8644072.03749  -6728141.49748  20537498.516    20537502.666
       250.000         220.000
  22884447.164    11622540.45049   9050557.34746  22884446.767    22884452.950
       229.000         178.000
  21824176.555   -16965178.43849 -13208041.22647  21824175.758    21824182.018
       239.000         195.000
  21250304.468     3416672.19949   2668996.19647  21250303.831    21250309.386
       244.000         207.000
  21880888.153   -14117212.69849 -10985422.18447  21880887.976    21880892.663
       239.000         196.000
  23593995.500   -12179810.30649  -9469618.48746  23593994.987    23594000.601
       217.000         163.000
  20754229.439   -11445121.89849  -8900634.54847  20754228.467    20754234.096
       246.000         212.000
 02  7 11 13 34  0.0000000  0  7G30G24G23G 5G 6G17G10
  20539905.246    -8631423.99649  -6718285.90548  20539905.339    20539909.498
       250.000         220.000
  22899182.832    11699976.30649   9110896.90446  22899182.526    22899188.941
       228.000         177.000
  21809535.299   -17042118.64349 -13267994.61747  21809534.553    21809540.668
       239.000         195.000
  21263632.405     3486710.67949   2723571.58047  21263631.824    21263637.099
       244.000         207.000
  21868915.641   -14180129.10849 -11034447.96747  21868915.525    21868920.006
       239.000         196.000
  23579733.004   -12254760.30349  -9528021.09346  23579732.001    23579738.578
       219.000         163.000
  20754324.447   -11444622.82449  -8900245.67947  20754323.501    20754329.073
       246.000         212.000
 02  7 11 13 34 30.0000000  0  7G30G24G23G 5G 6G17G10
  20542424.598    -8618184.72849  -6707969.62948  20542424.645    20542428.867
       250.000         220.000
  22913926.889    11777456.93449   9171271.35546  22913926.499    22913933.434
       229.000         177.000
  21794964.628   -17118688.07849 -13327659.09547  21794963.860    21794969.942
       238.000         195.000
  21277040.163     3557168.47449   2778473.69647  21277039.592    21277045.287
       243.000         207.000
  21856963.497   -14242938.69049 -11083390.50447  21856963.189    21856968.167
       239.000         196.000
  23565506.095   -12329523.32149  -9586278.01246  23565505.800    23565511.204
       219.000         163.000
  20754540.028   -11443490.06749  -8899363.03347  20754539.052    20754544.755
       246.000         212.000
 02  7 11 13 35  0.0000000  0  8G30G24G23G 5G 6G17G10G15
  20545055.038    -8604361.92249  -6697198.63848  20545055.204    20545059.471
       250.000         220.000
  22928678.042    11854973.97649   9231674.16346  22928677.367    22928684.790
       229.000         178.000
  21780463.479   -17194891.86449 -13387038.65247  21780462.809    21780468.557
       238.000         195.000
  21290525.840     3628035.88649   2833695.00247  21290525.246    21290530.777
       242.000         206.000
  21845030.291   -14305648.09149 -11132254.98347  21845030.040    21845034.554
       239.000         197.000
  23551313.281   -12404106.77749  -9644394.99346  23551312.815    23551318.924
       220.000         163.000
  20754874.696   -11441731.44749  -8897992.70347  20754874.010    20754879.395
       247.000         212.000
  24784417.945    -4134499.95449  -3202418.05345  24784416.995    24784423.892
       207.000         135.000
 02  7 11 13 35 30.0000000  0  8G30G24G23G 5G 6G17G10G15
  20547797.857    -8589948.78149  -6685967.64748  20547797.736    20547802.069
       250.000         220.000
  22943437.093    11932533.22649   9292109.85646  22943437.229    22943443.695
       229.000         179.000
  21766033.809   -17270720.35349 -13446125.77247  21766033.049    21766039.170
       238.000         195.000
  21304090.436     3699318.02449   2889239.46547  21304089.836    21304095.421
       242.000         206.000
  21833117.835   -14368248.66849 -11181034.66147  21833117.577    21833122.538
       239.000         197.000
  23537156.176   -12478502.87949  -9702365.99746  23537155.446    23537162.074
       222.000         164.000
  20755329.842   -11439339.80849  -8896129.10847  20755328.765    20755334.423
       246.000         212.000
  24767376.178    -4224054.90149  -3272201.15145  24767374.214    24767382.967
       202.000         134.000
 02  7 11 13 36  0.0000000  0  8G30G24G23G 5G 6G17G10G15
  20550653.803    -8574940.59949  -6674272.99648  20550653.798    20550658.223
       250.000         219.000
  22958204.809    12010138.32149   9352581.26946  22958204.466    22958210.011
       229.000         178.000
  21751676.941   -17346166.26549 -13504914.78747  21751676.318    21751682.265
       238.000         195.000
  21317734.489     3771017.74049   2945109.30747  21317733.930    21317739.412
       242.000         205.000
  21821227.197   -14430734.31449 -11229724.79547  21821226.909    21821232.041
       239.000         197.000
  23523035.847   -12552706.40649  -9760186.94646  23523035.941    23523041.671
       220.000         165.000
  20755906.269   -11436310.52749  -8893768.65347  20755905.236    20755910.937
       247.000         212.000
  24750361.710    -4313466.29549  -3341872.42545  24750360.332    24750368.595
       202.000         137.000
 02  7 11 13 36 30.0000000  0  8G30G24G23G 5G 6G17G10G15
  20553622.520    -8559340.09249  -6662116.78248  20553622.673    20553626.888
       250.000         220.000
  22972980.910    12087785.70549   9413085.66346  22972980.756    22972986.972
       228.000         177.000
  21737392.896   -17421229.39049 -13563405.51747  21737392.017    21737398.257
       238.000         195.000
  21331457.168     3843130.81349   3001301.24447  21331456.660    21331462.253
       243.000         205.000
  21809358.236   -14493105.79549 -11278325.96747  21809358.126    21809363.502
       239.000         198.000
  23508951.606   -12626719.23849  -9817859.28446  23508950.942    23508957.813
       222.000         165.000
  20756603.670   -11432646.05849  -8890913.24147  20756602.643    20756608.252
       246.000         212.000
  24733374.219    -4402735.68249  -3411432.98145  24733373.702    24733380.276
       205.000         138.000
 02  7 11 13 37  0.0000000  0  8G30G24G23G 5G 6G17G10G15
  20556703.769    -8543148.04549  -6649499.63848  20556703.880    20556708.186
       250.000         220.000
  22987764.494    12165473.52649   9473621.55146  22987763.972    22987770.998
       227.000         176.000
  21723182.006   -17495907.78149 -13621596.45947  21723181.135    21723187.375
       239.000         196.000
  21345258.026     3915654.42449   3057813.09047  21345257.306    21345263.057
       242.000         205.000
  21797511.163   -14555362.58049 -11326837.75247  21797510.747    21797516.084
       240.000         198.000
  23494903.759   -12700541.60049  -9875383.21946  23494903.717    23494909.146
       222.000         165.000
  20757421.783   -11428346.90849  -8887563.27247  20757420.627    20757426.487
       246.000         212.000
  24716414.061    -4491862.51149  -3480882.47045  24716412.194    24716419.369
       206.000         141.000
 02  7 11 13 37 30.0000000  0  8G30G24G23G 5G 6G17G10G15
  20559897.277    -8526365.99649  -6636422.75048  20559897.359    20559901.697
       250.000         220.000
  23002555.077    12243199.61849   9534187.25346  23002555.402    23002560.906
       228.000         175.000
  21709044.565   -17570200.63749 -13679486.98547  21709043.492    21709049.606
       238.000         196.000
  21359136.344     3988585.21749   3114642.21247  21359135.868    21359141.266
       242.000         205.000
  21785685.979   -14617504.70649 -11375260.20647  21785686.033    21785690.705
       240.000         198.000
  23480891.969   -12774174.47449  -9932759.48846  23480891.267    23480898.025
       221.000         165.000
  20758360.346   -11423414.63849  -8883719.97147  20758359.517    20758365.137
       246.000         212.000
  24699480.902    -4580847.45149  -3550221.40045  24699479.976    24699486.928
       210.000         145.000
 02  7 11 13 38  0.0000000  0  8G30G24G23G 5G 6G17G10G15
  20563203.100    -8508994.00349  -6622886.16148  20563203.111    20563207.404
       250.000         220.000
  23017353.225    12320963.28349   9594782.23346  23017352.438    23017359.262
       225.000         173.000
  21694980.966   -17644105.10549 -13737074.86847  21694980.408    21694986.460
       239.000         197.000
  21373091.857     4061921.53749   3171787.35347  21373091.117    21373096.921
       242.000         205.000
  21773882.898   -14679530.31249 -11423591.86147  21773882.725    21773887.716
       240.000         199.000
  23466916.433   -12847616.75749  -9989987.24446  23466916.052    23466921.981
       221.000         166.000
  20759419.427   -11417849.34649  -8879383.39547  20759418.444    20759423.981
       246.000         212.000
  24682574.915    -4669689.23349  -3619448.79945  24682574.439    24682581.068
       215.000         149.000
 02  7 11 13 38 30.0000000  0  8G30G24G23G 5G 6G17G10G15
  20566621.002    -8491032.87649  -6608890.50748  20566621.164    20566625.321
       250.000         219.000
  23032157.817    12398762.76149   9655405.10446  23032158.019    23032164.648
       224.000         172.000
  21680991.668   -17717619.30749 -13794358.65547  21680991.312    21680997.097
       239.000         197.000
  21387123.996     4135660.86049   3229246.51147  21387123.413    21387129.065
       242.000         204.000
  21762102.178   -14741438.55149 -11471832.06047  21762102.080    21762107.070
       240.000         199.000
  23452977.018   -12920868.67149 -10047066.66346  23452976.332    23452982.525
       219.000         165.000
  20760598.828   -11411651.51149  -8874553.93747  20760597.827    20760603.612
       246.000         212.000
  24665696.221    -4758387.90049  -3688564.70445  24665695.704    24665702.248
       216.000         152.000
 02  7 11 13 39  0.0000000  0  8G30G24G23G 5G 6G17G10G15
  20570150.840    -8472483.54249  -6594436.51748  20570150.951    20570155.232
       250.000         219.000
  23046969.156    12476596.24549   9716054.49146  23046969.475    23046975.795
       230.000         174.000
  21667077.008   -17790741.40749 -13851336.90747  21667076.055    21667082.305
       239.000         197.000
  21401232.323     4209800.54449   3287017.65147  21401231.526    21401237.594
       241.000         204.000
  21750344.087   -14803228.52249 -11519980.10347  21750343.650    21750348.513
       240.000         199.000
  23439073.827   -12993930.38949 -10103997.86446  23439073.607    23439079.091
       221.000         165.000
  20761898.405   -11404822.08549  -8869232.31847  20761897.338    20761903.080
       245.000         212.000
  24648844.744    -4846943.25049  -3757568.90845  24648844.430    24648851.249
       213.000         152.000
 02  7 11 13 39 30.0000000  0  8G30G24G23G 5G 6G17G10G15
  20573792.606    -8453346.15949  -6579524.29948  20573792.620    20573797.119
       250.000         220.000
  23061786.825    12554462.72049   9776729.58246  23061786.058    23061793.558
       228.000         177.000
  21653237.439   -17863468.80149 -13908007.58647  21653236.856    21653242.689
       238.000         198.000
  21415416.513     4284338.82749   3345099.38147  21415415.846    21415421.630
       241.000         204.000
  21738608.651   -14864898.66549 -11568034.77247  21738608.065    21738613.249
       240.000         199.000
  23425207.071   -13066801.10949 -10160780.26846  23425206.017    23425212.845
       222.000         167.000
  20763318.191   -11397361.06849  -8863418.55447  20763317.275    20763322.948
       246.000         212.000
  24632020.582    -4935354.42349  -3826460.76445  24632020.227    24632026.604
       215.000         151.000
 02  7 11 13 40  0.0000000  0  8G30G24G23G 5G 6G17G10G15
  20577545.798    -8433622.94749  -6564155.59048  20577545.811    20577550.227
       250.000         219.000
  23076610.108    12632359.32449   9837428.15446  23076610.315    23076616.360
       227.000         175.000
  21639473.121   -17935800.65449 -13964370.05947  21639472.005    21639478.339
       239.000         198.000
  21429675.788     4359271.77749   3403488.64347  21429675.115    21429680.878
       241.000         204.000
  21726895.960   -14926449.30549 -11615996.31947  21726895.443    21726900.368
       240.000         199.000
  23411376.304   -13139482.38449 -10217415.05046  23411375.482    23411382.619
       223.000         166.000
  20764857.812   -11389270.44049  -8857114.19547  20764857.069    20764862.470
       246.000         212.000
  24615223.848    -5023622.33649  -3895241.01245  24615223.096    24615229.056
       216.000         149.000
 02  7 11 13 40 30.0000000  0  8G30G24G23G 5G 6G17G10G15
  20581410.805    -8413312.16749  -6548329.03948  20581410.946    20581415.566
       250.000         219.000
  23091439.496    12710287.89849   9898151.63446  23091438.860    23091445.574
       226.000         174.000
  21625784.923   -18007732.46249 -14020420.80547  21625784.111    21625790.205
       238.000         198.000
  21444010.208     4434599.45749   3462185.46747  21444009.661    21444015.459
       241.000         203.000
  21715206.533   -14987876.78049 -11663861.90047  21715206.176    21715211.550
       240.000         199.000
  23397581.922   -13211971.60449 -10273900.14646  23397580.982    23397587.662
       222.000         166.000
  20766517.636   -11380548.43349  -8850317.84947  20766516.450    20766522.613
       246.000         212.000
  24598454.863    -5111743.98049  -3963907.27345  24598454.234    24598461.270
       217.000         150.000
 02  7 11 13 41  0.0000000  0  8G30G24G23G 5G 6G17G10G15
  20585387.479    -8392414.81749  -6532045.42748  20585387.753    20585392.102
       250.000         219.000
  23106274.391    12788246.15349   9958898.25346  23106273.879    23106281.176
       228.000         174.000
  21612173.239   -18079262.43249 -14076158.43447  21612172.274    21612178.539
       238.000         198.000
  21458419.233     4510319.17649   3521187.78847  21458418.706    21458424.261
       241.000         203.000
  21703540.857   -15049180.29449 -11711630.88647  21703540.891    21703545.973
       241.000         200.000
  23383824.151   -13284268.92649 -10330235.72346  23383823.746    23383830.369
       221.000         167.000
  20768297.337   -11371195.90649  -8843030.17747  20768296.318    20768302.084
       246.000         212.000
  24581713.768    -5199718.87449  -4032459.19045  24581711.905    24581719.731
       215.000         147.000
 02  7 11 13 41 30.0000000  0  8G30G24G23G 5G 6G17G10G15
  20589475.438    -8370932.73949  -6515306.17648  20589475.573    20589479.923
       250.000         219.000
  23121114.829    12866231.76749  10019666.18646  23121114.865    23121121.695
       228.000         177.000
  21598638.167   -18150389.52549 -14131582.12647  21598637.424    21598643.935
       240.000         199.000
  21472902.246     4586427.43949   3580492.88347  21472901.530    21472907.391
       241.000         202.000
  21691898.994   -15110359.80549 -11759303.24447  21691898.871    21691903.891
       242.000         200.000
  23370102.781   -13356375.14649 -10386422.39246  23370101.735    23370108.612
       222.000         168.000
  20770196.722   -11361214.60049  -8835252.55247  20770195.743    20770201.361
       246.000         212.000
  24565000.485    -5287547.87049  -4100897.40445  24564999.195    24565005.528
       216.000         144.000
 02  7 11 13 42  0.0000000  0  8G30G24G23G 5G 6G17G10G15
  20593674.566    -8348866.15649  -6498111.48548  20593674.766    20593679.056
       249.000         219.000
  23135960.088    12944243.87549  10080454.74446  23135959.628    23135966.448
       227.000         176.000
  21585180.307   -18221111.16449 -14186689.88847  21585179.291    21585185.595
       239.000         199.000
  21487458.812     4662922.41149   3640099.29047  21487458.252    21487463.946
       241.000         203.000
  21680280.968   -15171413.46549 -11806877.54447  21680280.744    21680285.910
       241.000         200.000
  23356417.959   -13428289.72749 -10442459.74546  23356417.469    23356424.723
       221.000         168.000
  20772215.759   -11350604.63249  -8826985.07547  20772214.905    20772220.306
       246.000         212.000
  24548315.230    -5375229.95149  -4169221.21645  24548313.886    24548318.618
       211.000         139.000
 02  7 11 13 42 30.0000000  0  8G30G24G23G 5G 6G17G10G15
  20597984.757    -8326216.29849  -6480462.27148  20597984.762    20597989.184
       250.000         219.000
  23150810.075    13022280.97049  10141262.78246  23150809.548    23150816.744
       226.000         174.000
  21571799.894   -18291425.85349 -14241480.54347  21571799.014    21571805.147
       240.000         200.000
  21502088.430     4739801.47449   3700004.99247  21502087.794    21502093.412
       242.000         203.000
  21668686.883   -15232340.64449 -11854353.28847  21668686.151    21668691.633
       241.000         200.000
  23342769.413   -13500012.97549 -10498347.98046  23342768.428    23342774.971
       224.000         168.000
  20774354.174   -11339367.23749  -8818228.68347  20774353.175    20774358.935
       246.000         212.000
  24531657.830    -5462765.27449  -4237430.61845  24531656.907    24531663.353
       210.000         136.000
 02  7 11 13 43  0.0000000  0  8G30G24G23G 5G 6G17G10G15
  20602406.079    -8302982.00249  -6462357.66048  20602406.281    20602410.562
       249.000         219.000
  23165664.888    13100343.67049  10202090.77346  23165664.714    23165670.727
       228.000         173.000
  21558497.672   -18361329.46049 -14295950.87647  21558497.223    21558502.659
       239.000         200.000
  21516791.088     4817064.07549   3760209.57047  21516790.336    21516796.118
       241.000         202.000
  21657117.379   -15293138.16849 -11901727.99947  21657117.070    21657121.890
       240.000         200.000
  23329157.748   -13571542.82349 -10554085.53046  23329156.741    23329163.694
       223.000         169.000
  20776612.266   -11327501.21749  -8808982.44647  20776611.121    20776616.999
       246.000         212.000
  24515028.764    -5550151.26449  -4305523.64845  24515027.570    24515035.987
       208.000         133.000
 02  7 11 13 43 30.0000000  0  8G30G24G23G 5G 6G17G10G15
  20606938.121    -8279165.91549  -6443799.71248  20606938.244    20606942.680
       249.000         219.000
  23180524.147    13178428.87449  10262936.30646  23180524.017    23180530.546
       229.000         173.000
  21545273.703   -18430821.84449 -14350100.77647  21545273.048    21545279.145
       239.000         200.000
  21531565.916     4894706.04849   3820709.75147  21531565.248    21531571.107
       240.000         202.000
  21645572.619   -15353806.59549 -11949002.10847  21645572.272    21645577.078
       239.000         200.000
  23315582.597   -13642880.94249 -10609673.67046  23315581.929    23315588.367
       222.000         170.000
  20778989.479   -11315008.96149  -8799248.24547  20778988.506    20778994.231
       246.000         212.000
  24498427.871    -5637389.26149  -4373501.37145  24498427.282    24498433.294
       209.000         134.000
 02  7 11 13 44  0.0000000  0  8G30G24G23G 5G 6G17G10G15
  20611580.952    -8254768.01349  -6424788.39248  20611581.129    20611585.368
       249.000         219.000
  23195387.486    13256536.31449  10323799.15246  23195386.768    23195394.813
       229.000         174.000
  21532128.527   -18499900.02949 -14403927.92747  21532127.898    21532134.110
       239.000         200.000
  21546412.624     4972725.68249   3881504.21947  21546411.899    21546417.958
       241.000         201.000
  21634052.783   -15414343.73149 -11996173.90847  21634052.357    21634057.324
       240.000         200.000
  23302044.113   -13714026.30549 -10665111.62046  23302043.991    23302050.124
       223.000         169.000
  20781485.899   -11301890.10349  -8789025.77747  20781485.387    20781490.670
       246.000         212.000
  24481855.396    -5724477.76749  -4441362.64445  24481854.155    24481861.278
       206.000         134.000
 02  7 11 13 44 30.0000000  0  8G30G24G23G 5G 6G17G10G15
  20616334.534    -8229788.04449  -6405323.51548  20616334.639    20616339.210
       249.000         219.000
  23210255.066    13334665.67349  10384679.12546  23210255.574    23210262.874
       228.000         173.000
  21519062.777   -18568560.90749 -14457429.90047  21519062.163    21519068.131
       239.000         200.000
  21561330.987     5051121.66749   3942591.95147  21561330.352    21561336.105
       240.000         201.000
  21622558.327   -15474747.39849 -12043241.71047  21622557.895    21622563.271
       240.000         201.000
  23288542.429   -13784977.79649 -10720398.50046  23288541.608    23288548.362
       224.000         170.000
  20784101.651   -11288144.68549  -8778315.08147  20784100.537    20784106.253
       246.000         212.000
  24465311.530    -5811415.53949  -4509106.40745  24465311.098    24465319.213
       206.000         134.000
 02  7 11 13 45  0.0000000  0  8G30G24G23G 5G 6G17G10G15
  20621198.305    -8204228.97049  -6385407.39948  20621198.321    20621202.857
       249.000         218.000
  23225126.205    13412813.61349  10445573.52946  23225125.640    23225134.052
       225.000         172.000
  21506076.502   -18636804.35649 -14510606.61147  21506075.754    21506082.011
       239.000         200.000
  21576320.067     5129889.74149   4003969.62147  21576319.165    21576324.948
       241.000         201.000
  21611089.148   -15535018.11149 -12090205.91747  21611088.615    21611094.087
       240.000         201.000
  23275077.486   -13855737.14649 -10775535.65746  23275077.119    23275083.770
       225.000         171.000
  20786836.011   -11273775.50149  -8767118.34147  20786834.854    20786840.809
       245.000         212.000
  24448796.312    -5898203.76849  -4576733.64145  24448796.460    24448803.429
       206.000         135.000
 02  7 11 13 45 30.0000000  0  8G30G24G23G 5G 6G17G10G15
  20626172.479    -8178089.51649  -6365039.02248  20626172.418    20626177.063
       249.000         218.000
  23240000.829    13490980.93949  10506483.01546  23240000.053    23240007.732
       223.000         171.000
  21493170.398   -18704626.43649 -14563454.97947  21493169.748    21493175.842
       239.000         200.000
  21591379.827     5209029.37249   4065636.79547  21591379.089    21591384.955
       240.000         201.000
  21599646.006   -15595152.70849 -12137064.05247  21599645.686    21599650.974
       240.000         201.000
  23261649.463   -13926302.26549 -10830521.46546  23261648.276    23261654.981
       224.000         171.000
  20789689.322   -11258781.28549  -8755434.55247  20789688.428    20789694.382
       246.000         212.000
  24432309.978    -5984839.80449  -4644242.28245  24432309.194    24432316.958
       205.000         138.000
 02  7 11 13 46  0.0000000  0  8G30G24G23G 5G 6G17G10G15
  20631256.705    -8151371.95649  -6344220.18348  20631256.778    20631261.214
       249.000         218.000
  23254878.889    13569165.66049  10567406.09746  23254878.513    23254885.882
       226.000         171.000
  21480344.533   -18772026.44649 -14615974.45147  21480343.757    21480349.850
       239.000         200.000
  21606509.663     5288536.96349   4127590.69547  21606508.955    21606514.520
       239.000         200.000
  21588228.771   -15655151.02349 -12183815.99747  21588228.510    21588233.225
       240.000         201.000
  23248258.034   -13996674.34149 -10885356.84746  23248257.626    23248263.323
       225.000         171.000
  20792661.222   -11243163.98749  -8743265.25747  20792660.091    20792665.938
       245.000         212.000
  24415852.371    -6071324.68349  -4711633.13345  24415852.567    24415859.124
       210.000         142.000
 02  7 11 13 46 30.0000000  0  8G30G24G23G 5G 6G17G10G15
  20636450.836    -8124076.65849  -6322951.15848  20636451.012    20636455.470
       249.000         218.000
  23269760.275    13647366.97249  10628342.10746  23269760.390    23269767.271
       228.000         171.000
  21467599.618   -18839001.75249 -14668162.99247  21467598.891    21467604.722
       240.000         201.000
  21621709.149     5368410.67849   4189829.86947  21621708.373    21621714.445
       239.000         200.000
  21576837.744   -15715011.20449 -12230460.31347  21576837.116    21576842.246
       240.000         201.000
  23234903.579   -14066852.42649 -10940041.07546  23234903.221    23234909.250
       227.000         172.000
  20795751.535   -11226924.05949  -8730610.79147  20795750.561    20795756.445
       246.000         212.000
  24399423.883    -6157657.52349  -4778905.51945  24399422.741    24399430.419
       209.000         144.000
 02  7 11 13 47  0.0000000  0  8G30G24G23G 5G 6G17G10G15
  20641754.580    -8096205.28349  -6301233.23848  20641754.701    20641759.228
       249.000         218.000
  23284644.498    13725582.92549  10689289.51346  23284644.846    23284651.505
       227.000         170.000
  21454935.651   -18905551.09149 -14720019.61147  21454934.668    21454941.103
       240.000         201.000
  21636977.702     5448647.15949   4252351.71947  21636977.252    21636983.201
       239.000         200.000
  21565473.087   -15774732.67549 -12276996.54147  21565472.764    21565477.673
       240.000         201.000
  23221585.929   -14136837.47549 -10994574.88746  23221585.121    23221591.391
       225.000         172.000
  20798960.100   -11210063.20349  -8717472.48647  20798958.940    20798964.825
       246.000         212.000
  24383024.140    -6243838.70449  -4846059.73545  24383023.884    24383030.462
       213.000         146.000
 02  7 11 13 47 30.0000000  0  8G30G24G23G 5G 6G17G10G15
  20647167.794    -8067758.77949  -6279067.16248  20647168.113    20647172.375
       250.000         218.000
  23299531.108    13803812.26849  10750247.37846  23299530.591    23299538.846
       224.000         168.000
  21442353.153   -18971672.53749 -14771542.80847  21442352.498    21442358.534
       240.000         201.000
  21652314.843     5529244.21349   4315154.55247  21652314.125    21652320.048
       239.000         199.000
  21554135.139   -15834314.06649 -12323423.59747  21554135.003    21554140.030
       240.000         202.000
  23208304.998   -14206629.07749 -11048957.96146  23208304.855    23208311.310
       225.000         171.000
  20802286.622   -11192582.27149  -8703850.99847  20802285.797    20802291.442
       246.000         211.000
  24366653.653    -6329867.25949  -4913095.02745  24366653.357    24366660.605
       212.000         149.000
 02  7 11 13 48  0.0000000  0  8G30G24G23G 5G 6G17G10G15
  20652690.726    -8038735.96349  -6256452.01148  20652690.800    20652695.286
       249.000         218.000
  23314420.408    13882056.51649  10811216.84646  23314420.083    23314427.173
       223.000         168.000
  21429852.913   -19037361.78949 -14822729.23147  21429852.112    21429858.223
       240.000         201.000
  21667720.600     5610201.57349   4378238.13447  21667719.950    21667725.726
       239.000         199.000
  21542824.612   -15893751.88449 -12369738.78747  21542824.043    21542829.352
       241.000         202.000
  23195061.209   -14276225.22249 -11103188.70646  23195060.774    23195066.606
       224.000         171.000
  20805731.437   -11174480.00049  -8689745.36447  20805730.443    20805736.250
       246.000         212.000
  24350312.589    -6415740.49849  -4980009.27145  24350312.599    24350319.414
       215.000         151.000
 02  7 11 13 48 30.0000000  0  8G30G24G23G 5G 6G17G10G15
  20658322.683    -8009139.99349  -6233390.25748  20658322.821    20658327.404
       250.000         218.000
  23329311.976    13960312.01049  10872195.04546  23329312.603    23329319.192
       228.000         169.000
  21417434.850   -19102619.11149 -14873579.09447  21417434.169    21417440.357
       240.000         201.000
  21683193.999     5691514.66449   4441598.90047  21683193.557    21683199.286
       240.000         199.000
  21531541.140   -15953046.99249 -12415942.77847  21531540.455    21531545.810
       242.000         202.000
  23181854.343   -14345627.56149 -11157268.45946  23181853.837    23181859.663
       224.000         171.000
  20809293.837   -11155759.35949  -8675157.88247  20809292.876    20809298.770
       245.000         211.000
  24334000.832    -6501460.44449  -5046804.06045  24334001.551    24334007.916
       218.000         153.000
 02  7 11 13 49  0.0000000  0  8G30G24G23G 5G 6G17G10G15
  20664063.702    -7978971.23549  -6209882.16448  20664063.816    20664068.276
       250.000         218.000
  23344205.875    14038578.41349  10933181.75746  23344204.943    23344213.339
       224.000         169.000
  21405099.488   -19167441.76549 -14924090.23947  21405098.758    21405104.555
       240.000         202.000
  21698734.795     5773181.63949   4505235.43947  21698734.289    21698739.804
       241.000         199.000
  21520285.227   -16012197.15749 -12462033.82947  21520284.837    21520289.783
       241.000         202.000
  23168684.522   -14414835.50849 -11211196.73046  23168684.434    23168690.834
       224.000         170.000
  20812973.854   -11136420.55549  -8660088.70447  20812972.919    20812978.952
       246.000         211.000
  24317718.409    -6587025.80349  -5113478.39445  24317718.204    24317725.054
       216.000         154.000
 02  7 11 13 49 30.0000000  0  8G30G24G23G 5G 6G17G10G15
  20669913.528    -7948230.42649  -6185928.32748  20669913.547    20669918.121
       249.000         218.000
  23359101.320    14116855.05049  10994176.44546  23359101.391    23359108.472
       225.000         167.000
  21392847.279   -19231827.53549 -14974260.96947  21392846.630    21392852.562
       241.000         202.000
  21714342.527     5855200.48849   4569146.16547  21714341.934    21714347.934
       240.000         199.000
  21509057.128   -16071200.89049 -12508010.77947  21509056.620    21509061.719
       241.000         203.000
  23155551.737   -14483848.68949 -11264973.24446  23155551.096    23155558.014
       223.000         170.000
  20816771.386   -11116464.45149  -8644538.52247  20816770.630    20816776.349
       246.000         211.000
  24301465.380    -6672435.79949  -5180031.65945  24301465.436    24301471.919
       217.000         155.000
 02  7 11 13 50  0.0000000  0  8G30G24G23G 5G 6G17G10G15
  20675871.929    -7916918.88449  -6161529.76148  20675871.922    20675876.357
       248.000         217.000
  23373998.543    14195140.27049  11055177.85146  23373998.108    23374004.279
       224.000         166.000
  21380678.517   -19295774.67849 -15024089.90247  21380677.875    21380683.853
       241.000         203.000
  21730016.669     5937568.32449   4633328.82947  21730016.073    21730021.968
       241.000         199.000
  21497857.229   -16130056.83849 -12553872.56447  21497857.033    21497861.974
       241.000         203.000
  23142456.097   -14552666.91149 -11318597.82746  23142455.471    23142461.937
       224.000         171.000
  20820686.216   -11095892.26449  -8628508.28147  20820685.290    20820691.009
       245.000         211.000
  24285242.174    -6757690.20249  -5246463.71645  24285241.717    24285248.351
       218.000         156.000
 02  7 11 13 50 30.0000000  0  8G30G24G23G 5G 6G17G10G15
  20681938.874    -7885037.00249  -6136686.77448  20681939.062    20681943.494
       250.000         217.000
  23388897.445    14273433.91749  11116185.80246  23388898.003    23388904.705
       226.000         166.000
  21368593.663   -19359280.96049 -15073575.31347  21368593.331    21368598.842
       242.000         204.000
  21745756.828     6020283.19449   4697781.88947  21745756.316    21745762.389
       240.000         199.000
  21486685.898   -16188763.13349 -12599617.73447  21486685.417    21486690.559
       241.000         203.000
  23129397.479   -14621289.87349 -11372070.25646  23129396.602    23129403.582
       223.000         170.000
  20824718.119   -11074704.42849  -8611998.30647  20824717.198    20824723.045
       245.000         211.000
  24269048.702    -6842787.91249  -5312773.65245  24269048.128    24269055.052
       216.000         156.000
 02  7 11 13 51  0.0000000  0  8G30G24G23G 5G 6G17G10G15
  20688113.807    -7852587.73349  -6111401.66448  20688113.737    20688118.213
       249.000         217.000
  23403797.559    14351733.12649  11177198.07946  23403798.288    23403804.295
       225.000         168.000
  21356592.851   -19422345.98449 -15122716.88447  21356592.099    21356597.969
       241.000         204.000
  21761562.339     6103340.93649   4762502.12047  21761561.794    21761567.623
       240.000         198.000
  21475542.839   -16247319.98549 -12645246.45847  21475542.192    21475547.597
       241.000         203.000
  23116375.883   -14689719.01149 -11425391.67246  23116375.476    23116382.169
       225.000         171.000
  20828866.700   -11052903.69349  -8595010.75347  20828865.906    20828871.608
       246.000         211.000
  24252884.835    -6927730.14849  -5378962.43945  24252884.308    24252890.822
       216.000         155.000
 02  7 11 13 51 30.0000000  0  8G30G24G23G 5G 6G17G10G15
  20694396.797    -7819570.16049  -6085673.72848  20694396.967    20694401.394
       249.000         217.000
  23418698.724    14430039.08849  11238215.61446  23418700.041    23418705.589
       227.000         168.000
  21344676.675   -19484965.95649 -15171511.66647  21344676.038    21344681.591
       242.000         204.000
  21777432.903     6186741.14349   4827489.22747  21777432.237    21777438.085
       240.000         197.000
  21464428.827   -16305724.02249 -12690756.09747  21464428.435    21464433.883
       241.000         203.000
  23103391.622   -14757952.24149 -11478560.42046  23103390.985    23103397.935
       224.000         172.000
  20833132.075   -11030489.22049  -8577544.95947  20833131.053    20833136.876
       246.000         211.000
  24236750.907    -7012514.46049  -5445028.16745  24236750.197    24236757.662
       217.000         153.000
 02  7 11 13 52  0.0000000  0  8G30G24G23G 5G 6G17G10G15
  20700787.441    -7785987.08249  -6059505.13748  20700787.613    20700792.176
       249.000         217.000
  23433600.701    14508349.22849  11299236.42446  23433601.016    23433608.383
       225.000         169.000
  21332845.248   -19547140.52749 -15219959.38247  21332844.669    21332850.645
       242.000         204.000
  21793367.869     6270479.89749   4892740.14447  21793367.346    21793373.347
       240.000         197.000
  21453343.967   -16363975.40649 -12736146.79147  21453343.459    21453348.937
       242.000         204.000
  23090444.306   -14825990.96149 -11531577.61346  23090443.549    23090449.683
       224.000         172.000
  20837513.683   -11007463.91049  -8559603.19347  20837512.880    20837518.506
       245.000         211.000
  24220646.937    -7097142.24149  -5510971.94745  24220646.785    24220652.990
       214.000         152.000
 02  7 11 13 52 30.0000000  0  8G30G24G23G 5G 6G17G10G15
  20707285.962    -7751837.42249  -6032895.04048  20707286.184    20707290.537
       249.000         217.000
  23448503.662    14586664.60649  11360261.28346  23448504.178    23448510.603
       225.000         169.000
  21321099.383   -19608865.74449 -15268056.94347  21321098.381    21321104.519
       242.000         205.000
  21809367.240     6354556.98549   4958254.71247  21809366.400    21809372.647
       239.000         197.000
  21442288.838   -16422070.50049 -12781415.70547  21442288.732    21442293.735
       242.000         204.000
  23077534.314   -14893832.86149 -11584441.42946  23077533.466    23077540.429
       224.000         172.000
  20842011.751   -10983826.35049  -8541184.34547  20842010.636    20842016.796
       245.000         211.000
  24204573.197    -7181610.57349  -5576791.45645  24204572.423    24204578.665
       212.000         151.000
 02  7 11 13 53  0.0000000  0  8G30G24G23G 5G 6G17G10G15
  20713891.670    -7717124.56349  -6005846.09548  20713891.811    20713896.242
       249.000         217.000
  23463407.068    14664981.98049  11421287.71046  23463407.071    23463413.865
       225.000         168.000
  21309438.847   -19670141.81049 -15315804.51647  21309438.133    21309444.023
       243.000         205.000
  21825430.082     6438967.58049   5024029.13447  21825429.759    21825435.484
       239.000         197.000
  21431263.344   -16480009.94449 -12826563.32347  21431263.235    21431268.157
       242.000         204.000
  23064661.549   -14961480.11449 -11637153.58146  23064660.738    23064667.450
       225.000         173.000
  20846625.647   -10959580.06849  -8522291.16447  20846624.952    20846630.735
       245.000         211.000
  24188529.367    -7265920.96749  -5642487.90445  24188527.891    24188535.598
       211.000         147.000
 02  7 11 13 53 30.0000000  0  8G30G24G23G 5G 6G17G10G15
  20720604.516    -7681848.32549  -5978358.15448  20720604.494    20720609.158
       249.000         217.000
  23478310.884    14743301.79849  11482316.05246  23478311.133    23478318.657
       223.000         166.000
  21297864.508   -19730965.50549 -15363199.59747  21297863.626    21297869.806
       242.000         205.000
  21841556.190     6523710.71149   5090062.67147  21841555.656    21841561.537
       240.000         196.000
  21420268.049   -16537790.73949 -12871587.32247  21420267.387    21420272.780
       241.000         204.000
  23051826.048   -15028931.03449 -11689712.73746  23051825.423    23051831.079
       224.000         173.000
  20851355.531   -10934724.54149  -8502923.24447  20851354.358    20851360.635
       245.000         211.000
  24172516.116    -7350071.64949  -5708059.88745  24172515.556    24172522.567
       212.000         145.000
 02  7 11 13 54  0.0000000  0  8G30G24G23G 5G 6G17G10G15
  20727424.096    -7646011.31249  -5950433.24348  20727424.263    20727428.873
       249.000         217.000
  23493214.925    14821621.93849  11543344.62246  23493214.086    23493222.142
       223.000         167.000
  21286376.303   -19791336.42549 -15410241.86847  21286375.459    21286381.511
       242.000         205.000
  21857744.866     6608782.48049   5156352.28447  21857744.209    21857750.060
       239.000         196.000
  21409302.822   -16595412.82949 -12916487.66447  21409302.268    21409307.850
       241.000         204.000
  23039027.668   -15096187.12449 -11742120.08246  23039026.834    23039032.901
       225.000         174.000
  20856200.801   -10909262.49749  -8483082.72047  20856200.053    20856205.933
       246.000         211.000
  24156532.970    -7434063.92149  -5773508.45545  24156532.181    24156539.573
       209.000         143.000
 02  7 11 13 54 30.0000000  0  8G30G24G23G 5G 6G17G10G15
  20734350.288    -7609613.98949  -5922071.72148  20734350.398    20734354.966
       248.000         217.000
  23508118.791    14899942.13249  11604373.27046  23508119.138    23508126.187
       225.000         170.000
  21274974.735   -19851251.99849 -15456929.31947  21274973.842    21274980.047
       242.000         206.000
  21873995.742     6694181.10849   5222896.60947  21873995.628    21874001.031
       239.000         196.000
  21398368.287   -16652874.05549 -12961262.64147  21398368.058    21398373.361
       242.000         205.000
  23026266.544   -15163247.50249 -11794374.92246  23026265.358    23026272.405
       225.000         174.000
  20861161.431   -10883194.34049  -8462769.89247  20861160.509    20861166.563
       245.000         211.000
  24140580.289    -7517896.51949  -5838832.56145  24140578.515    24140586.422
       210.000         141.000
 02  7 11 13 55  0.0000000  0  8G30G24G23G 5G 6G17G10G15
  20741382.845    -7572657.64149  -5893274.60548  20741382.750    20741387.541
       248.000         216.000
  23523022.481    14978261.13749  11665400.94346  23523022.960    23523030.314
       226.000         171.000
  21263660.152   -19910710.52549 -15503260.63647  21263659.615    21263665.486
       243.000         206.000
  21890308.336     6779903.86949   5289693.47947  21890307.935    21890313.552
       238.000         195.000
  21387464.792   -16710172.98649 -13005911.16847  21387464.606    21387469.760
       243.000         205.000
  23013542.602   -15230112.13549 -11846477.23246  23013541.956    23013549.060
       226.000         175.000
  20866237.157   -10856521.46949  -8441985.87247  20866236.415    20866242.210
       245.000         211.000
  24124657.798    -7601568.83849  -5904031.80745  24124658.486    24124663.156
       209.000         140.000
 02  7 11 13 55 30.0000000  0  8G30G24G23G 5G 6G17G10G15
  20748521.584    -7535143.45949  -5864042.80648  20748521.827    20748526.489
       249.000         217.000
  23537925.901    15056578.60349  11726427.43946  23537925.613    23537932.796
       223.000         171.000
  21252432.985   -19969709.86849 -15549234.14447  21252432.387    21252438.204
       242.000         206.000
  21906682.171     6865948.59749   5356741.24047  21906682.000    21906687.619
       238.000         194.000
  21376592.463   -16767307.83949 -13050431.82847  21376592.183    21376597.274
       242.000         205.000
  23000856.012   -15296780.68449 -11898426.74046  23000855.549    23000861.692
       225.000         175.000
  20871427.729   -10829245.00649  -8420731.50147  20871426.902    20871432.797
       245.000         211.000
  24108766.117    -7685080.15349  -5969105.56845  24108763.310    24108772.186
       208.000         139.000
 02  7 11 13 56  0.0000000  0  8G30G24G23G 5G 6G17G10G15
  20755766.326    -7497072.52449  -5834377.19248  20755766.402    20755771.021
       248.000         217.000
  23552828.851    15134893.29249  11787451.74146  23552827.907    23552836.275
       222.000         168.000
  21241293.502   -20028248.16249 -15594848.39347  21241292.819    21241298.824
       242.000         206.000
  21923116.791     6952312.82149   5424037.94147  21923116.352    21923122.255
       238.000         194.000
  21365751.550   -16824277.07349 -13094823.44647  21365751.178    21365756.341
       242.000         205.000
  22988206.755   -15363252.96649 -11950223.31446  22988206.076    22988212.028
       224.000         175.000
  20876733.006   -10801365.88049  -8399007.53647  20876732.089    20876737.818
       245.000         211.000
  24092905.155    -7768429.94849  -6034053.47745  24092905.309    24092910.675
       216.000         140.000
 02  7 11 13 56 30.0000000  0  8G30G24G23G 5G 6G17G10G15
  20763116.532    -7458447.14749  -5804279.52948  20763116.683    20763121.053
       249.000         216.000
  23567730.805    15213203.83549  11848472.83246  23567729.780    23567738.300
       219.000         165.000
  21230241.913   -20086324.71949 -15640102.84747  21230241.120    21230247.341
       242.000         206.000
  21939611.543     7038993.05449   5491580.89747  21939610.873    21939616.985
       237.000         193.000
  21354942.360   -16881080.03249 -13139085.49447  21354942.011    21354947.035
       243.000         205.000
  22975594.621   -15429529.80449 -12001867.60346  22975594.167    22975600.467
       226.000         176.000
  20882152.451   -10772886.51349  -8376815.84747  20882151.527    20882157.481
       246.000         211.000
  24077075.098    -7851618.84049  -6098876.01545  24077074.288    24077082.063
       216.000         144.000
 02  7 11 13 57  0.0000000  0  9G30G24G23G29G 5G 6G17G10G15
  20770571.924    -7419268.77349  -5773750.96748  20770571.832    20770576.790
       248.000         216.000
  23582631.605    15291509.15349  11909489.84246  23582631.204    23582638.724
       222.000         164.000
  21219278.492   -20143937.75949 -15684996.12147  21219277.950    21219283.788
       242.000         206.000
  24655384.156    -4157101.96649  -3222027.26745  24655383.653    24655393.467
       212.000         151.000
  21956165.957     7125986.90749   5559368.24047  21956165.533    21956171.495
       238.000         193.000
  21344165.015   -16937715.14249 -13183216.75647  21344164.323    21344169.143
       242.000         205.000
  22963019.793   -15495611.11949 -12053359.52446  22963018.953    22963025.590
       224.000         176.000
  20887685.941   -10743808.21849  -8354157.46247  20887685.186    20887690.859
       245.000         211.000
  24061275.381    -7934646.34049  -6163572.81045  24061274.296    24061281.456
       215.000         147.000
 02  7 11 13 57 30.0000000  0  9G30G24G23G29G 5G 6G17G10G15
  20778132.519    -7379537.28449  -5742791.39848  20778132.688    20778137.490
       248.000         216.000
  23597531.856    15369809.46349  11970502.97046  23597532.268    23597539.054
       222.000         164.000
  21208403.898   -20201084.16449 -15729525.78147  21208403.128    21208409.295
       242.000         206.000
  24641220.016    -4231536.15149  -3280027.98045  24641220.678    24641229.407
       216.000         154.000
  21972779.866     7213293.12449   5627398.97847  21972779.221    21972785.291
       238.000         193.000
  21333420.105   -16994179.58849 -13227215.03347  21333419.791    21333424.781
       242.000         205.000
  22950482.361   -15561495.43849 -12104697.95346  22950480.823    22950488.540
       226.000         176.000
  20893333.419   -10714130.66649  -8331032.12847  20893332.317    20893338.424
       245.000         211.000
  24045506.887    -8017510.72349  -6228142.47345  24045505.603    24045512.982
       218.000         150.000
 02  7 11 13 58  0.0000000  0  9G30G24G23G29G 5G 6G17G10G15
  20785797.866    -7339255.65849  -5711403.15748  20785798.141    20785802.845
       249.000         216.000
  23612430.666    15448102.90249  12031510.74445  23612430.574    23612437.105
       220.000         162.000
  21197618.120   -20257763.73849 -15773691.66947  21197617.345    21197623.665
       242.000         206.000
  24627057.626    -4305961.05449  -3338021.46245  24627056.474    24627067.006
       212.000         152.000
  21989452.460     7300907.69649   5695669.99647  21989451.969    21989458.135
       237.000         194.000
  21322707.846   -17050473.36949 -13271080.32147  21322707.607    21322712.787
       242.000         206.000
  22937982.245   -15627184.25049 -12155884.03746  22937981.576    22937988.517
       226.000         177.000
  20899094.320   -10683856.85849  -8307442.16547  20899093.279    20899099.384
       245.000         210.000
  24029769.239    -8100213.13749  -6292585.92045  24029767.818    24029776.485
       217.000         152.000
 02  7 11 13 58 30.0000000  0  9G30G24G23G29G 5G 6G17G10G15
  20793567.911    -7298423.94149  -5679586.27448  20793568.132    20793572.767
       249.000         216.000
  23627328.193    15526389.59049  12092513.24745  23627328.461    23627335.799
       220.000         162.000
  21186921.759   -20313973.49649 -15817491.46947  21186921.050    21186926.814
       241.000         206.000
  24612897.390    -4380372.69849  -3396004.59745  24612897.156    24612906.842
       212.000         150.000
  22006183.528     7388829.30849   5764180.26847  22006182.667    22006189.028
       237.000         194.000
  21312028.605   -17106593.64649 -13314810.40847  21312028.040    21312033.862
       241.000         206.000
  22925519.537   -15692676.25949 -12206916.74546  22925518.574    22925525.288
       226.000         176.000
  20904968.625   -10652987.27749  -8283387.97647  20904967.562    20904973.697
       245.000         211.000
  24014062.567    -8182751.86649  -6356901.83145  24014061.331    24014068.143
       218.000         153.000
 02  7 11 13 59  0.0000000  0  9G30G24G23G29G 5G 6G17G10G15
  20801442.306    -7257044.21249  -5647342.36448  20801442.541    20801446.856
       248.000         216.000
  23642224.374    15604668.00549  12153509.29045  23642224.189    23642232.903
       220.000         162.000
  21176314.936   -20369712.46049 -15860924.42047  21176314.183    21176320.312
       244.000         207.000
  24598740.377    -4454768.57849  -3453975.43945  24598740.386    24598749.442
       215.000         150.000
  22022972.400     7477054.93749   5832927.43347  22022971.974    22022977.946
       236.000         193.000
  21301382.438   -17162539.16149 -13358404.32847  21301381.960    21301387.203
       242.000         206.000
  22913094.160   -15757971.93649 -12257796.50046  22913093.735    22913100.234
       226.000         177.000
  20910955.934   -10621523.63149  -8258870.87147  20910954.807    20910961.002
       245.000         210.000
  23998386.998    -8265126.85349  -6421090.13945  23998386.203    23998393.648
       218.000         156.000
 02  7 11 13 59 30.0000000  0  9G30G24G23G29G 5G 6G17G10G15
  20809420.594    -7215118.10949  -5614672.71848  20809420.768    20809425.269
       249.000         216.000
  23657118.765    15682937.22249  12214498.15446  23657118.238    23657125.263
       219.000         163.000
  21165798.072   -20424979.01349 -15903989.25047  21165797.253    21165803.601
       243.000         207.000
  24584586.904    -4529146.10349  -3511931.94745  24584586.585    24584594.527
       214.000         145.000
  22039818.520     7565581.73049   5901909.25747  22039817.612    22039824.100
       236.000         192.000
  21290769.674   -17218308.72049 -13401861.13347  21290769.457    21290774.195
       242.000         206.000
  22900706.259   -15823071.28549 -12308523.23846  22900704.872    22900711.716
       225.000         177.000
  20917056.016   -10589467.36449  -8233891.98747  20917055.284    20917060.793
       246.000         210.000
  23982742.767    -8347337.88549  -6485150.68945  23982742.493    23982749.548
       220.000         157.000
 02  7 11 14  0  0.0000000  0  9G30G24G23G29G 5G 6G17G10G15
  20817502.700    -7172646.66149  -5581578.12548  20817503.023    20817507.744
       249.000         216.000
  23672011.078    15761196.93049  12275479.62346  23672010.818    23672018.285
       221.000         163.000
  21155371.449   -20479771.15349 -15946684.41847  21155370.652    21155377.118
       243.000         207.000
  24570437.461    -4603501.80249  -3569871.45145  24570437.190    24570447.140
       212.000         140.000
  22056721.532     7654407.54349   5971124.08747  22056720.840    22056727.160
       236.000         192.000
  21280191.027   -17273900.34149 -13445179.28047  21280191.070    21280195.872
       243.000         206.000
  22888355.584   -15887974.10349 -12359096.85946  22888355.731    22888362.213
       225.000         176.000
  20923268.744   -10556819.76049  -8208452.32747  20923267.883    20923273.904
       245.000         210.000
  23967130.012    -8429384.05349  -6549082.76245  23967129.062    23967136.534
       217.000         159.000
 02  7 11 14  0 30.0000000  0  9G30G24G23G29G 5G 6G17G10G15
  20825688.023    -7129632.64549  -5548060.75048  20825688.136    20825692.763
       249.000         216.000
  23686901.235    15839445.12249  12336452.12545  23686901.719    23686909.263
       222.000         162.000
  21145035.191   -20534088.40249 -15989009.53447  21145034.527    21145040.512
       243.000         207.000
  24556292.477    -4677834.07649  -3627792.71645  24556292.413    24556302.572
       214.000         140.000
  22073680.703     7743528.56949   6040568.95847  22073680.039    22073686.212
       235.000         191.000
  21269646.339   -17329313.60649 -13488358.45047  21269645.961    21269651.205
       242.000         206.000
  22876042.224   -15952681.35349 -12409518.08546  22876041.726    22876048.332
       225.000         176.000
  20929593.400   -10523583.52349  -8182553.97647  20929592.694    20929598.771
       246.000         211.000
  23951548.370    -8511266.15149  -6612886.99945  23951547.259    23951554.877
       220.000         160.000
 02  7 11 14  1  0.0000000  0  9G30G24G23G29G 5G 6G17G10G15
  20833976.725    -7086075.58549  -5514120.23148  20833976.858    20833981.462
       248.000         215.000
  23701789.620    15917682.99549  12397416.58745  23701789.832    23701797.385
       223.000         162.000
  21134789.998   -20587927.33949 -16030961.94547  21134789.180    21134795.293
       243.000         208.000
  24542153.047    -4752138.20449  -3685692.02145  24542151.802    24542162.033
       212.000         143.000
  22090695.960     7832944.41649   6110243.56047  22090695.780    22090701.331
       236.000         191.000
  21259136.047   -17384545.00849 -13531395.91747  21259135.837    21259141.189
       243.000         207.000
  22863766.442   -16017191.18449 -12459785.49146  22863765.914    22863772.404
       225.000         177.000
  20936030.241   -10489758.06549  -8156196.50847  20936029.448    20936035.206
       245.000         211.000
  23935998.385    -8592982.03649  -6676561.69945  23935997.444    23936005.764
       218.000         154.000
 02  7 11 14  1 30.0000000  0  9G30G24G23G29G 5G 6G17G10G15
  20842368.180    -7041978.38749  -5479758.82148  20842368.349    20842373.168
       248.000         215.000
  23716675.616    15995908.44849  12458371.39946  23716675.847    23716682.170
       221.000         163.000
  21124635.828   -20641287.62349 -16072541.37447  21124635.000    21124641.048
       243.000         208.000
  24528019.097    -4826412.24349  -3743567.90945  24528018.146    24528027.504
       211.000         141.000
  22107766.721     7922651.14049   6180144.83347  22107765.872    22107772.266
       235.000         190.000
  21248660.583   -17439594.21249 -13574291.40747  21248660.548    21248665.362
       243.000         207.000
  22851527.949   -16081504.67149 -12509899.88846  22851527.127    22851534.048
       227.000         177.000
  20942578.559   -10455346.31249  -8129382.18147  20942577.695    20942583.572
       245.000         210.000
  23920479.828    -8674532.37649  -6740107.42245  23920479.407    23920485.939
       215.000         153.000
 02  7 11 14  2  0.0000000  0  9G30G24G23G29G 5G 6G17G10G15
  20850861.986    -6997343.43749  -5444978.38148  20850862.218    20850866.966
       249.000         216.000
  23731558.671    16074119.40149  12519314.89845  23731558.114    23731565.915
       221.000         161.000
  21114572.913   -20694168.63749 -16113747.35147  21114572.346    21114578.204
       242.000         207.000
  24513891.126    -4900654.51749  -3801419.03145  24513890.637    24513898.776
       205.000         138.000
  22124892.061     8012645.16049   6250269.96547  22124891.936    22124897.512
       234.000         189.000
  21238219.948   -17494460.58949 -13617044.43447  21238219.617    21238224.501
       243.000         207.000
  22839326.688   -16145622.78749 -12559862.06046  22839325.604    22839332.283
       226.000         177.000
  20949238.028   -10420350.73249  -8102112.92347  20949237.105    20949243.181
       245.000         210.000
  23904992.654    -8755917.84849  -6803524.67445  23904992.038    23905000.324
       220.000         152.000
 02  7 11 14  2 30.0000000  0  9G30G24G23G29G 5G 6G17G10G15
  20859458.041    -6952171.34449  -5409779.39248  20859458.258    20859462.866
       248.000         216.000
  23746439.008    16152316.06949  12580247.24245  23746439.722    23746447.186
       223.000         162.000
  21104601.672   -20746567.93949 -16154577.96447  21104600.919    21104606.846
       243.000         207.000
  24499770.194    -4974860.92049  -3859242.18945  24499769.602    24499780.375
       204.000         137.000
  22142071.748     8102924.87949   6320617.72947  22142071.213    22142077.678
       234.000         189.000
  21227814.583   -17549141.44849 -13659652.91147  21227814.390    21227819.163
       244.000         207.000
  22827162.774   -16209544.64449 -12609671.29846  22827161.675    22827168.625
       225.000         177.000
  20956008.530   -10384771.69949  -8074389.02447  20956007.648    20956013.589
       245.000         210.000
  23889537.113    -8837137.14049  -6866812.42345  23889536.208    23889543.207
       218.000         152.000
 02  7 11 14  3  0.0000000  0  9G30G24G23G29G 5G 6G17G10G15
  20868156.087    -6906463.11149  -5374162.63448  20868156.166    20868160.928
       248.000         215.000
  23761316.800    16230498.59349  12641168.54046  23761317.162    23761325.414
       221.000         164.000
  21094722.508   -20798483.35649 -16195031.51947  21094721.918    21094727.921
       243.000         208.000
  24485656.490    -5049027.95549  -3917034.64245  24485656.663    24485667.196
       206.000         136.000
  22159305.416     8193488.23849   6391186.51247  22159305.292    22159311.084
       234.000         188.000
  21217444.974   -17603634.62649 -13702115.13747  21217444.599    21217449.738
       244.000         208.000
  22815036.251   -16273269.61149 -12659327.09946  22815035.010    22815041.917
       224.000         176.000
  20962889.847   -10348610.45949  -8046211.45847  20962888.604    20962894.817
       244.000         210.000
  23874113.445    -8918189.24149  -6929969.93445  23874113.565    23874119.623
       219.000         152.000
 02  7 11 14  3 30.0000000  0  9G30G24G23G29G 5G 6G17G10G15
  20876955.585    -6860221.68449  -5338130.39248  20876955.554    20876960.536
       249.000         216.000
  23776191.552    16308665.05349  12702077.35446  23776191.425    23776198.787
       222.000         165.000
  21084935.459   -20849914.62249 -16235107.81347  21084934.893    21084940.751
       243.000         209.000
  24471550.900    -5123154.05849  -3974795.18845  24471550.768    24471560.869
       208.000         137.000
  22176592.335     8284331.50049   6461973.38147  22176592.045    22176598.129
       233.000         188.000
  21207111.022   -17657939.73149 -13744430.81347  21207110.513    21207115.992
       243.000         208.000
  22802947.055   -16336798.77849 -12708830.33846  22802946.029    22802953.135
       226.000         176.000
  20969881.293   -10311869.79049  -8017582.38747  20969880.304    20969886.392
       245.000         210.000
  23858721.441    -8999075.31849  -6992998.04245  23858721.201    23858727.603
       218.000         153.000
 02  7 11 14  4  0.0000000  0  9G30G24G23G29G 5G 6G17G10G15
  20885856.253    -6813448.48749  -5301683.78648  20885856.422    20885861.171
       249.000         216.000
  23791063.124    16386815.02049  12762973.29645  23791063.200    23791070.045
       220.000         162.000
  21075240.900   -20900860.00649 -16274805.49547  21075240.085    21075245.937
       244.000         209.000
  24457453.680    -5197235.91749  -4032521.28345  24457454.077    24457461.718
       206.000         135.000
  22193932.168     8375452.34749   6532976.57247  22193931.411    22193937.708
       233.000         188.000
  21196813.215   -17712054.81349 -13786598.41847  21196813.122    21196818.178
       244.000         208.000
  22790895.056   -16400131.95949 -12758180.85846  22790894.432    22790899.976
       226.000         176.000
  20976982.900   -10274550.98449  -7988502.82647  20976982.028    20976987.883
       245.000         210.000
  23843361.036    -9079794.39449  -7055896.02645  23843359.805    23843367.104
       217.000         154.000
 02  7 11 14  4 30.0000000  0  9G30G24G23G29G 5G 6G17G10G15
  20894857.837    -6766144.94749  -5264823.92048  20894857.931    20894862.631
       248.000         215.000
  23805931.255    16464947.65649  12823855.77245  23805930.477    23805937.984
       218.000         159.000
  21065639.078   -20951317.88149 -16314123.30947  21065638.242    21065644.397
       244.000         209.000
  24443365.400    -5271270.48049  -4090210.48645  24443364.791    24443373.213
       209.000         136.000
  22211324.271     8466848.24049   6604194.08246  22211324.140    22211330.392
       233.000         187.000
  21186552.001   -17765978.14949 -13828616.61247  21186551.735    21186557.084
       244.000         208.000
  22778880.533   -16463269.04249 -12807378.58146  22778879.620    22778886.544
       227.000         176.000
  20984194.186   -10236655.70349  -7958974.05247  20984192.936    20984199.081
       244.000         210.000
  23828032.543    -9160346.16749  -7118663.63845  23828031.417    23828039.521
       217.000         154.000
 02  7 11 14  5  0.0000000  0  9G30G24G23G29G 5G 6G17G10G15
  20903959.953    -6718312.97449  -5227552.29848  20903960.110    20903964.817
       248.000         214.000
  23820795.833    16543061.98049  12884723.94245  23820795.147    23820802.501
       215.000         157.000
  21056130.251   -21001287.01849 -16353060.29147  21056129.635    21056135.382
       244.000         210.000
  24429286.792    -5345254.95649  -4147860.67345  24429285.368    24429293.805
       207.000         137.000
  22228768.199     8558516.38149   6675623.72646  22228767.744    22228773.883
       232.000         187.000
  21176327.534   -17819708.19549 -13870484.19547  21176327.224    21176332.215
       244.000         208.000
  22766903.253   -16526210.21149 -12856423.65146  22766902.911    22766909.094
       227.000         177.000
  20991514.780   -10198185.68349  -7928997.44347  20991514.047    20991519.905
       245.000         210.000
  23812735.896    -9240730.37749  -7181300.69645  23812734.807    23812742.893
       215.000         154.000
 02  7 11 14  5 30.0000000  0  9G30G24G23G29G 5G 6G17G10G15
  20913162.515    -6669953.23849  -5189869.42948  20913162.449    20913167.386
       248.000         214.000
  23835657.140    16621158.63449  12945578.34745  23835656.638    23835665.592
       217.000         158.000
  21046714.903   -21050764.96149 -16391614.52847  21046714.263    21046720.249
       244.000         210.000
  24415218.130    -5419185.36049  -4205468.72345  24415218.356    24415226.699
       210.000         140.000
  22246263.595     8650455.08749   6747264.18646  22246263.063    22246269.283
       233.000         187.000
  21166140.319   -17873242.27149 -13912199.06747  21166139.856    21166144.722
       244.000         208.000
  22754963.416   -16588954.50449 -12905315.29546  22754962.567    22754970.102
       227.000         178.000
  20998944.526   -10159141.72949  -7898573.61347  20998943.714    20998949.723
       245.000         209.000
  23797471.614    -9320945.43549  -7243805.92845  23797470.814    23797478.492
       217.000         154.000
 02  7 11 14  6  0.0000000  0  9G30G24G23G29G 5G 6G17G10G15
  20922464.802    -6621069.42049  -5151778.18848  20922464.919    20922469.818
       247.000         214.000
  23850514.745    16699234.39249  13006416.50945  23850514.352    23850522.852
       219.000         160.000
  21037392.933   -21099752.18349 -16429786.36847  21037392.007    21037398.259
       243.000         209.000
  24401160.077    -5493060.71549  -4263033.89545  24401160.038    24401169.122
       209.000         145.000
  22263809.626     8742660.00549   6819112.09446  22263809.256    22263815.567
       233.000         186.000
  21155990.273   -17926580.72549 -13953761.50447  21155989.693    21155994.763
       244.000         208.000
  22743060.657   -16651503.87549 -12954055.06646  22743060.387    22743066.963
       230.000         179.000
  21006483.008   -10119527.43249  -7867705.35347  21006482.175    21006488.012
       245.000         210.000
  23782238.963    -9400993.15949  -7306180.78545  23782238.029    23782244.751
       218.000         155.000
 02  7 11 14  6 30.0000000  0  9G30G24G23G29G 5G 6G17G10G15
  20931866.743    -6571662.00649  -5113278.94748  20931866.920    20931871.832
       247.000         214.000
  23865368.384    16777290.34049  13067239.22645  23865368.259    23865375.673
       219.000         161.000
  21028164.827   -21148246.14349 -16467573.85647  21028164.005    21028170.142
       244.000         209.000
  24387113.357    -5566876.77549  -4320552.84045  24387112.573    24387122.494
       212.000         149.000
  22281406.073     8835129.75049   6891166.35246  22281405.994    22281412.158
       232.000         186.000
  21145878.013   -17979720.72949 -13995169.31547  21145878.023    21145883.095
       244.000         208.000
  22731195.323   -16713857.03849 -13002641.95446  22731194.781    22731201.344
       228.000         180.000
  21014129.725   -10079343.58149  -7836393.28747  21014128.382    21014134.621
       244.000         209.000
  23767038.507    -9480872.03449  -7368424.07945  23767037.772    23767044.641
       216.000         156.000
 02  7 11 14  7  0.0000000  0  9G30G24G23G29G 5G 6G17G10G15
  20941367.983    -6521732.99949  -5074373.27948  20941368.033    20941373.046
       247.000         214.000
  23880217.997    16855325.27249  13128045.56945  23880218.449    23880225.817
       223.000         162.000
  21019030.788   -21196245.65849 -16504976.06747  21019030.228    21019036.105
       244.000         209.000
  24373078.405    -5640630.73649  -4378023.39145  24373077.879    24373086.732
       212.000         150.000
  22299052.442     8927861.39449   6963424.67146  22299051.478    22299058.380
       232.000         186.000
  21135804.018   -18032660.84149 -14036421.35047  21135803.768    21135808.614
       245.000         209.000
  22719367.174   -16776014.21149 -13051076.10446  22719366.650    22719372.984
       229.000         180.000
  21021884.546   -10038592.00849  -7804638.84147  21021883.593    21021889.794
       245.000         209.000
  23751870.188    -9560581.85849  -7430535.63645  23751869.413    23751876.404
       219.000         156.000
 02  7 11 14  7 30.0000000  0  9G30G24G23G29G 5G 6G17G10G15
  20950968.128    -6471283.91449  -5035062.36548  20950968.227    20950973.091
       247.000         214.000
  23895063.671    16933338.55249  13188835.01545  23895062.912    23895072.446
       218.000         162.000
  21009991.218   -21243749.03749 -16541991.68447  21009990.406    21009996.496
       244.000         210.000
  24359055.787    -5714319.45249  -4435443.08245  24359054.757    24359065.331
       212.000         149.000
  22316748.059     9020852.58049   7035885.25446  22316747.567    22316754.564
       232.000         186.000
  21125768.380   -18085398.94049 -14077515.98047  21125767.825    21125772.821
       245.000         209.000
  22707576.469   -16837975.00249 -13099357.24246  22707575.902    22707582.493
       228.000         181.000
  21029747.116    -9997273.93649  -7772442.97447  21029746.130    21029752.072
       244.000         209.000
  23736734.149    -9640121.94949  -7492514.92545  23736733.821    23736740.652
       219.000         158.000
 02  7 11 14  8  0.0000000  0  9G30G24G23G29G 5G 6G17G10G15
  20960666.870    -6420317.04249  -4995347.95448  20960667.052    20960672.075
       247.000         214.000
  23909904.827    17011329.45849  13249607.03545  23909903.928    23909912.392
       216.000         160.000
  21001046.150   -21290755.64149 -16578620.18847  21001045.409    21001051.442
       244.000         211.000
  24345046.085    -5787940.28149  -4492809.91345  24345046.145    24345055.185
       216.000         150.000
  22334492.586     9114100.11949   7108545.58546  22334492.253    22334498.600
       232.000         185.000
  21115771.200   -18137934.06849 -14118452.45347  21115770.736    21115776.061
       244.000         209.000
  22695822.939   -16899740.03649 -13147485.83146  22695821.939    22695828.190
       229.000         180.000
  21037717.072    -9955391.63049  -7739807.44047  21037715.992    21037722.129
       244.000         208.000
  23721630.518    -9719492.57449  -7554362.17245  23721629.887    23721637.606
       218.000         157.000
 02  7 11 14  8 30.0000000  0  9G30G24G23G29G 5G 6G17G10G15
  20970463.658    -6368834.91549  -4955232.06148  20970463.790    20970468.796
       247.000         213.000
  23924741.529    17089296.53449  13310360.46645  23924741.316    23924747.928
       216.000         159.000
  20992195.806   -21337264.62449 -16614860.94247  20992195.146    20992201.060
       245.000         211.000
  24331049.903    -5861491.06349  -4550122.15445  24331049.405    24331058.837
       210.000         151.000
  22352285.358     9207600.87949   7181403.24446  22352284.905    22352291.138
       232.000         185.000
  21105812.876   -18190265.07849 -14159229.87347  21105812.590    21105817.502
       244.000         209.000
  22684106.514   -16961310.22049 -13195462.58846  22684106.230    22684112.496
       229.000         181.000
  21045793.896    -9912947.67749  -7706734.26047  21045792.821    21045799.105
       243.000         208.000
  23706558.944    -9798694.11249  -7616077.66545  23706559.081    23706565.035
       221.000         157.000
 02  7 11 14  9  0.0000000  0  9G30G24G23G29G 5G 6G17G10G15
  20980358.388    -6316838.16849  -4914715.16048  20980358.560    20980363.618
       247.000         213.000
  23939573.777    17167240.39649  13371095.82945  23939573.728    23939581.419
       217.000         159.000
  20983440.626   -21383273.56749 -16650712.06547  20983440.097    20983446.117
       245.000         211.000
  24317067.528    -5934967.46849  -4607376.41245  24317067.355    24317077.549
       213.000         150.000
  22370125.934     9301353.30149   7254456.97646  22370125.944    22370131.900
       232.000         184.000
  21095894.031   -18242389.15049 -14199846.02547  21095893.777    21095898.690
       245.000         209.000
  22672427.487   -17022684.08049 -13243286.36546  22672426.496    22672433.399
       228.000         181.000
  21053977.501    -9869942.81049  -7673224.00547  21053976.735    21053982.584
       244.000         209.000
  23691519.916    -9877725.01849  -7677660.20145  23691518.883    23691525.819
       219.000         157.000
 02  7 11 14  9 30.0000000  0  9G30G24G23G29G 5G 6G17G10G15
  20990350.534    -6264328.98849  -4873798.96648  20990350.493    20990355.579
       247.000         213.000
  23954401.502    17245160.12549  13431812.37445  23954401.373    23954407.944
       218.000         159.000
  20974780.701   -21428781.68149 -16686172.92547  20974779.962    20974785.910
       244.000         211.000
  24303100.072    -6008367.16349  -4664570.92945  24303099.784    24303107.805
       213.000         150.000
  22388013.799     9395354.23749   7327704.36346  22388013.211    22388019.731
       230.000         183.000
  21086014.762   -18294304.78749 -14240299.77647  21086014.266    21086019.616
       244.000         209.000
  22660785.621   -17083862.31649 -13290957.70546  22660785.105    22660791.187
       230.000         181.000
  21062267.343    -9826379.32049  -7639278.46147  21062266.476    21062272.591
       243.000         208.000
  23676513.282    -9956585.15049  -7739109.63445  23676513.221    23676519.411
       218.000         157.000
 02  7 11 14 10  0.0000000  0  9G30G24G23G29G 5G 6G17G10G15
  21000439.768    -6211309.61349  -4832485.21148  21000440.038    21000444.930
       247.000         213.000
  23969224.266    17323054.23349  13492508.95145  23969222.782    23969233.512
       214.000         158.000
  20966216.254   -21473788.01449 -16721242.79247  20966215.611    20966221.297
       245.000         210.000
  24289147.679    -6081687.38949  -4721703.49945  24289147.383    24289157.004
       216.000         152.000
  22405948.312     9489600.82449   7401143.18746  22405947.665    22405954.637
       231.000         183.000
  21076175.402   -18346010.73249 -14280590.12947  21076175.168    21076180.765
       244.000         210.000
  22649180.889   -17144845.34549 -13338476.94646  22649180.049    22649186.629
       228.000         181.000
  21070663.069    -9782259.56749  -7604899.46447  21070662.104    21070668.261
       244.000         208.000
  23661539.031   -10035274.63649  -7800426.11945  23661538.438    23661545.412
       221.000         157.000
 02  7 11 14 10 30.0000000  0  9G30G24G23G29G 5G 6G17G10G15
  21010625.874    -6157781.47649  -4790775.02648  21010626.086    21010631.008
       247.000         213.000
  23984041.995    17400922.82949  13553185.65745  23984040.654    23984050.397
       213.000         157.000
  20957747.658   -21518290.83249 -16755920.31647  20957746.834    20957753.010
       245.000         211.000
  24275211.066    -6154924.61449  -4778771.37845  24275209.822    24275218.995
       213.000         152.000
  22423929.285     9584090.85449   7474771.67646  22423928.677    22423935.205
       232.000         184.000
  21066376.469   -18397504.79449 -14320715.37947  21066376.001    21066381.130
       244.000         210.000
  22637613.458   -17205632.53749 -13385843.57546  22637612.857    22637619.536
       229.000         182.000
  21079164.372    -9737584.71549  -7570087.92747  21079163.469    21079169.647
       243.000         208.000
  23646597.591   -10113792.86449  -7861609.15145  23646597.801    23646604.482
       219.000         158.000
 02  7 11 14 11  0.0000000  0  9G30G24G23G29G 5G 6G17G10G15
  21020908.242    -6103747.49749  -4748670.66747  21020908.188    21020913.314
       247.000         212.000
  23998854.725    17478764.49949  13613841.38545  23998853.549    23998863.660
       213.000         157.000
  20949374.899   -21562289.86449 -16790205.26847  20949374.200    20949380.033
       245.000         211.000
  24261290.511    -6228076.88149  -4835773.06145  24261289.589    24261299.356
       212.000         151.000
  22441955.856     9678820.66649   7548587.01946  22441955.378    22441962.344
       232.000         183.000
  21056617.909   -18448786.21649 -14360674.92847  21056617.637    21056622.579
       245.000         210.000
  22626083.104   -17266225.04649 -13433058.50246  22626081.939    22626088.964
       227.000         181.000
  21087770.854    -9692357.75149  -7534846.17647  21087770.031    21087776.057
       244.000         208.000
  23631688.549   -10192140.31749  -7922659.10645  23631687.653    23631694.159
       219.000         158.000
 02  7 11 14 11 30.0000000  0  9G30G24G23G29G 5G 6G17G10G15
  21031286.681    -6049208.75349  -4706172.98547  21031286.943    21031291.705
       248.000         212.000
  24013662.289    17556579.48349  13674476.32845  24013662.038    24013671.215
       215.000         156.000
  20941098.432   -21605782.92649 -16824095.96647  20941097.710    20941103.541
       244.000         211.000
  24247387.090    -6301140.19449  -4892705.44445  24247386.384    24247394.228
       211.000         149.000
  22460027.830     9773788.62649   7622587.91846  22460026.777    22460033.849
       232.000         184.000
  21046900.409   -18499852.30849 -14400466.68747  21046899.834    21046905.052
       244.000         210.000
  22614589.902   -17326621.88249 -13480120.96846  22614589.156    22614595.762
       229.000         182.000
  21096482.102    -9646579.78749  -7499175.05547  21096480.920    21096487.384
       243.000         208.000
  23616812.210   -10270315.75649  -7983575.04045  23616811.142    23616818.175
       219.000         157.000
 02  7 11 14 12  0.0000000  0  9G30G24G23G29G 5G 6G17G10G15
  21041760.667    -5994167.87449  -4663284.03647  21041760.822    21041765.750
       247.000         212.000
  24028464.732    17634366.44249  13735089.41845  24028464.740    24028474.224
       215.000         156.000
  20932918.265   -21648769.74649 -16857592.18747  20932917.573    20932923.354
       244.000         211.000
  24233500.850    -6374112.44549  -4949566.88045  24233499.847    24233508.554
       212.000         147.000
  22478144.355     9868991.17049   7696771.60646  22478143.745    22478150.018
       232.000         183.000
  21037223.947   -18550702.32649 -14440090.08547  21037223.523    21037229.016
       245.000         210.000
  22603133.872   -17386824.10549 -13527031.78146  22603133.756    22603139.707
       229.000         182.000
  21105297.691    -9600253.50249  -7463076.69047  21105296.947    21105302.913
       244.000         208.000
  23601968.580   -10348319.74349  -8044357.37045  23601968.327    23601974.677
       219.000         158.000
 02  7 11 14 12 30.0000000  0 10G30G24G23G29G 5G 6G17G26G10G15
  21052329.737    -5938627.15049  -4620005.59947  21052330.245    21052334.646
       248.000         212.000
  24043261.865    17712124.55949  13795679.99545  24043263.155    24043271.318
       219.000         156.000
  20924834.660   -21691249.45249 -16890693.25347  20924833.819    20924840.046
       244.000         212.000
  24219632.382    -6446990.91849  -5006355.20545  24219632.168    24219641.606
       212.000         147.000
  22496305.024     9964425.38449   7771135.82946  22496304.542    22496311.788
       231.000         183.000
  21027588.965   -18601334.72349 -14479543.90247  21027589.033    21027593.784
       245.000         210.000
  22591714.743   -17446831.81649 -13573791.02646  22591714.092    22591720.554
       229.000         182.000
  24408960.536    -4029775.97549  -3126202.46945  24408960.938    24408971.282
       209.000         148.000
  21114217.304    -9553380.82549  -7426552.56047  21114216.522    21114222.769
       244.000         208.000
  23587157.606   -10426152.37049  -8105006.14345  23587156.511    23587163.427
       219.000         158.000
 02  7 11 14 13  0.0000000  0 10G30G24G23G29G 5G 6G17G26G10G15
  21062993.606    -5882588.60049  -4576339.23247  21062993.743    21062998.555
       247.000         212.000
  24058053.418    17789852.87849  13856247.43245  24058052.127    24058062.476
       217.000         155.000
  20916847.690   -21733220.94749 -16923398.30347  20916847.018    20916853.014
       244.000         211.000
  24205782.400    -6519772.71349  -5063068.20445  24205782.715    24205791.174
       214.000         150.000
  22514509.189    10060088.52349   7845678.43246  22514508.750    22514515.521
       231.000         183.000
  21017995.758   -18651747.96349 -14518826.94447  21017995.225    21018000.336
       245.000         210.000
  22580332.639   -17506645.36049 -13620398.97746  22580332.201    22580338.356
       230.000         183.000
  24391987.870    -4118968.02549  -3195702.76345  24391988.308    24391998.553
       217.000         153.000
  21123240.467    -9505963.95149  -7389604.37647  21123239.735    21123245.389
       243.000         208.000
  23572379.225   -10503813.46449  -8165521.27845  23572379.052    23572386.897
       219.000         160.000
 02  7 11 14 13 30.0000000  0 10G30G24G23G29G 5G 6G17G26G10G15
  21073751.859    -5826053.76549  -4532286.16347  21073751.915    21073756.789
       247.000         211.000
  24072839.108    17867551.55549  13916791.75645  24072838.281    24072846.879
       217.000         153.000
  20908957.754   -21774682.61049 -16955706.08047  20908957.200    20908963.190
       244.000         211.000
  24191951.648    -6592454.08749  -5119702.96445  24191951.101    24191959.856
       213.000         150.000
  22532756.507    10155978.44349   7920397.74046  22532755.708    22532762.194
       231.000         182.000
  21008444.507   -18701939.59449 -14557937.31547  21008443.897    21008449.418
       244.000         210.000
  22568987.569   -17566264.13549 -13666855.16246  22568987.365    22568992.652
       230.000         183.000
  24375016.075    -4208156.29549  -3265200.10245  24375015.618    24375025.690
       214.000         153.000
  21132366.878    -9458004.54249  -7352233.44247  21132365.718    21132372.193
       243.000         207.000
  23557633.576   -10581302.38249  -8225902.25145  23557632.410    23557640.441
       218.000         160.000
 02  7 11 14 14  0.0000000  0 10G30G24G23G29G 5G 6G17G26G10G15
  21084604.330    -5769023.80949  -4487847.28047  21084604.372    21084609.210
       247.000         211.000
  24087619.043    17945220.74449  13977313.05945  24087619.398    24087628.303
       219.000         155.000
  20901165.242   -21815632.61849 -16987615.17847  20901164.665    20901170.445
       245.000         212.000
  24178140.434    -6665031.37649  -5176256.61445  24178139.932    24178150.041
       213.000         148.000
  22551046.684    10252093.41349   7995292.41846  22551045.626    22551053.213
       231.000         183.000
  20998935.963   -18751907.08349 -14596873.01747  20998935.589    20998940.810
       245.000         211.000
  22557679.684   -17625687.65949 -13713159.19246  22557678.834    22557685.393
       229.000         183.000
  24358045.604    -4297336.75349  -3334691.32945  24358045.746    24358054.891
       214.000         150.000
  21141596.309    -9409503.59749  -7314440.52547  21141595.578    21141601.824
       244.000         208.000
  23542920.890   -10658617.95649  -8286148.15645  23542919.766    23542927.333
       220.000         160.000
 02  7 11 14 14 30.0000000  0 10G30G24G23G29G 5G 6G17G26G10G15
  21095550.487    -5711501.31549  -4443024.60247  21095550.754    21095555.671
       247.000         211.000
  24102393.357    18022859.26149  14037810.49745  24102393.380    24102403.217
       220.000         154.000
  20893470.242   -21856070.38149 -17019125.12347  20893469.682    20893475.557
       245.000         212.000
  24164349.759    -6737502.07949  -5232727.21445  24164348.610    24164358.607
       212.000         145.000
  22569378.972    10348430.25949   8070359.99746  22569378.474    22569385.420
       232.000         183.000
  20989470.401   -18801649.16849 -14635633.08947  20989469.852    20989475.275
       244.000         211.000
  22546408.759   -17684916.33249 -13759311.40746  22546407.837    22546414.531
       229.000         183.000
  24341077.256    -4386506.52949  -3404174.26545  24341077.792    24341087.246
       215.000         149.000
  21150928.301    -9360463.89849  -7276227.80947  21150927.338    21150933.363
       243.000         207.000
  23528241.257   -10735760.15649  -8346258.95445  23528240.878    23528248.112
       220.000         161.000
 02  7 11 14 15  0.0000000  0 10G30G24G23G29G 5G 6G17G26G10G15
  21106589.771    -5653489.69749  -4397820.79147  21106589.892    21106594.694
       247.000         211.000
  24117161.548    18100465.32949  14098282.61945  24117160.677    24117168.758
       215.000         153.000
  20885872.580   -21895996.36549 -17050236.27547  20885871.982    20885878.092
       245.000         212.000
  24150579.563    -6809864.45749  -5289113.41345  24150579.891    24150588.730
       210.000         144.000
  22587752.778    10444984.78249   8145597.18846  22587752.095    22587759.938
       231.000         184.000
  20980047.604   -18851165.57549 -14674217.31347  20980047.226    20980052.608
       244.000         211.000
  22535174.709   -17743951.62049 -13805312.92046  22535173.774    22535180.343
       230.000         183.000
  24324111.279    -4475663.83849  -3473647.48245  24324111.968    24324121.850
       216.000         147.000
  21160362.116    -9310888.84049  -7237597.93347  21160361.357    21160367.196
       244.000         207.000
  23513594.354   -10812730.34649  -8406235.70645  23513593.858    23513600.468
       219.000         160.000
 02  7 11 14 15 30.0000000  0 10G30G24G23G29G 5G 6G17G26G10G15
  21117722.080    -5594989.16349  -4352236.01147  21117722.325    21117727.088
       247.000         211.000
  24131923.563    18178040.51649  14158730.69945  24131923.627    24131932.759
       213.000         151.000
  20878372.902   -21935407.47549 -17080946.22847  20878372.344    20878378.035
       245.000         212.000
  24136830.949    -6882113.79049  -5345411.51845  24136830.750    24136840.163
       208.000         145.000
  22606167.808    10541756.24949   8221003.41246  22606167.716    22606174.260
       232.000         184.000
  20970668.638   -18900452.67249 -14712622.85347  20970668.548    20970673.439
       245.000         211.000
  22523977.799   -17802791.74449 -13851162.36946  22523977.065    22523983.512
       229.000         183.000
  24307148.733    -4564803.25549  -3543106.75845  24307147.642    24307157.903
       211.000         146.000
  21169897.988    -9260778.17849  -7198550.69447  21169896.855    21169903.025
       243.000         207.000
  23498980.571   -10889526.12349  -8466076.57545  23498978.915    23498987.371
       221.000         161.000
 02  7 11 14 16  0.0000000  0 10G30G24G23G29G 5G 6G17G26G10G15
  21128946.796    -5536003.18249  -4306272.95847  21128946.944    21128951.627
       246.000         211.000
  24146679.607    18255582.74949  14219153.08045  24146681.031    24146686.854
       214.000         152.000
  20870971.138   -21974304.08649 -17111255.27447  20870970.348    20870976.292
       245.000         212.000
  24123104.105    -6954248.37649  -5401620.21345  24123103.253    24123111.996
       209.000         145.000
  22624623.387    10638740.54049   8296575.49846  22624622.820    22624629.857
       231.000         183.000
  20961333.338   -18949510.11749 -14750849.44047  20961332.951    20961338.051
       245.000         211.000
  22512817.701   -17861438.26849 -13896860.94046  22512817.141    22512823.666
       230.000         184.000
  24290189.703    -4653923.16449  -3612550.83545  24290189.911    24290199.924
       215.000         144.000
  21179534.856    -9210135.71649  -7159089.06147  21179533.864    21179539.899
       243.000         206.000
  23484399.765   -10966148.77449  -8525782.53745  23484398.659    23484405.884
       220.000         161.000
 02  7 11 14 16 30.0000000  0 10G30G24G23G29G 5G 6G17G26G10G15
  21140263.607    -5476533.25349  -4259932.80847  21140263.840    21140268.613
       246.000         210.000
  24161429.210    18333092.22949  14279549.91845  24161429.021    24161439.399
       214.000         153.000
  20863667.566   -22012684.52349 -17141162.10647  20863666.714    20863672.839
       245.000         212.000
  24109399.791    -7026264.49649  -5457736.61245  24109399.590    24109407.278
       214.000         146.000
  22643118.981    10735935.69449   8372311.86446  22643118.575    22643125.606
       231.000         183.000
  20952042.233   -18998335.41249 -14788895.14047  20952041.993    20952047.334
       245.000         211.000
  22501694.625   -17919890.59149 -13942408.20346  22501693.941    22501700.822
       230.000         184.000
  24273235.330    -4743019.49749  -3681976.52245  24273234.370    24273244.531
       213.000         143.000
  21189272.749    -9158962.92749  -7119214.20547  21189272.112    21189278.340
       244.000         207.000
  23469852.030   -11042597.38249  -8585352.86745  23469850.631    23469857.750
       220.000         162.000
 02  7 11 14 17  0.0000000  0 10G30G24G23G29G 5G 6G17G26G10G15
  21151671.959    -5416582.13149  -4213217.71047  21151671.902    21151677.388
       246.000         210.000
  24176172.434    18410567.48849  14339920.11745  24176171.405    24176181.618
       212.000         151.000
  20856462.271   -22050548.55749 -17170666.54448  20856461.742    20856467.660
       246.000         213.000
  24095718.576    -7098159.81749  -5513758.85545  24095717.362    24095726.814
       214.000         148.000
  22661654.248    10833338.48949   8448210.04646  22661654.683    22661661.289
       230.000         182.000
  20942795.529   -19046927.54549 -14826759.15847  20942795.075    20942800.176
       245.000         211.000
  22490608.341   -17978149.46849 -13987804.73146  22490607.676    22490614.000
       231.000         185.000
  24256285.689    -4832089.65249  -3751381.88945  24256285.003    24256295.262
       211.000         139.000
  21199111.070    -9107262.73449  -7078928.37547  21199109.802    21199116.236
       242.000         206.000
  23455337.449   -11118872.31149  -8644787.88345  23455337.318    23455343.224
       221.000         161.000
 02  7 11 14 17 30.0000000  0 10G30G24G23G29G 5G 6G17G26G10G15
  21163171.471    -5356151.81849  -4166129.21147  21163171.461    21163176.480
       246.000         210.000
  24190909.082    18488008.50149  14400263.61745  24190909.802    24190916.565
       213.000         151.000
  20849355.510   -22087895.11649 -17199767.76148  20849354.832    20849360.590
       245.000         213.000
  24082060.818    -7169931.24349  -5569684.59045  24082060.436    24082069.352
       212.000         149.000
  22680228.448    10930946.35549   8524268.01646  22680228.145    22680235.160
       230.000         181.000
  20933593.511   -19095284.47249 -14864439.89247  20933593.335    20933598.102
       245.000         211.000
  22479558.888   -18036214.89749 -14033050.51446  22479558.436    22479565.120
       232.000         186.000
  24239341.664    -4921130.07749  -3820764.04445  24239342.622    24239351.613
       208.000         138.000
  21209049.234    -9055037.16749  -7038233.16647  21209048.431    21209054.339
       243.000         206.000
  23440855.839   -11194973.25449  -8704087.30845  23440854.824    23440862.545
       220.000         161.000
 02  7 11 14 18  0.0000000  0 10G30G24G23G29G 5G 6G17G26G10G15
  21174761.859    -5295244.00049  -4118668.63047  21174762.127    21174767.109
       246.000         210.000
  24205639.091    18565414.94649  14460580.17145  24205637.706    24205648.514
       206.000         148.000
  20842347.426   -22124722.83349 -17228464.68648  20842346.824    20842352.535
       246.000         213.000
  24068427.310    -7241575.25649  -5625511.01045  24068426.835    24068435.373
       213.000         149.000
  22698841.369    11028757.04149   8600484.03146  22698840.610    22698848.440
       230.000         181.000
  20924436.749   -19143403.91549 -14901935.58147  20924436.234    20924441.579
       245.000         212.000
  22468546.246   -18094086.64549 -14078145.37946  22468545.530    22468551.917
       231.000         186.000
  24222404.150    -5010137.03649  -3890120.09245  24222403.929    24222413.333
       203.000         135.000
  21219087.201    -9002287.89049  -6997129.87647  21219086.412    21219092.520
       243.000         206.000
  23426407.531   -11270899.59149  -8763250.69145  23426406.146    23426413.842
       219.000         160.000
 02  7 11 14 18 30.0000000  0 11G30G24G23G29G 5G 6G17G26G10G15G18
  21186442.588    -5233861.72149  -4070838.34247  21186442.881    21186447.969
       246.000         210.000
  24220362.098    18642785.54149  14520868.72745  24220362.012    24220371.641
       206.000         149.000
  20835438.063   -22161031.83849 -17256757.42348  20835437.387    20835443.188
       245.000         213.000
  24054818.497    -7313089.83649  -5681236.60545  24054819.135    24054826.686
       214.000         150.000
  22717492.085    11126766.83449   8676855.19046  22717491.598    22717498.746
       230.000         180.000
  20915325.232   -19191285.16549 -14939245.67047  20915324.762    20915330.082
       246.000         212.000
  22457570.266   -18151765.54049 -14123089.97746  22457569.828    22457575.773
       231.000         185.000
  24205473.394    -5099108.12149  -3959448.17745  24205473.389    24205485.669
       203.000         133.000
  21229224.133    -8949017.92549  -6955620.85747  21229223.085    21229229.260
       242.000         206.000
  23411992.369   -11346652.03949  -8822278.57545  23411991.046    23411998.331
       219.000         160.000
  24784293.077    -3827473.45249  -2966169.48245  24784291.502    24784299.739
       210.000         137.000
 02  7 11 14 19  0.0000000  0 11G30G24G23G29G 5G 6G17G26G10G15G18
  21198213.015    -5172007.87249  -4022640.59247  21198213.122    21198218.574
       244.000         210.000
  24235078.385    18720119.51949  14581128.86345  24235078.824    24235086.918
       210.000         151.000
  20828627.425   -22196821.77349 -17284645.68748  20828626.912    20828632.485
       245.000         213.000
  24041234.822    -7384472.34949  -5736859.26545  24041235.029    24041243.354
       216.000         152.000
  22736180.090    11224972.58849   8753379.04446  22736179.490    22736186.682
       229.000         180.000
  20906259.283   -19238926.94649 -14976369.14947  20906259.158    20906264.063
       246.000         212.000
  22446630.902   -18209252.37449 -14167884.90246  22446630.041    22446637.028
       231.000         185.000
  24188550.114    -5188040.38349  -4028746.04044  24188549.686    24188558.789
       204.000         131.000
  21239459.674    -8895229.88749  -6913708.14047  21239458.779    21239464.772
       242.000         206.000
  23397610.089   -11422230.82149  -8881171.12245  23397609.372    23397616.311
       220.000         161.000
  24763085.764    -3938919.24849  -3053010.43245  24763086.972    24763093.490
       210.000         139.000
 02  7 11 14 19 30.0000000  0 11G30G24G23G29G 5G 6G17G26G10G15G18
  21210073.013    -5109683.06249  -3974075.86647  21210073.302    21210078.553
       245.000         209.000
  24249787.938    18797417.69449  14641361.02945  24249788.231    24249797.800
       215.000         155.000
  20821916.092   -22232090.16949 -17312127.55348  20821915.488    20821921.299
       245.000         213.000
  24027677.159    -7455718.34549  -5792375.56445  24027677.335    24027685.174
       216.000         153.000
  22754905.131    11323373.07149   8830054.61946  22754904.617    22754912.011
       229.000         180.000
  20897239.612   -19286325.86849 -15013303.38447  20897239.152    20897244.444
       246.000         212.000
  22435728.371   -18266545.54549 -14212528.91546  22435727.609    22435734.871
       230.000         185.000
  24171635.146    -5276929.16449  -4098009.95845  24171635.185    24171646.316
       205.000         132.000
  21249793.682    -8840924.40449  -6871392.22047  21249792.894    21249799.294
       242.000         206.000
  23383261.380   -11497634.12049  -8939926.91746  23383260.675    23383267.512
       223.000         163.000
  24741887.014    -4050318.63149  -3139815.17745  24741886.398    24741894.082
       205.000         140.000
 02  7 11 14 20  0.0000000  0 11G30G24G23G29G 5G 6G17G26G10G15G18
  21222022.223    -5046889.92249  -3925146.19547  21222022.280    21222027.434
       245.000         209.000
  24264490.592    18874679.15349  14701564.65645  24264490.952    24264499.989
       217.000         158.000
  20815304.077   -22266836.62949 -17339202.70548  20815303.475    20815309.290
       245.000         213.000
  24014145.991    -7526825.22649  -5847783.45845  24014144.704    24014155.345
       216.000         154.000
  22773666.695    11421965.16649   8906879.52346  22773666.379    22773673.810
       228.000         179.000
  20888266.285   -19333480.59049 -15050047.33847  20888266.034    20888271.523
       246.000         212.000
  22424862.501   -18323645.95549 -14257022.72746  22424861.871    22424867.955
       232.000         185.000
  24154728.992    -5365771.45949  -4167237.68545  24154728.719    24154739.327
       204.000         136.000
  21260225.663    -8786104.11749  -6828675.15047  21260224.863    21260230.801
       242.000         205.000
  23368945.971   -11572862.42149  -8998546.36846  23368944.446    23368952.619
       221.000         163.000
  24720697.597    -4161670.12249  -3226582.60245  24720697.307    24720706.195
       202.000         139.000
 02  7 11 14 20 30.0000000  0 11G30G24G23G29G 5G 6G17G26G10G15G18
  21234060.007    -4983631.15249  -3875853.69947  21234060.116    21234065.402
       245.000         209.000
  24279186.062    18951903.13749  14761739.04645  24279186.569    24279194.711
       220.000         162.000
  20808791.433   -22301060.75049 -17365870.85148  20808790.814    20808796.764
       247.000         214.000
  24000641.805    -7597790.29749  -5903080.84645  24000641.781    24000649.960
       216.000         155.000
  22792464.134    11520745.72649   8983851.26146  22792463.966    22792470.850
       228.000         178.000
  20879339.802   -19380389.84949 -15086600.01747  20879339.414    20879344.769
       246.000         212.000
  22414033.300   -18380553.89449 -14301366.55546  22414031.899    22414038.753
       231.000         186.000
  24137832.317    -5454564.21649  -4236426.82745  24137832.536    24137841.999
       204.000         137.000
  21270755.132    -8730771.56749  -6785558.91647  21270754.353    21270760.653
       243.000         205.000
  23354663.748   -11647915.66449  -9057029.38946  23354663.173    23354670.748
       223.000         163.000
  24699517.708    -4272971.43549  -3313310.93445  24699516.970    24699524.236
       199.000         139.000
 02  7 11 14 21  0.0000000  0 11G30G24G23G29G 5G 6G17G26G10G15G18
  21246186.067    -4919908.55449  -3826199.79447  21246186.271    21246191.460
       245.000         209.000
  24293874.344    19029089.49949  14821884.13745  24293873.941    24293883.115
       220.000         162.000
  20802378.427   -22334761.48949 -17392131.16148  20802377.684    20802383.658
       246.000         214.000
  23987165.148    -7668610.34449  -5958265.22745  23987164.462    23987174.184
       218.000         157.000
  22811296.920    11619712.38549   9060968.02746  22811296.268    22811304.125
       226.000         176.000
  20870460.347   -19427051.45849 -15122959.72747  20870460.041    20870465.103
       245.000         212.000
  22403240.717   -18437269.28849 -14345560.35146  22403240.240    22403246.170
       233.000         186.000
  24120945.775    -5543303.87449  -4305574.58545  24120945.917    24120955.361
       209.000         140.000
  21281381.647    -8674929.09349  -6742045.33447  21281380.587    21281387.202
       242.000         205.000
  23340415.008   -11722793.38949  -9115375.65346  23340414.727    23340421.568
       223.000         164.000
  24678347.663    -4384220.04349  -3399998.20645  24678347.635    24678355.596
       205.000         144.000
 02  7 11 14 21 30.0000000  0 11G30G24G23G29G 5G 6G17G26G10G15G18
  21258399.893    -4855724.61749  -3776186.38347  21258400.056    21258405.367
       245.000         209.000
  24308555.241    19106237.77749  14881999.52245  24308555.347    24308564.377
       220.000         161.000
  20796065.088   -22367938.19249 -17417983.12748  20796064.414    20796070.344
       246.000         214.000
  23973716.617    -7739282.32249  -6013334.22945  23973716.102    23973725.858
       217.000         159.000
  22830164.600    11718862.55049   9138227.79746  22830163.946    22830170.854
       226.000         175.000
  20861628.411   -19473463.76249 -15159125.17547  20861627.945    20861633.216
       246.000         212.000
  22392484.729   -18493792.37449 -14389604.28846  22392483.746    22392490.275
       231.000         186.000
  24104069.941    -5631987.05949  -4374678.28545  24104069.400    24104080.220
       208.000         143.000
  21292104.708    -8618579.04349  -6698136.24247  21292103.743    21292109.836
       242.000         205.000
  23326199.708   -11797495.33949  -9173584.94646  23326198.629    23326205.556
       225.000         164.000
  24657188.326    -4495413.83549  -3486642.77045  24657188.943    24657195.530
       216.000         149.000
 02  7 11 14 22  0.0000000  0 11G30G24G23G29G 5G 6G17G26G10G15G18
  21270701.037    -4791082.02949  -3725815.59147  21270701.140    21270706.391
       244.000         208.000
  24323228.741    19183346.82749  14942084.36445  24323229.948    24323235.881
       220.000         158.000
  20789851.547   -22400590.55349 -17443426.52648  20789850.916    20789856.429
       245.000         214.000
  23960296.728    -7809803.59349  -6068285.78045  23960295.682    23960305.066
       216.000         158.000
  22849066.601    11818193.01949   9215628.04646  22849065.081    22849073.133
       226.000         175.000
  20852844.163   -19519625.39049 -15195095.29247  20852843.996    20852848.899
       246.000         212.000
  22381765.217   -18550123.76949 -14433498.86246  22381764.367    22381771.010
       232.000         187.000
  24087205.210    -5720610.95149  -4443735.77745  24087204.755    24087215.112
       211.000         147.000
  21302923.891    -8561723.95649  -6653833.61047  21302923.193    21302929.245
       242.000         205.000
  23312017.781   -11872021.77649  -9231657.47646  23312016.587    23312024.189
       224.000         165.000
  24636039.836    -4606550.95649  -3573243.17645  24636039.785    24636047.069
       213.000         151.000
 02  7 11 14 22 30.0000000  0 11G30G24G23G29G 5G 6G17G26G10G15G18
  21283089.040    -4725982.72249  -3675088.91947  21283089.284    21283094.568
       245.000         208.000
  24337894.787    19260417.04149  15002138.98045  24337894.566    24337904.672
       217.000         156.000
  20783738.003   -22432717.39549 -17468460.42948  20783737.308    20783743.322
       245.000         213.000
  23946906.279    -7880171.03449  -6123117.49745  23946905.992    23946914.887
       214.000         157.000
  22868002.485    11917701.39549   9293166.93646  22868001.592    22868009.861
       227.000         175.000
  20844108.127   -19565533.92349 -15230868.18647  20844107.774    20844113.277
       246.000         212.000
  22371082.212   -18606263.16449 -14477243.83046  22371081.503    22371087.908
       231.000         186.000
  24070352.803    -5809171.58649  -4512744.02945  24070353.361    24070362.404
       214.000         150.000
  21313838.897    -8504365.68349  -6609138.88947  21313837.677    21313844.406
       242.000         204.000
  23297869.381   -11946372.13249  -9289592.81246  23297868.661    23297875.783
       224.000         165.000
  24614902.481    -4717628.45149  -3659797.08845  24614902.707    24614910.163
       216.000         152.000
 02  7 11 14 23  0.0000000  0 11G30G24G23G29G 5G 6G17G26G10G15G18
  21295563.500    -4660429.30949  -3624008.40447  21295563.498    21295568.733
       245.000         208.000
  24352553.269    19337447.42349  15062162.51645  24352553.278    24352560.808
       216.000         153.000
  20777724.527   -22464318.33349 -17493084.53548  20777723.891    20777729.743
       245.000         214.000
  23933545.466    -7950381.75749  -6177827.08545  23933545.501    23933554.043
       216.000         156.000
  22886971.689    12017384.74149   9370842.13546  22886970.780    22886978.311
       227.000         175.000
  20835420.429   -19611188.07549 -15266442.86947  20835419.789    20835425.246
       245.000         212.000
  22360435.624   -18662211.01049 -14520839.52446  22360434.943    22360441.640
       231.000         186.000
  24053512.787    -5897665.94249  -4581700.59845  24053511.980    24053522.522
       214.000         151.000
  21324849.072    -8446506.72149  -6564054.01847  21324847.915    21324854.173
       241.000         204.000
  23283754.371   -12020546.83649  -9347391.26146  23283754.462    23283760.672
       225.000         166.000
  24593777.043    -4828644.50749  -3746303.13945  24593776.663    24593784.250
       209.000         150.000
 02  7 11 14 23 30.0000000  0 11G30G24G23G29G 5G 6G17G26G10G15G18
  21308123.853    -4594424.35949  -3572576.04147  21308124.143    21308129.317
       244.000         207.000
  24367204.036    19414437.38949  15122154.57145  24367203.596    24367211.547
       217.000         150.000
  20771811.188   -22495392.99949 -17517298.56048  20771810.545    20771816.439
       246.000         214.000
  23920215.209    -8020433.01949  -6232412.43145  23920213.521    23920224.290
       215.000         155.000
  22905973.694    12117240.08049   9448651.36446  22905973.455    22905980.564
       227.000         176.000
  20826781.403   -19656586.28049 -15301818.10547  20826781.269    20826786.235
       246.000         212.000
  22349825.516   -18717967.70949 -14564286.28546  22349824.628    22349831.375
       232.000         187.000
  24036686.048    -5986090.89249  -4650603.08745  24036685.889    24036695.457
       216.000         152.000
  21335954.100    -8388149.58549  -6518580.95747  21335953.247    21335959.431
       242.000         204.000
  23269672.963   -12094545.71249  -9405052.70146  23269671.682    23269679.461
       224.000         165.000
  24572663.654    -4939597.16149  -3832759.81245  24572664.079    24572670.099
       216.000         149.000
 02  7 11 14 24  0.0000000  0 11G30G24G23G29G 5G 6G17G26G10G15G18
  21320769.729    -4527969.98449  -3520793.46547  21320770.078    21320774.993
       244.000         206.000
  24381847.189    19491386.88049  15182115.10145  24381847.228    24381855.707
       217.000         150.000
  20765998.202   -22525940.37649 -17541101.71148  20765997.629    20766003.369
       245.000         214.000
  23906915.681    -8090321.46949  -6286870.89245  23906914.817    23906924.386
       212.000         153.000
  22925007.869    12217264.99949   9526592.73946  22925007.578    22925015.294
       228.000         176.000
  20818191.599   -19701726.43049 -15336992.25647  20818191.226    20818196.563
       246.000         212.000
  22339251.753   -18773533.19349 -14607584.04846  22339250.918    22339257.702
       232.000         187.000
  24019873.411    -6074442.83949  -4719448.71045  24019873.588    24019883.196
       216.000         154.000
  21347153.471    -8329296.49349  -6472721.44147  21347152.864    21347159.090
       242.000         204.000
  23255624.873   -12168368.53649  -9462576.97646  23255623.527    23255630.894
       224.000         165.000
  24551562.644    -5050483.57149  -3919164.85645  24551561.957    24551569.599
       216.000         150.000
 02  7 11 14 24 30.0000000  0 11G30G24G23G29G 5G 6G17G26G10G15G18
  21333500.789    -4461068.27749  -3468662.32847  21333500.855    21333506.235
       244.000         206.000
  24396482.461    19568295.50149  15242043.74845  24396482.766    24396490.709
       216.000         149.000
  20760285.723   -22555959.75049 -17564493.42548  20760285.174    20760290.822
       245.000         214.000
  23893647.806    -8160043.86149  -6341199.97445  23893646.962    23893656.429
       213.000         153.000
  22944073.868    12317457.10349   9604664.40946  22944073.299    22944080.817
       227.000         175.000
  20809651.132   -19746606.58049 -15371963.81847  20809650.709    20809656.153
       246.000         212.000
  22328714.323   -18828907.42449 -14650732.77546  22328713.783    22328720.175
       232.000         187.000
  24003075.069    -6162718.15149  -4788234.60045  24003073.938    24003085.586
       214.000         153.000
  21358446.942    -8269949.64949  -6426477.17447  21358445.836    21358451.925
       242.000         204.000
  23241610.440   -12242014.82349  -9519963.66646  23241610.088    23241616.633
       224.000         165.000
  24530474.656    -5161301.64549  -4005516.64745  24530474.256    24530481.332
       219.000         149.000
 02  7 11 14 25  0.0000000  0 11G30G24G23G29G 5G 6G17G26G10G15G18
  21346316.353    -4393722.17949  -3416184.91347  21346316.443    21346321.704
       245.000         206.000
  24411109.923    19645162.62549  15301940.07345  24411108.141    24411117.920
       211.000         146.000
  20754673.706   -22585451.07249 -17587473.67948  20754673.149    20754679.028
       246.000         214.000
  23880412.163    -8229597.90849  -6395397.85745  23880411.095    23880420.895
       213.000         154.000
  22963171.149    12417813.03549   9682863.71646  22963170.078    22963177.622
       226.000         174.000
  20801160.458   -19791225.34749 -15406731.70648  20801160.256    20801165.469
       246.000         213.000
  22318213.172   -18884091.22249 -14693733.12947  22318212.143    22318219.149
       232.000         188.000
  23986291.788    -6250913.91149  -4856958.52545  23986291.676    23986301.094
       215.000         153.000
  21369833.623    -8210112.30549  -6379850.70747  21369832.523    21369838.912
       242.000         203.000
  23227629.509   -12315484.95249  -9577213.12146  23227628.877    23227636.471
       223.000         166.000
  24509400.304    -5272049.18949  -4091813.49645  24509399.716    24509407.977
       216.000         147.000
 02  7 11 14 25 30.0000000  0 11G30G24G23G29G 5G 6G17G26G10G15G18
  21359216.035    -4325934.11349  -3363363.10347  21359216.032    21359221.579
       244.000         206.000
  24425729.223    19721987.89749  15361803.80245  24425728.030    24425738.081
       210.000         142.000
  20749162.346   -22614413.57949 -17610041.86548  20749161.854    20749167.493
       246.000         214.000
  23867209.002    -8298980.44249  -6449462.12745  23867209.225    23867218.428
       215.000         154.000
  22982298.922    12518330.18749   9761188.65446  22982299.055    22982306.030
       227.000         173.000
  20792719.877   -19835581.01749 -15441294.57547  20792719.480    20792724.718
       246.000         212.000
  22307748.273   -18939084.47849 -14736585.00347  22307748.127    22307754.338
       233.000         188.000
  23969524.531    -6339026.52649  -4925617.64745  23969524.464    23969533.823
       216.000         154.000
  21381313.235    -8149786.43049  -6332843.56447  21381312.715    21381318.813
       242.000         204.000
  23213682.164   -12388778.43849  -9634324.91146  23213681.153    23213688.640
       222.000         165.000
  24488339.544    -5382723.89349  -4178053.55745  24488339.176    24488345.443
       215.000         145.000
 02  7 11 14 26  0.0000000  0 11G30G24G23G29G 5G 6G17G26G10G15G18
  21372199.171    -4257707.56549  -3310199.62247  21372199.414    21372204.504
       245.000         206.000
  24440340.441    19798769.83849  15421633.76045  24440339.675    24440349.548
       203.000         138.000
  20743751.501   -22642847.84549 -17632198.43948  20743750.990    20743756.709
       246.000         214.000
  23854038.963    -8368189.51849  -6503391.21345  23854039.552    23854048.662
       215.000         155.000
  23001456.752    12619004.55249   9839636.09946  23001456.153    23001463.141
       225.000         172.000
  20784329.500   -19879672.78049 -15475651.80748  20784329.248    20784334.497
       246.000         213.000
  22297319.431   -18993888.52249 -14779289.44947  22297318.857    22297325.085
       233.000         188.000
  23952773.549    -6427053.80349  -4994210.29045  23952774.100    23952781.924
       213.000         153.000
  21392885.244    -8088975.31749  -6285458.31847  21392884.045    21392890.515
       241.000         204.000
  23199768.326   -12461896.58649  -9691300.07446  23199767.245    23199774.316
       223.000         165.000
  24467292.878    -5493324.52049  -4264235.89645  24467293.115    24467299.651
       214.000         144.000
 02  7 11 14 26 30.0000000  0 11G30G24G23G29G 5G 6G17G26G10G15G18
  21385265.616    -4189043.17749  -3256694.95747  21385265.599    21385271.151
       244.000         206.000
  24454943.526    19875509.61549  15481430.83345  24454942.775    24454951.106
       203.000         134.000
  20738441.525   -22670751.87149 -17653941.83648  20738440.796    20738446.819
       246.000         215.000
  23840902.831    -8437220.47449  -6557181.50445  23840901.537    23840911.252
       214.000         153.000
  23020644.253    12719835.27749   9918205.38946  23020643.830    23020650.511
       224.000         171.000
  20775990.015   -19923497.15749 -15509800.67548  20775989.682    20775995.037
       245.000         213.000
  22286926.865   -19048502.06049 -14821845.43747  22286925.982    22286932.993
       233.000         189.000
  23936039.681    -6514990.65449  -5062732.43145  23936038.875    23936049.482
       210.000         149.000
  21404549.430    -8027679.64849  -6237695.48747  21404548.579    21404554.419
       241.000         203.000
  23185888.032   -12534837.34649  -9748137.02146  23185886.375    23185894.199
       221.000         165.000
  24446260.912    -5603847.47449  -4350357.70445  24446259.707    24446268.172
       212.000         142.000
 02  7 11 14 27  0.0000000  0 11G30G24G23G29G 5G 6G17G26G10G15G18
  21398414.836    -4119943.80449  -3202851.35947  21398414.886    21398420.394
       243.000         206.000
  24469538.339    19952206.48749  15541194.47445  24469538.051    24469548.308
       204.000         134.000
  20733232.560   -22698125.27049 -17675271.76048  20733231.812    20733237.825
       245.000         215.000
  23827800.995    -8506070.54849  -6610830.87345  23827799.887    23827809.385
       214.000         155.000
  23039861.030    12820819.35249   9996894.16146  23039860.137    23039868.129
       224.000         170.000
  20767701.723   -19967052.52949 -15543739.92948  20767701.469    20767706.580
       246.000         213.000
  22276570.464   -19102925.54449 -14864253.34847  22276569.622    22276576.587
       232.000         189.000
  23919323.505    -6602833.89749  -5131181.64845  23919322.358    23919333.322
       212.000         147.000
  21416305.224    -7965902.40949  -6189557.41147  21416304.131    21416310.774
       241.000         203.000
  23172041.578   -12607600.99449  -9804835.94546  23172041.270    23172048.116
       222.000         165.000
  24425244.502    -5714290.28149  -4436417.06745  24425243.836    24425252.060
       208.000         142.000
 02  7 11 14 27 30.0000000  0 11G30G24G23G29G 5G 6G17G26G10G15G18
  21411646.297    -4050411.96649  -3148670.77147  21411646.586    21411652.009
       243.000         205.000
  24484125.156    20028860.21049  15600924.53545  24484126.852    24484135.309
       208.000         137.000
  20728124.599   -22724967.76349 -17696187.98548  20728123.769    20728129.715
       245.000         214.000
  23814734.144    -8574736.83649  -6664337.01845  23814734.063    23814742.330
       214.000         154.000
  23059106.288    12921953.77849  10075700.09646  23059105.463    23059113.081
       222.000         170.000
  20759464.893   -20010337.47849 -15577468.46648  20759464.342    20759469.802
       246.000         213.000
  22266250.133   -19157159.15449 -14906513.29647  22266249.506    22266255.723
       234.000         189.000
  23902625.871    -6690580.21749  -5199555.35945  23902625.507    23902635.257
       213.000         144.000
  21428152.174    -7903646.26149  -6141046.16447  21428151.449    21428157.422
       242.000         203.000
  23158228.859   -12680187.40049  -9861396.77246  23158228.062    23158235.565
       223.000         166.000
  24404243.546    -5824650.81949  -4522412.29645  24404243.734    24404250.513
       211.000         143.000
 02  7 11 14 28  0.0000000  0 11G30G24G23G29G 5G 6G17G26G10G15G18
  21424959.529    -3980450.53549  -3094155.43047  21424959.829    21424965.397
       243.000         204.000
  24498703.837    20105469.94849  15660620.25545  24498704.590    24498713.306
       213.000         143.000
  20723117.676   -22751279.19549 -17716690.40048  20723117.115    20723122.854
       246.000         215.000
  23801702.767    -8643216.88049  -6717698.05645  23801702.144    23801709.864
       215.000         153.000
  23078379.568    13023235.58049  10154620.86146  23078379.211    23078386.579
       223.000         170.000
  20751279.733   -20053350.47949 -15610985.09548  20751279.228    20751284.696
       245.000         213.000
  22255965.826   -19211203.47449 -14948625.74147  22255965.036    22255971.511
       233.000         189.000
  23885947.291    -6778226.70749  -5267851.29545  23885946.583    23885957.441
       209.000         144.000
  21440089.766    -7840913.93149  -6092163.87047  21440089.065    21440095.354
       241.000         203.000
  23144449.699   -12752596.89149  -9917819.73646  23144448.911    23144456.397
       223.000         166.000
  24383258.646    -5934927.21149  -4608341.96445  24383258.112    24383265.928
       214.000         145.000
 02  7 11 14 28 30.0000000  0 11G30G24G23G29G 5G 6G17G26G10G15G18
  21438354.000    -3910062.15049  -3039307.39047  21438354.226    21438359.344
       242.000         204.000
  24513274.039    20182035.55849  15720281.65245  24513274.713    24513283.313
       213.000         147.000
  20718211.942   -22777059.24149 -17736778.75048  20718211.131    20718217.103
       246.000         215.000
  23788707.362    -8711507.92049  -6770911.80845  23788706.651    23788715.712
       217.000         152.000
  23097680.485    13124662.03649  10233654.34146  23097680.059    23097687.771
       224.000         171.000
  20743146.676   -20096089.82149 -15644288.48048  20743146.578    20743151.629
       246.000         214.000
  22245717.417   -19265058.96549 -14990591.06447  22245716.931    22245723.567
       234.000         189.000
  23869288.218    -6865769.83949  -5336066.70745  23869289.155    23869297.183
       208.000         143.000
  21452117.519    -7777707.76149  -6042912.33347  21452116.619    21452123.050
       241.000         203.000
  23130704.347   -12824829.53749  -9974104.89446  23130703.787    23130710.798
       223.000         167.000
  24362290.204    -6045117.66549  -4694204.68445  24362288.918    24362298.123
       214.000         147.000
 02  7 11 14 29  0.0000000  0 11G30G24G23G29G 5G 6G17G26G10G15G18
  21451829.364    -3839248.82749  -2984128.25347  21451829.777    21451834.983
       243.000         204.000
  24527835.774    20258556.62649  15779908.31345  24527835.843    24527844.996
       215.000         151.000
  20713407.413   -22802307.10149 -17756452.41448  20713406.717    20713412.574
       246.000         215.000
  23775748.741    -8779606.34149  -6823975.46745  23775748.242    23775756.397
       217.000         153.000
  23117008.593    13226230.75449  10312798.65946  23117008.248    23117015.787
       226.000         171.000
  20735066.177   -20138553.36749 -15677376.96848  20735065.493    20735071.329
       245.000         213.000
  22235505.025   -19318725.42749 -15032409.09147  22235504.650    22235511.309
       234.000         190.000
  23852649.616    -6953205.96949  -5404198.69445  23852649.055    23852658.060
       211.000         143.000
  21464234.976    -7714030.13449  -5993293.44247  21464234.290    21464240.046
       241.000         203.000
  23116992.633   -12896884.90849 -10030251.94346  23116991.520    23116998.140
       224.000         167.000
  24341338.600    -6155219.29549  -4779998.14245  24341338.222    24341346.945
       217.000         149.000
 02  7 11 14 29 30.0000000  0 11G30G24G23G29G 5G 6G17G26G10G15G18
  21465384.986    -3768013.68849  -2928620.41647  21465385.343    21465390.984
       243.000         205.000
  24542388.896    20335032.51649  15839499.78745  24542389.297    24542398.332
       217.000         155.000
  20708704.168   -22827022.84849 -17775711.44248  20708703.333    20708709.385
       245.000         215.000
  23762827.062    -8847509.92049  -6876887.32145  23762826.977    23762834.825
       218.000         153.000
  23136363.089    13327938.58049  10392051.37246  23136363.089    23136370.436
       225.000         172.000
  20727038.323   -20180739.65549 -15710249.40448  20727038.160    20727043.321
       246.000         213.000
  22225328.573   -19372203.50249 -15074080.31547  22225327.836    22225334.195
       233.000         189.000
  23836032.076    -7040531.92849  -5472244.84345  23836032.788    23836042.611
       214.000         146.000
  21476441.584    -7649883.93349  -5943309.43847  21476440.909    21476447.491
       241.000         202.000
  23103314.636   -12968763.25949 -10086261.02246  23103313.939    23103321.169
       224.000         168.000
  24320404.376    -6265229.79249  -4865720.59945  24320403.985    24320412.006
       216.000         151.000
 02  7 11 14 30  0.0000000  0 11G30G24G23G29G 5G 6G17G26G10G15G18
  21479020.408    -3696359.20349  -2872785.82247  21479020.803    21479026.283
       243.000         205.000
  24556933.208    20411462.97349  15899055.81445  24556933.039    24556942.537
       214.000         155.000
  20704102.187   -22851206.23349 -17794555.64348  20704101.489    20704107.406
       246.000         215.000
  23749943.207    -8915215.33449  -6929644.73445  23749942.017    23749951.513
       218.000         154.000
  23155743.450    13429782.51549  10471410.15946  23155742.723    23155750.945
       227.000         173.000
  20719063.706   -20222647.06449 -15742904.51448  20719063.411    20719068.853
       246.000         214.000
  22215187.773   -19425493.43449 -15115604.93147  22215187.206    22215193.309
       234.000         189.000
  23819436.032    -7127744.53849  -5540202.66745  23819435.408    23819444.981
       213.000         146.000
  21488736.970    -7585271.79049  -5892962.34647  21488735.938    21488742.507
       241.000         202.000
  23089670.397   -13040464.61949 -10142132.20446  23089670.444    23089676.266
       225.000         169.000
  24299487.898    -6375147.32849  -4951370.65945  24299487.225    24299495.443
       216.000         154.000
 02  7 11 14 30 30.0000000  0 11G30G24G23G29G 5G 6G17G26G10G15G18
  21492735.292    -3624287.35049  -2816626.01147  21492735.589    21492741.187
       242.000         204.000
  24571468.753    20487848.04049  15958576.47745  24571468.836    24571479.071
       216.000         158.000
  20699601.754   -22874856.20449 -17812984.19548  20699601.094    20699607.053
       246.000         215.000
  23737097.608    -8982719.31249  -6982245.19245  23737097.649    23737104.170
       219.000         156.000
  23175149.373    13531760.74849  10550873.57546  23175147.569    23175156.722
       224.000         172.000
  20711142.523   -20264273.09549 -15775340.38948  20711142.085    20711147.694
       246.000         214.000
  22205082.930   -19478594.98649 -15156982.75547  22205082.072    22205088.724
       233.000         190.000
  23802862.285    -7214839.61549  -5608068.93945  23802862.881    23802871.524
       215.000         146.000
  21501120.608    -7520195.53649  -5842253.61347  21501119.465    21501126.586
       240.000         202.000
  23076059.838   -13111988.29149 -10197864.92846  23076059.147    23076066.558
       224.000         169.000
  24278589.562    -6484969.08049  -5036946.04445  24278589.142    24278596.876
       216.000         154.000
 02  7 11 14 31  0.0000000  0 11G30G24G23G29G 5G 6G17G26G10G15G18
  21506529.046    -3551801.05249  -2760143.25247  21506529.639    21506534.656
       242.000         204.000
  24585995.842    20564187.43349  16018061.57445  24585995.400    24586005.586
       217.000         158.000
  20695202.815   -22897972.77649 -17830997.11648  20695202.150    20695207.973
       247.000         215.000
  23724290.879    -9050019.00149  -7034686.45545  23724290.635    23724298.759
       219.000         158.000
  23194580.243    13633870.03849  10630439.11846  23194579.637    23194588.397
       225.000         173.000
  20703275.197   -20305616.21149 -15807555.80848  20703275.081    20703280.268
       247.000         214.000
  22195013.733   -19531508.55649 -15198214.10047  22195013.002    22195019.487
       233.000         190.000
  23786311.790    -7301813.91649  -5675841.10945  23786310.890    23786322.186
       212.000         147.000
  21513592.037    -7454657.97849  -5791185.42647  21513591.401    21513597.766
       242.000         202.000
  23062483.249   -13183334.45549 -10253459.32146  23062482.685    23062489.378
       226.000         171.000
  24257709.882    -6594692.96949  -5122445.18445  24257709.077    24257716.838
       215.000         155.000
 02  7 11 14 31 30.0000000  0 11G30G24G23G29G 5G 6G17G26G10G15G18
  21520401.198    -3478902.71649  -2703339.43147  21520401.606    21520406.961
       243.000         204.000
  24600514.133    20640480.54149  16077510.62445  24600513.959    24600524.969
       218.000         158.000
  20690905.415   -22920555.78349 -17848594.27248  20690904.535    20690910.656
       246.000         215.000
  23711523.576    -9117111.40349  -7086966.19545  23711523.224    23711531.866
       218.000         159.000
  23214035.539    13736107.69349  10710104.66746  23214034.668    23214042.764
       225.000         173.000
  20695462.050   -20346674.54049 -15839549.32048  20695461.830    20695466.991
       247.000         214.000
  22184980.367   -19584234.44049 -15239299.20447  22184979.878    22184985.949
       234.000         190.000
  23769784.623    -7388664.12849  -5743516.56245  23769784.591    23769793.951
       213.000         148.000
  21526150.843    -7388661.63849  -5739759.75247  21526149.557    21526156.268
       241.000         202.000
  23048940.286   -13254502.95849 -10308915.28546  23048939.681    23048946.395
       225.000         171.000
  24236849.067    -6704316.92149  -5207866.43145  24236848.679    24236856.228
       217.000         154.000
 02  7 11 14 32  0.0000000  0 11G30G24G23G29G 5G 6G17G26G10G15G18
  21534351.340    -3405594.91749  -2646216.54647  21534351.639    21534356.939
       242.000         204.000
  24615023.537    20716727.51749  16136923.67345  24615023.164    24615033.396
       216.000         158.000
  20686709.603   -22942604.87949 -17865775.39248  20686708.999    20686714.865
       246.000         215.000
  23698796.182    -9183993.64849  -7139082.16745  23698796.435    23698803.577
       217.000         160.000
  23233514.806    13838471.32249  10789868.37946  23233514.643    23233522.699
       222.000         170.000
  20687703.472   -20387446.21449 -15871319.45948  20687703.231    20687708.420
       247.000         214.000
  22174982.652   -19636772.63149 -15280238.05147  22174982.309    22174988.632
       235.000         191.000
  23753281.839    -7475386.54149  -5811092.41245  23753281.166    23753291.034
       215.000         149.000
  21538796.380    -7322208.92849  -5687978.45647  21538795.432    21538802.161
       241.000         201.000
  23035431.090   -13325493.51049 -10364232.59546  23035430.463    23035437.688
       225.000         170.000
  24216007.873    -6813838.07449  -5293207.60045  24216005.878    24216014.850
       216.000         152.000
 02  7 11 14 32 30.0000000  0 11G30G24G23G29G 5G 6G17G26G10G15G18
  21548378.890    -3331880.44549  -2588776.77747  21548378.988    21548384.857
       242.000         203.000
  24629524.206    20792927.68949  16196300.29445  24629525.264    24629532.967
       219.000         156.000
  20682615.412   -22964119.90849 -17882540.35748  20682614.914    20682620.731
       246.000         215.000
  23686109.356    -9250662.88849  -7191032.16445  23686108.438    23686117.918
       218.000         158.000
  23253017.561    13940957.86949  10869727.90246  23253017.071    23253024.024
       223.000         169.000
  20679999.797   -20427929.54649 -15902864.92548  20679999.584    20680004.834
       247.000         214.000
  22165020.661   -19689123.67049 -15321031.06147  22165019.756    22165026.719
       234.000         191.000
  23736804.086    -7561977.93449  -5878566.19645  23736803.703    23736812.902
       215.000         150.000
  21551528.283    -7255302.41449  -5635843.55547  21551527.768    21551533.884
       241.000         202.000
  23021955.950   -13396306.37249 -10419411.43546  23021954.463    23021961.660
       224.000         171.000
  24195186.748    -6923254.93349  -5378467.50345  24195186.701    24195193.546
       216.000         152.000
